Wetterdaten: Dienstag, 26.09.2017
Datum Zeit Temp. A. Pool Temp. Feuchte A. Luftdruck Regen Wind Richtung Richtung Sonnenschein ET UV Solar Taupunkt Windchill Windben Empfang
26.09.2017 00:00 12,7 C 13,3 C 85 % 1019,3 hPa 0,0 l/m 8,8 km/h (2 Bft) O-NO 66 0 min 0,000 mm 0,0 UV-I 0 W/m 10,2 C 11,2 C 16,1 km/h (3 Bft) 96,23 %
26.09.2017 00:02 12,7 C 13,3 C 85 % 1019,2 hPa 0,0 l/m 9,1 km/h (2 Bft) O-NO 57 0 min 0,000 mm 0,0 UV-I 0 W/m 10,2 C 11,1 C 17,7 km/h (3 Bft) 97,22 %
26.09.2017 00:04 12,7 C 13,3 C 85 % 1019,2 hPa 0,0 l/m 9,6 km/h (2 Bft) NO 54 0 min 0,000 mm 0,0 UV-I 0 W/m 10,2 C 10,8 C 14,5 km/h (3 Bft) 98,21 %
26.09.2017 00:06 12,7 C 13,3 C 85 % 1019,3 hPa 0,0 l/m 9,9 km/h (2 Bft) O-NO 76 0 min 0,000 mm 0,0 UV-I 0 W/m 10,2 C 10,6 C 17,7 km/h (3 Bft) 97,14 %
26.09.2017 00:08 12,7 C 13,3 C 85 % 1019,3 hPa 0,0 l/m 11,7 km/h (2 Bft) O-NO 62 0 min 0,000 mm 0,0 UV-I 0 W/m 10,2 C 9,8 C 16,1 km/h (3 Bft) 98,25 %
26.09.2017 00:10 12,6 C 13,3 C 85 % 1019,3 hPa 0,0 l/m 9,1 km/h (2 Bft) NO 41 0 min 0,000 mm 0,0 UV-I 0 W/m 10,1 C 10,9 C 14,5 km/h (3 Bft) 100,00 %
26.09.2017 00:12 12,6 C 13,3 C 85 % 1019,3 hPa 0,0 l/m 9,6 km/h (2 Bft) O-NO 72 0 min 0,000 mm 0,0 UV-I 0 W/m 10,1 C 10,7 C 14,5 km/h (3 Bft) 100,00 %
26.09.2017 00:14 12,6 C 13,3 C 85 % 1019,2 hPa 0,0 l/m 11,2 km/h (2 Bft) O-NO 66 0 min 0,000 mm 0,0 UV-I 0 W/m 10,1 C 9,9 C 16,1 km/h (3 Bft) 100,00 %
26.09.2017 00:16 12,6 C 13,3 C 85 % 1019,2 hPa 0,0 l/m 12,7 km/h (3 Bft) O 101 0 min 0,000 mm 0,0 UV-I 0 W/m 10,1 C 9,2 C 19,3 km/h (3 Bft) 100,00 %
26.09.2017 00:18 12,6 C 13,3 C 85 % 1019,2 hPa 0,0 l/m 10,4 km/h (2 Bft) O-NO 65 0 min 0,000 mm 0,0 UV-I 0 W/m 10,1 C 10,3 C 14,5 km/h (3 Bft) 100,00 %
26.09.2017 00:20 12,6 C 13,3 C 85 % 1019,2 hPa 0,0 l/m 13,1 km/h (3 Bft) O-NO 64 0 min 0,000 mm 0,0 UV-I 0 W/m 10,1 C 9,0 C 17,7 km/h (3 Bft) 100,00 %
26.09.2017 00:22 12,6 C 13,3 C 85 % 1019,2 hPa 0,0 l/m 11,9 km/h (2 Bft) O-NO 69 0 min 0,000 mm 0,0 UV-I 0 W/m 10,1 C 9,6 C 16,1 km/h (3 Bft) 97,56 %
26.09.2017 00:24 12,6 C 13,3 C 85 % 1019,2 hPa 0,0 l/m 11,6 km/h (2 Bft) NO 53 0 min 0,000 mm 0,0 UV-I 0 W/m 10,1 C 9,7 C 17,7 km/h (3 Bft) 100,00 %
26.09.2017 00:26 12,6 C 13,3 C 85 % 1019,2 hPa 0,0 l/m 9,9 km/h (2 Bft) O-NO 71 0 min 0,000 mm 0,0 UV-I 0 W/m 10,1 C 10,5 C 16,1 km/h (3 Bft) 100,00 %
26.09.2017 00:28 12,5 C 13,3 C 85 % 1019,2 hPa 0,0 l/m 14,1 km/h (3 Bft) O-NO 61 0 min 0,000 mm 0,0 UV-I 0 W/m 10,0 C 8,5 C 20,9 km/h (4 Bft) 100,00 %
26.09.2017 00:30 12,5 C 13,3 C 85 % 1019,2 hPa 0,0 l/m 11,0 km/h (2 Bft) O 92 0 min 0,000 mm 0,0 UV-I 0 W/m 10,0 C 9,9 C 16,1 km/h (3 Bft) 100,00 %
26.09.2017 00:32 12,5 C 13,3 C 85 % 1019,3 hPa 0,0 l/m 13,1 km/h (3 Bft) O-NO 64 0 min 0,000 mm 0,0 UV-I 0 W/m 10,0 C 8,9 C 20,9 km/h (4 Bft) 98,11 %
26.09.2017 00:34 12,5 C 13,3 C 85 % 1019,2 hPa 0,0 l/m 12,7 km/h (3 Bft) O-NO 74 0 min 0,000 mm 0,0 UV-I 0 W/m 10,0 C 9,1 C 17,7 km/h (3 Bft) 100,00 %
26.09.2017 00:36 12,5 C 13,3 C 85 % 1019,2 hPa 0,0 l/m 11,3 km/h (2 Bft) NO 55 0 min 0,000 mm 0,0 UV-I 0 W/m 10,0 C 9,7 C 16,1 km/h (3 Bft) 100,00 %
26.09.2017 00:38 12,5 C 13,3 C 85 % 1019,2 hPa 0,0 l/m 11,3 km/h (2 Bft) O-NO 68 0 min 0,000 mm 0,0 UV-I 0 W/m 10,0 C 9,7 C 16,1 km/h (3 Bft) 100,00 %
26.09.2017 00:40 12,5 C 13,3 C 85 % 1019,3 hPa 0,0 l/m 12,0 km/h (2 Bft) O-NO 68 0 min 0,000 mm 0,0 UV-I 0 W/m 10,0 C 9,4 C 20,9 km/h (4 Bft) 100,00 %
26.09.2017 00:42 12,5 C 13,3 C 85 % 1019,3 hPa 0,0 l/m 9,8 km/h (2 Bft) O-NO 63 0 min 0,000 mm 0,0 UV-I 0 W/m 10,0 C 10,5 C 16,1 km/h (3 Bft) 100,00 %
26.09.2017 00:44 12,4 C 13,3 C 85 % 1019,3 hPa 0,0 l/m 9,6 km/h (2 Bft) O-NO 76 0 min 0,000 mm 0,0 UV-I 0 W/m 9,9 C 10,5 C 17,7 km/h (3 Bft) 100,00 %
26.09.2017 00:46 12,4 C 13,3 C 85 % 1019,3 hPa 0,0 l/m 13,4 km/h (3 Bft) O 81 0 min 0,000 mm 0,0 UV-I 0 W/m 9,9 C 8,7 C 17,7 km/h (3 Bft) 97,56 %
26.09.2017 00:48 12,4 C 13,3 C 85 % 1019,3 hPa 0,0 l/m 8,6 km/h (2 Bft) NO 56 0 min 0,000 mm 0,0 UV-I 0 W/m 9,9 C 11,0 C 14,5 km/h (3 Bft) 100,00 %
26.09.2017 00:50 12,4 C 13,3 C 85 % 1019,3 hPa 0,0 l/m 9,1 km/h (2 Bft) O-NO 59 0 min 0,000 mm 0,0 UV-I 0 W/m 9,9 C 10,7 C 16,1 km/h (3 Bft) 97,14 %
26.09.2017 00:52 12,4 C 13,3 C 85 % 1019,3 hPa 0,0 l/m 10,8 km/h (2 Bft) O-NO 74 0 min 0,000 mm 0,0 UV-I 0 W/m 9,9 C 9,8 C 14,5 km/h (3 Bft) 100,00 %
26.09.2017 00:54 12,4 C 13,3 C 85 % 1019,3 hPa 0,0 l/m 10,7 km/h (2 Bft) NO 40 0 min 0,000 mm 0,0 UV-I 0 W/m 9,9 C 9,9 C 14,5 km/h (3 Bft) 100,00 %
26.09.2017 00:56 12,4 C 13,3 C 85 % 1019,3 hPa 0,0 l/m 12,3 km/h (3 Bft) O-NO 71 0 min 0,000 mm 0,0 UV-I 0 W/m 9,9 C 9,1 C 17,7 km/h (3 Bft) 100,00 %
26.09.2017 00:58 12,4 C 13,3 C 85 % 1019,3 hPa 0,0 l/m 8,7 km/h (2 Bft) O-NO 71 0 min 0,000 mm 0,0 UV-I 0 W/m 9,9 C 11,0 C 12,9 km/h (3 Bft) 100,00 %
26.09.2017 01:00 12,3 C 13,3 C 85 % 1019,3 hPa 0,0 l/m 8,5 km/h (2 Bft) O 85 0 min 0,025 mm 0,0 UV-I 0 W/m 9,9 C 11,0 C 14,5 km/h (3 Bft) 98,11 %
26.09.2017 01:02 12,3 C 13,3 C 85 % 1019,3 hPa 0,0 l/m 10,4 km/h (2 Bft) NO 51 0 min 0,000 mm 0,0 UV-I 0 W/m 9,9 C 9,9 C 17,7 km/h (3 Bft) 98,00 %
26.09.2017 01:04 12,3 C 13,3 C 85 % 1019,3 hPa 0,0 l/m 7,4 km/h (2 Bft) O-NO 73 0 min 0,000 mm 0,0 UV-I 0 W/m 9,9 C 11,6 C 11,3 km/h (2 Bft) 97,87 %
26.09.2017 01:06 12,3 C 13,3 C 85 % 1019,3 hPa 0,0 l/m 9,0 km/h (2 Bft) O 84 0 min 0,000 mm 0,0 UV-I 0 W/m 9,9 C 10,7 C 12,9 km/h (3 Bft) 98,00 %
26.09.2017 01:08 12,3 C 13,3 C 85 % 1019,3 hPa 0,0 l/m 8,4 km/h (2 Bft) NO 51 0 min 0,000 mm 0,0 UV-I 0 W/m 9,9 C 11,0 C 12,9 km/h (3 Bft) 93,33 %
26.09.2017 01:10 12,3 C 13,3 C 85 % 1019,3 hPa 0,0 l/m 10,0 km/h (2 Bft) O-NO 62 0 min 0,000 mm 0,0 UV-I 0 W/m 9,9 C 10,1 C 14,5 km/h (3 Bft) 100,00 %
26.09.2017 01:12 12,3 C 13,3 C 85 % 1019,4 hPa 0,0 l/m 8,7 km/h (2 Bft) O-NO 69 0 min 0,000 mm 0,0 UV-I 0 W/m 9,9 C 10,8 C 14,5 km/h (3 Bft) 94,92 %
26.09.2017 01:14 12,3 C 13,3 C 85 % 1019,3 hPa 0,0 l/m 10,9 km/h (2 Bft) O 80 0 min 0,000 mm 0,0 UV-I 0 W/m 9,9 C 9,7 C 16,1 km/h (3 Bft) 97,56 %
26.09.2017 01:16 12,2 C 13,3 C 85 % 1019,3 hPa 0,0 l/m 9,4 km/h (2 Bft) O-NO 59 0 min 0,000 mm 0,0 UV-I 0 W/m 9,8 C 10,3 C 14,5 km/h (3 Bft) 98,11 %
26.09.2017 01:18 12,2 C 13,3 C 85 % 1019,3 hPa 0,0 l/m 9,1 km/h (2 Bft) NO 54 0 min 0,000 mm 0,0 UV-I 0 W/m 9,8 C 10,5 C 12,9 km/h (3 Bft) 97,44 %
26.09.2017 01:20 12,2 C 13,3 C 85 % 1019,3 hPa 0,0 l/m 9,2 km/h (2 Bft) O-NO 71 0 min 0,000 mm 0,0 UV-I 0 W/m 9,8 C 10,5 C 16,1 km/h (3 Bft) 98,18 %
26.09.2017 01:22 12,2 C 13,3 C 85 % 1019,3 hPa 0,0 l/m 9,2 km/h (2 Bft) O-NO 63 0 min 0,000 mm 0,0 UV-I 0 W/m 9,8 C 10,5 C 17,7 km/h (3 Bft) 97,62 %
26.09.2017 01:24 12,2 C 13,3 C 85 % 1019,3 hPa 0,0 l/m 9,7 km/h (2 Bft) NO 55 0 min 0,000 mm 0,0 UV-I 0 W/m 9,8 C 10,2 C 16,1 km/h (3 Bft) 98,11 %
26.09.2017 01:26 12,2 C 13,3 C 85 % 1019,4 hPa 0,0 l/m 13,6 km/h (3 Bft) O-NO 78 0 min 0,000 mm 0,0 UV-I 0 W/m 9,8 C 8,4 C 19,3 km/h (3 Bft) 97,14 %
26.09.2017 01:28 12,1 C 13,3 C 86 % 1019,4 hPa 0,0 l/m 10,0 km/h (2 Bft) NO 55 0 min 0,000 mm 0,0 UV-I 0 W/m 9,8 C 9,9 C 12,9 km/h (3 Bft) 97,56 %
26.09.2017 01:30 12,1 C 13,3 C 86 % 1019,4 hPa 0,0 l/m 10,1 km/h (2 Bft) O-NO 69 0 min 0,000 mm 0,0 UV-I 0 W/m 9,8 C 9,9 C 16,1 km/h (3 Bft) 94,64 %
26.09.2017 01:32 12,1 C 13,3 C 86 % 1019,4 hPa 0,0 l/m 9,9 km/h (2 Bft) O-NO 63 0 min 0,000 mm 0,0 UV-I 0 W/m 9,8 C 10,0 C 16,1 km/h (3 Bft) 98,00 %
26.09.2017 01:34 12,1 C 13,3 C 86 % 1019,4 hPa 0,0 l/m 11,0 km/h (2 Bft) O-NO 64 0 min 0,000 mm 0,0 UV-I 0 W/m 9,8 C 9,4 C 16,1 km/h (3 Bft) 100,00 %
26.09.2017 01:36 12,1 C 13,3 C 86 % 1019,4 hPa 0,0 l/m 8,7 km/h (2 Bft) NO 50 0 min 0,000 mm 0,0 UV-I 0 W/m 9,8 C 10,6 C 14,5 km/h (3 Bft) 100,00 %
26.09.2017 01:38 12,0 C 13,3 C 86 % 1019,4 hPa 0,0 l/m 8,5 km/h (2 Bft) O-NO 65 0 min 0,000 mm 0,0 UV-I 0 W/m 9,7 C 10,6 C 14,5 km/h (3 Bft) 100,00 %
26.09.2017 01:40 12,0 C 13,3 C 86 % 1019,4 hPa 0,0 l/m 9,3 km/h (2 Bft) O-NO 57 0 min 0,000 mm 0,0 UV-I 0 W/m 9,7 C 10,2 C 16,1 km/h (3 Bft) 100,00 %
26.09.2017 01:42 11,9 C 13,3 C 86 % 1019,4 hPa 0,0 l/m 10,3 km/h (2 Bft) O-NO 68 0 min 0,000 mm 0,0 UV-I 0 W/m 9,6 C 9,5 C 16,1 km/h (3 Bft) 98,21 %
26.09.2017 01:44 11,9 C 13,3 C 86 % 1019,4 hPa 0,0 l/m 8,5 km/h (2 Bft) O-NO 58 0 min 0,000 mm 0,0 UV-I 0 W/m 9,6 C 10,5 C 16,1 km/h (3 Bft) 97,56 %
26.09.2017 01:46 11,9 C 13,3 C 86 % 1019,4 hPa 0,0 l/m 8,6 km/h (2 Bft) O-NO 78 0 min 0,000 mm 0,0 UV-I 0 W/m 9,6 C 10,5 C 14,5 km/h (3 Bft) 100,00 %
26.09.2017 01:48 11,9 C 13,3 C 86 % 1019,4 hPa 0,0 l/m 6,3 km/h (2 Bft) O-NO 59 0 min 0,000 mm 0,0 UV-I 0 W/m 9,6 C 11,9 C 11,3 km/h (2 Bft) 100,00 %
26.09.2017 01:50 11,9 C 13,3 C 86 % 1019,4 hPa 0,0 l/m 9,1 km/h (2 Bft) NO 53 0 min 0,000 mm 0,0 UV-I 0 W/m 9,6 C 10,2 C 14,5 km/h (3 Bft) 100,00 %
26.09.2017 01:52 11,9 C 13,3 C 86 % 1019,4 hPa 0,0 l/m 6,1 km/h (2 Bft) NO 47 0 min 0,000 mm 0,0 UV-I 0 W/m 9,6 C 11,9 C 9,7 km/h (2 Bft) 100,00 %
26.09.2017 01:54 11,8 C 13,3 C 86 % 1019,4 hPa 0,0 l/m 6,4 km/h (2 Bft) NO 54 0 min 0,000 mm 0,0 UV-I 0 W/m 9,5 C 11,8 C 8,0 km/h (2 Bft) 100,00 %
26.09.2017 01:56 11,8 C 13,3 C 86 % 1019,4 hPa 0,0 l/m 8,2 km/h (2 Bft) O-NO 60 0 min 0,000 mm 0,0 UV-I 0 W/m 9,5 C 10,6 C 14,5 km/h (3 Bft) 97,56 %
26.09.2017 01:58 11,8 C 13,3 C 86 % 1019,4 hPa 0,0 l/m 7,2 km/h (2 Bft) O-NO 71 0 min 0,000 mm 0,0 UV-I 0 W/m 9,5 C 11,3 C 12,9 km/h (3 Bft) 100,00 %
26.09.2017 02:00 11,8 C 13,3 C 86 % 1019,4 hPa 0,0 l/m 7,7 km/h (2 Bft) NO 51 0 min 0,026 mm 0,0 UV-I 0 W/m 9,5 C 10,9 C 14,5 km/h (3 Bft) 100,00 %
26.09.2017 02:02 11,8 C 13,3 C 86 % 1019,4 hPa 0,0 l/m 6,4 km/h (2 Bft) NO 53 0 min 0,000 mm 0,0 UV-I 0 W/m 9,5 C 11,8 C 9,7 km/h (2 Bft) 100,00 %
26.09.2017 02:04 11,8 C 13,3 C 86 % 1019,4 hPa 0,0 l/m 7,1 km/h (2 Bft) O-NO 61 0 min 0,000 mm 0,0 UV-I 0 W/m 9,5 C 11,3 C 14,5 km/h (3 Bft) 100,00 %
26.09.2017 02:06 11,8 C 13,3 C 87 % 1019,4 hPa 0,0 l/m 4,1 km/h (1 Bft) O-NO 62 0 min 0,000 mm 0,0 UV-I 0 W/m 9,7 C 11,8 C 6,4 km/h (2 Bft) 100,00 %
26.09.2017 02:08 11,8 C 13,3 C 87 % 1019,4 hPa 0,0 l/m 3,6 km/h (1 Bft) NO 53 0 min 0,000 mm 0,0 UV-I 0 W/m 9,7 C 11,8 C 6,4 km/h (2 Bft) 100,00 %
26.09.2017 02:10 11,8 C 13,3 C 87 % 1019,4 hPa 0,0 l/m 3,1 km/h (1 Bft) NO 53 0 min 0,000 mm 0,0 UV-I 0 W/m 9,7 C 11,8 C 4,8 km/h (1 Bft) 100,00 %
26.09.2017 02:12 11,8 C 13,3 C 87 % 1019,4 hPa 0,0 l/m 3,9 km/h (1 Bft) NO 53 0 min 0,000 mm 0,0 UV-I 0 W/m 9,7 C 11,8 C 4,8 km/h (1 Bft) 97,37 %
26.09.2017 02:14 11,7 C 13,3 C 87 % 1019,4 hPa 0,0 l/m 5,2 km/h (1 Bft) NO 55 0 min 0,000 mm 0,0 UV-I 0 W/m 9,6 C 11,7 C 8,0 km/h (2 Bft) 100,00 %
26.09.2017 02:16 11,7 C 13,3 C 87 % 1019,4 hPa 0,0 l/m 4,8 km/h (1 Bft) NO 56 0 min 0,000 mm 0,0 UV-I 0 W/m 9,6 C 11,7 C 6,4 km/h (2 Bft) 100,00 %
26.09.2017 02:18 11,7 C 13,3 C 87 % 1019,4 hPa 0,0 l/m 4,8 km/h (1 Bft) O-NO 62 0 min 0,000 mm 0,0 UV-I 0 W/m 9,6 C 11,7 C 6,4 km/h (2 Bft) 100,00 %
26.09.2017 02:20 11,7 C 13,3 C 87 % 1019,4 hPa 0,0 l/m 5,4 km/h (1 Bft) NO 55 0 min 0,000 mm 0,0 UV-I 0 W/m 9,6 C 11,7 C 8,0 km/h (2 Bft) 100,00 %
26.09.2017 02:22 11,7 C 13,3 C 87 % 1019,4 hPa 0,0 l/m 5,5 km/h (1 Bft) O-NO 58 0 min 0,000 mm 0,0 UV-I 0 W/m 9,6 C 11,7 C 8,0 km/h (2 Bft) 100,00 %
26.09.2017 02:24 11,6 C 13,3 C 87 % 1019,4 hPa 0,0 l/m 4,7 km/h (1 Bft) NO 51 0 min 0,000 mm 0,0 UV-I 0 W/m 9,5 C 11,6 C 8,0 km/h (2 Bft) 100,00 %
26.09.2017 02:26 11,6 C 13,3 C 87 % 1019,4 hPa 0,0 l/m 5,2 km/h (1 Bft) O-NO 70 0 min 0,000 mm 0,0 UV-I 0 W/m 9,5 C 11,6 C 8,0 km/h (2 Bft) 100,00 %
26.09.2017 02:28 11,6 C 13,3 C 87 % 1019,4 hPa 0,0 l/m 4,5 km/h (1 Bft) O-NO 62 0 min 0,000 mm 0,0 UV-I 0 W/m 9,5 C 11,6 C 6,4 km/h (2 Bft) 100,00 %
26.09.2017 02:30 11,6 C 13,3 C 88 % 1019,4 hPa 0,0 l/m 4,6 km/h (1 Bft) O-NO 65 0 min 0,000 mm 0,0 UV-I 0 W/m 9,7 C 11,6 C 8,0 km/h (2 Bft) 97,87 %
26.09.2017 02:32 11,6 C 13,3 C 88 % 1019,3 hPa 0,0 l/m 5,0 km/h (1 Bft) O-NO 63 0 min 0,000 mm 0,0 UV-I 0 W/m 9,7 C 11,6 C 8,0 km/h (2 Bft) 100,00 %
26.09.2017 02:34 11,6 C 13,3 C 88 % 1019,4 hPa 0,0 l/m 5,6 km/h (1 Bft) O-NO 69 0 min 0,000 mm 0,0 UV-I 0 W/m 9,7 C 11,6 C 8,0 km/h (2 Bft) 100,00 %
26.09.2017 02:36 11,5 C 13,3 C 88 % 1019,4 hPa 0,0 l/m 6,2 km/h (2 Bft) O-NO 67 0 min 0,000 mm 0,0 UV-I 0 W/m 9,6 C 11,5 C 9,7 km/h (2 Bft) 100,00 %
26.09.2017 02:38 11,5 C 13,3 C 88 % 1019,4 hPa 0,0 l/m 5,5 km/h (1 Bft) O 84 0 min 0,000 mm 0,0 UV-I 0 W/m 9,6 C 11,5 C 8,0 km/h (2 Bft) 100,00 %
26.09.2017 02:40 11,4 C 13,3 C 88 % 1019,3 hPa 0,0 l/m 7,2 km/h (2 Bft) NO 49 0 min 0,000 mm 0,0 UV-I 0 W/m 9,5 C 10,9 C 11,3 km/h (2 Bft) 97,44 %
26.09.2017 02:42 11,4 C 13,3 C 88 % 1019,3 hPa 0,0 l/m 5,8 km/h (2 Bft) O-NO 63 0 min 0,000 mm 0,0 UV-I 0 W/m 9,5 C 11,4 C 8,0 km/h (2 Bft) 100,00 %
26.09.2017 02:44 11,4 C 13,3 C 88 % 1019,3 hPa 0,0 l/m 7,4 km/h (2 Bft) O-NO 66 0 min 0,000 mm 0,0 UV-I 0 W/m 9,5 C 10,7 C 9,7 km/h (2 Bft) 100,00 %
26.09.2017 02:46 11,4 C 13,3 C 88 % 1019,3 hPa 0,0 l/m 6,4 km/h (2 Bft) NO 52 0 min 0,000 mm 0,0 UV-I 0 W/m 9,5 C 11,4 C 8,0 km/h (2 Bft) 100,00 %
26.09.2017 02:48 11,4 C 13,3 C 88 % 1019,3 hPa 0,0 l/m 5,9 km/h (2 Bft) O-NO 59 0 min 0,000 mm 0,0 UV-I 0 W/m 9,5 C 11,4 C 9,7 km/h (2 Bft) 100,00 %
26.09.2017 02:50 11,4 C 13,3 C 88 % 1019,3 hPa 0,0 l/m 6,7 km/h (2 Bft) O-NO 66 0 min 0,000 mm 0,0 UV-I 0 W/m 9,5 C 11,2 C 9,7 km/h (2 Bft) 100,00 %
26.09.2017 02:52 11,4 C 13,3 C 88 % 1019,3 hPa 0,0 l/m 7,7 km/h (2 Bft) O 97 0 min 0,000 mm 0,0 UV-I 0 W/m 9,5 C 10,5 C 9,7 km/h (2 Bft) 100,00 %
26.09.2017 02:54 11,4 C 13,3 C 88 % 1019,2 hPa 0,0 l/m 6,5 km/h (2 Bft) O-NO 61 0 min 0,000 mm 0,0 UV-I 0 W/m 9,5 C 11,4 C 8,0 km/h (2 Bft) 100,00 %
26.09.2017 02:56 11,4 C 13,3 C 88 % 1019,2 hPa 0,0 l/m 6,4 km/h (2 Bft) NO 51 0 min 0,000 mm 0,0 UV-I 0 W/m 9,5 C 11,4 C 9,7 km/h (2 Bft) 100,00 %
26.09.2017 02:58 11,4 C 13,3 C 88 % 1019,2 hPa 0,0 l/m 6,3 km/h (2 Bft) O-NO 63 0 min 0,000 mm 0,0 UV-I 0 W/m 9,5 C 11,4 C 9,7 km/h (2 Bft) 98,00 %
26.09.2017 03:00 11,4 C 13,3 C 88 % 1019,2 hPa 0,0 l/m 6,8 km/h (2 Bft) O-NO 76 0 min 0,000 mm 0,0 UV-I 0 W/m 9,5 C 11,1 C 9,7 km/h (2 Bft) 95,74 %
26.09.2017 03:02 11,3 C 13,3 C 88 % 1019,2 hPa 0,0 l/m 6,0 km/h (2 Bft) O-NO 68 0 min 0,000 mm 0,0 UV-I 0 W/m 9,4 C 11,3 C 8,0 km/h (2 Bft) 94,00 %
26.09.2017 03:04 11,3 C 13,3 C 88 % 1019,3 hPa 0,0 l/m 6,3 km/h (2 Bft) O-NO 68 0 min 0,000 mm 0,0 UV-I 0 W/m 9,4 C 11,3 C 9,7 km/h (2 Bft) 92,68 %
26.09.2017 03:06 11,3 C 13,3 C 88 % 1019,2 hPa 0,0 l/m 5,6 km/h (1 Bft) O-NO 66 0 min 0,000 mm 0,0 UV-I 0 W/m 9,4 C 11,3 C 9,7 km/h (2 Bft) 94,74 %
26.09.2017 03:08 11,3 C 13,3 C 88 % 1019,2 hPa 0,0 l/m 6,6 km/h (2 Bft) NO 48 0 min 0,000 mm 0,0 UV-I 0 W/m 9,4 C 11,2 C 8,0 km/h (2 Bft) 94,64 %
26.09.2017 03:10 11,3 C 13,3 C 88 % 1019,2 hPa 0,0 l/m 5,8 km/h (2 Bft) NO 56 0 min 0,000 mm 0,0 UV-I 0 W/m 9,4 C 11,3 C 9,7 km/h (2 Bft) 92,86 %
26.09.2017 03:12 11,3 C 13,3 C 88 % 1019,3 hPa 0,0 l/m 4,3 km/h (1 Bft) O-NO 58 0 min 0,000 mm 0,0 UV-I 0 W/m 9,4 C 11,3 C 6,4 km/h (2 Bft) 93,62 %
26.09.2017 03:14 11,3 C 13,3 C 88 % 1019,2 hPa 0,0 l/m 4,7 km/h (1 Bft) O-NO 66 0 min 0,000 mm 0,0 UV-I 0 W/m 9,4 C 11,3 C 8,0 km/h (2 Bft) 93,62 %
26.09.2017 03:16 11,3 C 13,3 C 88 % 1019,3 hPa 0,0 l/m 4,2 km/h (1 Bft) O-NO 66 0 min 0,000 mm 0,0 UV-I 0 W/m 9,4 C 11,3 C 6,4 km/h (2 Bft) 92,31 %
26.09.2017 03:18 11,3 C 13,3 C 88 % 1019,2 hPa 0,0 l/m 5,1 km/h (1 Bft) NO 55 0 min 0,000 mm 0,0 UV-I 0 W/m 9,4 C 11,3 C 8,0 km/h (2 Bft) 88,57 %
26.09.2017 03:20 11,3 C 13,3 C 88 % 1019,2 hPa 0,0 l/m 6,5 km/h (2 Bft) O-NO 65 0 min 0,000 mm 0,0 UV-I 0 W/m 9,4 C 11,3 C 8,0 km/h (2 Bft) 95,16 %
26.09.2017 03:22 11,3 C 13,3 C 88 % 1019,3 hPa 0,0 l/m 5,0 km/h (1 Bft) O-NO 67 0 min 0,000 mm 0,0 UV-I 0 W/m 9,4 C 11,3 C 8,0 km/h (2 Bft) 96,00 %
26.09.2017 03:24 11,2 C 13,3 C 88 % 1019,2 hPa 0,0 l/m 5,4 km/h (1 Bft) O-NO 75 0 min 0,000 mm 0,0 UV-I 0 W/m 9,3 C 11,2 C 8,0 km/h (2 Bft) 92,68 %
26.09.2017 03:26 11,2 C 13,3 C 88 % 1019,3 hPa 0,0 l/m 6,4 km/h (2 Bft) O-NO 71 0 min 0,000 mm 0,0 UV-I 0 W/m 9,3 C 11,2 C 8,0 km/h (2 Bft) 95,12 %
26.09.2017 03:28 11,2 C 13,3 C 88 % 1019,3 hPa 0,0 l/m 5,4 km/h (1 Bft) O-NO 57 0 min 0,000 mm 0,0 UV-I 0 W/m 9,3 C 11,2 C 8,0 km/h (2 Bft) 94,34 %
26.09.2017 03:30 11,2 C 13,3 C 88 % 1019,2 hPa 0,0 l/m 6,3 km/h (2 Bft) O-NO 71 0 min 0,000 mm 0,0 UV-I 0 W/m 9,3 C 11,2 C 9,7 km/h (2 Bft) 94,00 %
26.09.2017 03:32 11,2 C 13,3 C 88 % 1019,3 hPa 0,0 l/m 7,1 km/h (2 Bft) O-NO 57 0 min 0,000 mm 0,0 UV-I 0 W/m 9,3 C 10,7 C 11,3 km/h (2 Bft) 98,00 %
26.09.2017 03:34 11,2 C 13,3 C 88 % 1019,2 hPa 0,0 l/m 7,1 km/h (2 Bft) O-NO 65 0 min 0,000 mm 0,0 UV-I 0 W/m 9,3 C 10,7 C 11,3 km/h (2 Bft) 97,14 %
26.09.2017 03:36 11,2 C 13,3 C 88 % 1019,3 hPa 0,0 l/m 7,3 km/h (2 Bft) O-NO 70 0 min 0,000 mm 0,0 UV-I 0 W/m 9,3 C 10,6 C 11,3 km/h (2 Bft) 98,00 %
26.09.2017 03:38 11,2 C 13,3 C 88 % 1019,3 hPa 0,0 l/m 6,7 km/h (2 Bft) O-NO 65 0 min 0,000 mm 0,0 UV-I 0 W/m 9,3 C 11,0 C 12,9 km/h (3 Bft) 98,21 %
26.09.2017 03:40 11,2 C 13,3 C 88 % 1019,3 hPa 0,0 l/m 7,7 km/h (2 Bft) O-NO 74 0 min 0,000 mm 0,0 UV-I 0 W/m 9,3 C 10,3 C 12,9 km/h (3 Bft) 97,73 %
26.09.2017 03:42 11,2 C 13,3 C 88 % 1019,2 hPa 0,0 l/m 7,5 km/h (2 Bft) O-NO 68 0 min 0,000 mm 0,0 UV-I 0 W/m 9,3 C 10,4 C 12,9 km/h (3 Bft) 95,74 %
26.09.2017 03:44 11,2 C 13,3 C 88 % 1019,3 hPa 0,0 l/m 8,6 km/h (2 Bft) O 80 0 min 0,000 mm 0,0 UV-I 0 W/m 9,3 C 9,7 C 14,5 km/h (3 Bft) 96,00 %
26.09.2017 03:46 11,2 C 13,3 C 88 % 1019,2 hPa 0,0 l/m 6,5 km/h (2 Bft) NO 55 0 min 0,000 mm 0,0 UV-I 0 W/m 9,3 C 11,2 C 9,7 km/h (2 Bft) 97,87 %
26.09.2017 03:48 11,2 C 13,3 C 88 % 1019,2 hPa 0,0 l/m 5,3 km/h (1 Bft) O-NO 67 0 min 0,000 mm 0,0 UV-I 0 W/m 9,3 C 11,2 C 8,0 km/h (2 Bft) 97,14 %
26.09.2017 03:50 11,2 C 13,3 C 88 % 1019,2 hPa 0,0 l/m 5,2 km/h (1 Bft) NO 55 0 min 0,000 mm 0,0 UV-I 0 W/m 9,3 C 11,2 C 8,0 km/h (2 Bft) 92,45 %
26.09.2017 03:52 11,2 C 13,3 C 88 % 1019,2 hPa 0,0 l/m 4,9 km/h (1 Bft) O-NO 69 0 min 0,000 mm 0,0 UV-I 0 W/m 9,3 C 11,2 C 8,0 km/h (2 Bft) 95,83 %
26.09.2017 03:54 11,1 C 13,3 C 88 % 1019,2 hPa 0,0 l/m 5,7 km/h (1 Bft) O-NO 62 0 min 0,000 mm 0,0 UV-I 0 W/m 9,2 C 11,1 C 8,0 km/h (2 Bft) 97,01 %
26.09.2017 03:56 11,1 C 13,3 C 88 % 1019,2 hPa 0,0 l/m 5,6 km/h (1 Bft) O-NO 78 0 min 0,000 mm 0,0 UV-I 0 W/m 9,2 C 11,1 C 8,0 km/h (2 Bft) 97,62 %
26.09.2017 03:58 11,1 C 13,3 C 88 % 1019,2 hPa 0,0 l/m 4,4 km/h (1 Bft) O-NO 58 0 min 0,000 mm 0,0 UV-I 0 W/m 9,2 C 11,1 C 6,4 km/h (2 Bft) 98,11 %
26.09.2017 04:00 11,1 C 13,3 C 88 % 1019,1 hPa 0,0 l/m 6,2 km/h (2 Bft) NO 52 0 min 0,000 mm 0,0 UV-I 0 W/m 9,2 C 11,1 C 9,7 km/h (2 Bft) 98,00 %
26.09.2017 04:02 11,1 C 13,3 C 88 % 1019,2 hPa 0,0 l/m 5,4 km/h (1 Bft) NO 42 0 min 0,000 mm 0,0 UV-I 0 W/m 9,2 C 11,1 C 8,0 km/h (2 Bft) 100,00 %
26.09.2017 04:04 11,1 C 13,3 C 88 % 1019,1 hPa 0,0 l/m 7,6 km/h (2 Bft) O-NO 60 0 min 0,000 mm 0,0 UV-I 0 W/m 9,2 C 10,3 C 12,9 km/h (3 Bft) 100,00 %
26.09.2017 04:06 11,0 C 13,3 C 89 % 1019,1 hPa 0,0 l/m 7,3 km/h (2 Bft) NO 55 0 min 0,000 mm 0,0 UV-I 0 W/m 9,3 C 10,4 C 11,3 km/h (2 Bft) 100,00 %
26.09.2017 04:08 11,0 C 13,3 C 89 % 1019,1 hPa 0,0 l/m 6,9 km/h (2 Bft) NO 55 0 min 0,000 mm 0,0 UV-I 0 W/m 9,3 C 10,7 C 9,7 km/h (2 Bft) 100,00 %
26.09.2017 04:10 11,0 C 13,3 C 89 % 1019,1 hPa 0,0 l/m 8,9 km/h (2 Bft) O-NO 65 0 min 0,000 mm 0,0 UV-I 0 W/m 9,3 C 9,3 C 12,9 km/h (3 Bft) 100,00 %
26.09.2017 04:12 11,0 C 13,3 C 89 % 1019,1 hPa 0,0 l/m 8,9 km/h (2 Bft) O 82 0 min 0,000 mm 0,0 UV-I 0 W/m 9,3 C 9,3 C 12,9 km/h (3 Bft) 100,00 %
26.09.2017 04:14 11,0 C 13,3 C 89 % 1019,1 hPa 0,0 l/m 8,5 km/h (2 Bft) O-NO 70 0 min 0,000 mm 0,0 UV-I 0 W/m 9,3 C 9,6 C 12,9 km/h (3 Bft) 97,87 %
26.09.2017 04:16 11,0 C 13,3 C 89 % 1019,2 hPa 0,0 l/m 8,4 km/h (2 Bft) O-NO 74 0 min 0,000 mm 0,0 UV-I 0 W/m 9,3 C 9,6 C 12,9 km/h (3 Bft) 100,00 %
26.09.2017 04:18 11,0 C 13,3 C 88 % 1019,1 hPa 0,0 l/m 7,1 km/h (2 Bft) O-NO 73 0 min 0,000 mm 0,0 UV-I 0 W/m 9,1 C 10,5 C 11,3 km/h (2 Bft) 100,00 %
26.09.2017 04:20 11,0 C 13,3 C 88 % 1019,2 hPa 0,0 l/m 7,7 km/h (2 Bft) O-NO 59 0 min 0,000 mm 0,0 UV-I 0 W/m 9,1 C 10,1 C 12,9 km/h (3 Bft) 100,00 %
26.09.2017 04:22 11,1 C 13,3 C 88 % 1019,1 hPa 0,0 l/m 8,7 km/h (2 Bft) O-NO 66 0 min 0,000 mm 0,0 UV-I 0 W/m 9,2 C 9,6 C 16,1 km/h (3 Bft) 98,00 %
26.09.2017 04:24 11,1 C 13,3 C 88 % 1019,2 hPa 0,0 l/m 7,2 km/h (2 Bft) O-NO 63 0 min 0,000 mm 0,0 UV-I 0 W/m 9,2 C 10,5 C 11,3 km/h (2 Bft) 100,00 %
26.09.2017 04:26 11,1 C 13,3 C 88 % 1019,2 hPa 0,0 l/m 6,0 km/h (2 Bft) O-NO 77 0 min 0,000 mm 0,0 UV-I 0 W/m 9,2 C 11,1 C 11,3 km/h (2 Bft) 100,00 %
26.09.2017 04:28 11,1 C 13,3 C 88 % 1019,2 hPa 0,0 l/m 5,7 km/h (1 Bft) NO 42 0 min 0,000 mm 0,0 UV-I 0 W/m 9,2 C 11,1 C 12,9 km/h (3 Bft) 100,00 %
26.09.2017 04:30 11,1 C 13,3 C 88 % 1019,2 hPa 0,0 l/m 5,3 km/h (1 Bft) O-NO 57 0 min 0,000 mm 0,0 UV-I 0 W/m 9,2 C 11,1 C 8,0 km/h (2 Bft) 100,00 %
26.09.2017 04:32 11,1 C 13,3 C 88 % 1019,2 hPa 0,0 l/m 5,0 km/h (1 Bft) O-NO 63 0 min 0,000 mm 0,0 UV-I 0 W/m 9,2 C 11,1 C 8,0 km/h (2 Bft) 100,00 %
26.09.2017 04:34 11,1 C 13,3 C 88 % 1019,2 hPa 0,0 l/m 5,8 km/h (2 Bft) O-NO 71 0 min 0,000 mm 0,0 UV-I 0 W/m 9,2 C 11,1 C 8,0 km/h (2 Bft) 100,00 %
26.09.2017 04:36 11,1 C 13,3 C 88 % 1019,3 hPa 0,0 l/m 4,6 km/h (1 Bft) O-NO 59 0 min 0,000 mm 0,0 UV-I 0 W/m 9,2 C 11,1 C 6,4 km/h (2 Bft) 100,00 %
26.09.2017 04:38 11,1 C 13,3 C 88 % 1019,2 hPa 0,0 l/m 3,5 km/h (1 Bft) O-NO 59 0 min 0,000 mm 0,0 UV-I 0 W/m 9,2 C 11,1 C 4,8 km/h (1 Bft) 100,00 %
26.09.2017 04:40 11,1 C 13,3 C 88 % 1019,2 hPa 0,0 l/m 2,3 km/h (1 Bft) O-NO 59 0 min 0,000 mm 0,0 UV-I 0 W/m 9,2 C 11,1 C 3,2 km/h (1 Bft) 100,00 %
26.09.2017 04:42 11,1 C 13,3 C 88 % 1019,3 hPa 0,0 l/m 4,3 km/h (1 Bft) O-NO 59 0 min 0,000 mm 0,0 UV-I 0 W/m 9,2 C 11,1 C 6,4 km/h (2 Bft) 98,00 %
26.09.2017 04:44 11,0 C 13,3 C 88 % 1019,3 hPa 0,0 l/m 4,2 km/h (1 Bft) O-NO 59 0 min 0,000 mm 0,0 UV-I 0 W/m 9,1 C 11,0 C 4,8 km/h (1 Bft) 100,00 %
26.09.2017 04:46 11,0 C 13,3 C 88 % 1019,3 hPa 0,0 l/m 4,5 km/h (1 Bft) O-NO 74 0 min 0,000 mm 0,0 UV-I 0 W/m 9,1 C 11,0 C 6,4 km/h (2 Bft) 100,00 %
26.09.2017 04:48 11,0 C 13,3 C 88 % 1019,3 hPa 0,0 l/m 4,6 km/h (1 Bft) O-NO 69 0 min 0,000 mm 0,0 UV-I 0 W/m 9,1 C 11,0 C 8,0 km/h (2 Bft) 100,00 %
26.09.2017 04:50 11,0 C 13,3 C 89 % 1019,4 hPa 0,0 l/m 5,0 km/h (1 Bft) O-NO 70 0 min 0,000 mm 0,0 UV-I 0 W/m 9,3 C 11,0 C 8,0 km/h (2 Bft) 98,00 %
26.09.2017 04:52 11,0 C 13,3 C 88 % 1019,3 hPa 0,0 l/m 5,3 km/h (1 Bft) O-NO 57 0 min 0,000 mm 0,0 UV-I 0 W/m 9,1 C 11,0 C 8,0 km/h (2 Bft) 100,00 %
26.09.2017 04:54 11,0 C 13,3 C 88 % 1019,3 hPa 0,0 l/m 6,3 km/h (2 Bft) O-NO 78 0 min 0,000 mm 0,0 UV-I 0 W/m 9,1 C 11,0 C 9,7 km/h (2 Bft) 100,00 %
26.09.2017 04:56 11,0 C 13,3 C 88 % 1019,3 hPa 0,0 l/m 5,3 km/h (1 Bft) O-NO 77 0 min 0,000 mm 0,0 UV-I 0 W/m 9,1 C 11,0 C 9,7 km/h (2 Bft) 100,00 %
26.09.2017 04:58 11,0 C 13,3 C 88 % 1019,4 hPa 0,0 l/m 5,4 km/h (1 Bft) O 85 0 min 0,000 mm 0,0 UV-I 0 W/m 9,1 C 11,0 C 8,0 km/h (2 Bft) 100,00 %
26.09.2017 05:00 10,9 C 13,3 C 88 % 1019,4 hPa 0,0 l/m 4,8 km/h (1 Bft) O 80 0 min 0,000 mm 0,0 UV-I 0 W/m 9,0 C 10,9 C 8,0 km/h (2 Bft) 100,00 %
26.09.2017 05:02 10,9 C 13,3 C 88 % 1019,4 hPa 0,0 l/m 4,3 km/h (1 Bft) O-NO 76 0 min 0,000 mm 0,0 UV-I 0 W/m 9,0 C 10,9 C 8,0 km/h (2 Bft) 97,44 %
26.09.2017 05:04 10,9 C 13,3 C 88 % 1019,5 hPa 0,0 l/m 0,2 km/h (0 Bft) O-NO 76 0 min 0,000 mm 0,0 UV-I 0 W/m 9,0 C 10,9 C 1,6 km/h (1 Bft) 97,73 %
26.09.2017 05:06 10,9 C 13,3 C 88 % 1019,4 hPa 0,0 l/m 1,0 km/h (0 Bft) O-NO 76 0 min 0,000 mm 0,0 UV-I 0 W/m 9,0 C 10,9 C 3,2 km/h (1 Bft) 98,11 %
26.09.2017 05:08 10,9 C 13,3 C 88 % 1019,5 hPa 0,0 l/m 0,0 km/h (0 Bft) O-NO 76 0 min 0,000 mm 0,0 UV-I 0 W/m 9,0 C 10,9 C 0,0 km/h (0 Bft) 95,74 %
26.09.2017 05:10 10,9 C 13,3 C 89 % 1019,5 hPa 0,0 l/m 0,3 km/h (0 Bft) O-NO 76 0 min 0,000 mm 0,0 UV-I 0 W/m 9,2 C 10,9 C 1,6 km/h (1 Bft) 97,44 %
26.09.2017 05:12 10,9 C 13,3 C 89 % 1019,5 hPa 0,0 l/m 0,0 km/h (0 Bft) O-NO 76 0 min 0,000 mm 0,0 UV-I 0 W/m 9,2 C 10,9 C 0,0 km/h (0 Bft) 98,00 %
26.09.2017 05:14 10,9 C 13,3 C 89 % 1019,5 hPa 0,0 l/m 0,0 km/h (0 Bft) O-NO 76 0 min 0,000 mm 0,0 UV-I 0 W/m 9,2 C 10,9 C 0,0 km/h (0 Bft) 96,15 %
26.09.2017 05:16 10,9 C 13,3 C 89 % 1019,5 hPa 0,0 l/m 0,1 km/h (0 Bft) O-NO 76 0 min 0,000 mm 0,0 UV-I 0 W/m 9,2 C 10,9 C 1,6 km/h (1 Bft) 98,00 %
26.09.2017 05:18 10,9 C 13,3 C 89 % 1019,5 hPa 0,0 l/m 2,2 km/h (1 Bft) O-NO 76 0 min 0,000 mm 0,0 UV-I 0 W/m 9,2 C 10,9 C 3,2 km/h (1 Bft) 100,00 %
26.09.2017 05:20 10,9 C 13,3 C 89 % 1019,6 hPa 0,0 l/m 2,1 km/h (1 Bft) O-NO 76 0 min 0,000 mm 0,0 UV-I 0 W/m 9,2 C 10,9 C 3,2 km/h (1 Bft) 96,92 %
26.09.2017 05:22 10,9 C 13,3 C 89 % 1019,6 hPa 0,0 l/m 1,4 km/h (1 Bft) O-NO 76 0 min 0,000 mm 0,0 UV-I 0 W/m 9,2 C 10,9 C 3,2 km/h (1 Bft) 98,00 %
26.09.2017 05:24 10,9 C 13,3 C 88 % 1019,6 hPa 0,0 l/m 0,0 km/h (0 Bft) O-NO 76 0 min 0,000 mm 0,0 UV-I 0 W/m 9,0 C 10,9 C 1,6 km/h (1 Bft) 95,12 %
26.09.2017 05:26 10,9 C 13,3 C 89 % 1019,6 hPa 0,0 l/m 0,0 km/h (0 Bft) O-NO 76 0 min 0,000 mm 0,0 UV-I 0 W/m 9,2 C 10,9 C 1,6 km/h (1 Bft) 98,00 %
26.09.2017 05:28 10,9 C 13,3 C 89 % 1019,6 hPa 0,0 l/m 0,0 km/h (0 Bft) O-NO 76 0 min 0,000 mm 0,0 UV-I 0 W/m 9,2 C 10,9 C 1,6 km/h (1 Bft) 96,00 %
26.09.2017 05:30 10,8 C 13,3 C 89 % 1019,6 hPa 0,0 l/m 1,0 km/h (0 Bft) O-NO 76 0 min 0,000 mm 0,0 UV-I 0 W/m 9,1 C 10,8 C 1,6 km/h (1 Bft) 97,37 %
26.09.2017 05:32 10,8 C 13,3 C 89 % 1019,7 hPa 0,0 l/m 1,4 km/h (1 Bft) O-NO 76 0 min 0,000 mm 0,0 UV-I 0 W/m 9,1 C 10,8 C 3,2 km/h (1 Bft) 94,64 %
26.09.2017 05:34 10,8 C 13,3 C 89 % 1019,6 hPa 0,0 l/m 1,5 km/h (1 Bft) O-NO 76 0 min 0,000 mm 0,0 UV-I 0 W/m 9,1 C 10,8 C 3,2 km/h (1 Bft) 97,14 %
26.09.2017 05:36 10,8 C 13,3 C 89 % 1019,6 hPa 0,0 l/m 2,4 km/h (1 Bft) O-NO 76 0 min 0,000 mm 0,0 UV-I 0 W/m 9,1 C 10,8 C 4,8 km/h (1 Bft) 98,11 %
26.09.2017 05:38 10,8 C 13,3 C 89 % 1019,6 hPa 0,0 l/m 3,6 km/h (1 Bft) O-NO 75 0 min 0,000 mm 0,0 UV-I 0 W/m 9,1 C 10,8 C 4,8 km/h (1 Bft) 100,00 %
26.09.2017 05:40 10,8 C 13,3 C 89 % 1019,6 hPa 0,0 l/m 4,2 km/h (1 Bft) NO 45 0 min 0,000 mm 0,0 UV-I 0 W/m 9,1 C 10,8 C 6,4 km/h (2 Bft) 97,37 %
26.09.2017 05:42 10,8 C 13,3 C 89 % 1019,6 hPa 0,0 l/m 5,1 km/h (1 Bft) NO 38 0 min 0,000 mm 0,0 UV-I 0 W/m 9,1 C 10,8 C 6,4 km/h (2 Bft) 100,00 %
26.09.2017 05:44 10,7 C 13,3 C 90 % 1019,6 hPa 0,0 l/m 5,0 km/h (1 Bft) NO 49 0 min 0,000 mm 0,0 UV-I 0 W/m 9,1 C 10,7 C 6,4 km/h (2 Bft) 100,00 %
26.09.2017 05:46 10,7 C 13,3 C 89 % 1019,6 hPa 0,0 l/m 4,1 km/h (1 Bft) NO 49 0 min 0,000 mm 0,0 UV-I 0 W/m 9,0 C 10,7 C 6,4 km/h (2 Bft) 100,00 %
26.09.2017 05:48 10,7 C 13,3 C 89 % 1019,7 hPa 0,0 l/m 1,4 km/h (1 Bft) NO 49 0 min 0,000 mm 0,0 UV-I 0 W/m 9,0 C 10,7 C 4,8 km/h (1 Bft) 100,00 %
26.09.2017 05:50 10,7 C 13,3 C 89 % 1019,7 hPa 0,0 l/m 0,4 km/h (0 Bft) NO 49 0 min 0,000 mm 0,0 UV-I 0 W/m 9,0 C 10,7 C 1,6 km/h (1 Bft) 96,23 %
26.09.2017 05:52 10,7 C 13,3 C 89 % 1019,7 hPa 0,0 l/m 0,0 km/h (0 Bft) NO 49 0 min 0,000 mm 0,0 UV-I 0 W/m 9,0 C 10,7 C 0,0 km/h (0 Bft) 100,00 %
26.09.2017 05:54 10,7 C 13,3 C 89 % 1019,7 hPa 0,0 l/m 0,0 km/h (0 Bft) NO 49 0 min 0,000 mm 0,0 UV-I 0 W/m 9,0 C 10,7 C 0,0 km/h (0 Bft) 100,00 %
26.09.2017 05:56 10,7 C 13,3 C 89 % 1019,7 hPa 0,0 l/m 0,0 km/h (0 Bft) NO 49 0 min 0,000 mm 0,0 UV-I 0 W/m 9,0 C 10,7 C 0,0 km/h (0 Bft) 97,87 %
26.09.2017 05:58 10,7 C 13,3 C 90 % 1019,8 hPa 0,0 l/m 0,0 km/h (0 Bft) NO 49 0 min 0,000 mm 0,0 UV-I 0 W/m 9,1 C 10,7 C 0,0 km/h (0 Bft) 100,00 %
26.09.2017 06:00 10,6 C 13,3 C 90 % 1019,8 hPa 0,0 l/m 0,0 km/h (0 Bft) NO 49 0 min 0,000 mm 0,0 UV-I 0 W/m 9,0 C 10,6 C 1,6 km/h (1 Bft) 100,00 %
26.09.2017 06:02 10,6 C 13,3 C 90 % 1019,8 hPa 0,0 l/m 0,0 km/h (0 Bft) NO 49 0 min 0,000 mm 0,0 UV-I 0 W/m 9,0 C 10,6 C 0,0 km/h (0 Bft) 100,00 %
26.09.2017 06:04 10,6 C 13,3 C 90 % 1019,8 hPa 0,0 l/m 2,1 km/h (1 Bft) NO 49 0 min 0,000 mm 0,0 UV-I 0 W/m 9,0 C 10,6 C 3,2 km/h (1 Bft) 100,00 %
26.09.2017 06:06 10,6 C 13,3 C 90 % 1019,8 hPa 0,0 l/m 1,9 km/h (1 Bft) NO 49 0 min 0,000 mm 0,0 UV-I 0 W/m 9,0 C 10,6 C 3,2 km/h (1 Bft) 100,00 %
26.09.2017 06:08 10,6 C 13,3 C 90 % 1019,8 hPa 0,0 l/m 1,2 km/h (1 Bft) NO 49 0 min 0,000 mm 0,0 UV-I 0 W/m 9,0 C 10,6 C 3,2 km/h (1 Bft) 100,00 %
26.09.2017 06:10 10,6 C 13,3 C 90 % 1019,8 hPa 0,0 l/m 0,0 km/h (0 Bft) NO 49 0 min 0,000 mm 0,0 UV-I 0 W/m 9,0 C 10,6 C 0,0 km/h (0 Bft) 100,00 %
26.09.2017 06:12 10,6 C 13,3 C 90 % 1019,8 hPa 0,0 l/m 0,0 km/h (0 Bft) NO 49 0 min 0,000 mm 0,0 UV-I 0 W/m 9,0 C 10,6 C 0,0 km/h (0 Bft) 100,00 %
26.09.2017 06:14 10,6 C 13,3 C 90 % 1019,8 hPa 0,0 l/m 0,0 km/h (0 Bft) NO 49 0 min 0,000 mm 0,0 UV-I 0 W/m 9,0 C 10,6 C 0,0 km/h (0 Bft) 100,00 %
26.09.2017 06:16 10,6 C 13,3 C 90 % 1019,8 hPa 0,0 l/m 0,0 km/h (0 Bft) NO 49 0 min 0,000 mm 0,0 UV-I 0 W/m 9,0 C 10,6 C 0,0 km/h (0 Bft) 100,00 %
26.09.2017 06:18 10,6 C 13,3 C 90 % 1019,8 hPa 0,0 l/m 0,0 km/h (0 Bft) NO 49 0 min 0,000 mm 0,0 UV-I 0 W/m 9,0 C 10,6 C 0,0 km/h (0 Bft) 100,00 %
26.09.2017 06:20 10,6 C 13,3 C 90 % 1019,8 hPa 0,0 l/m 0,0 km/h (0 Bft) NO 49 0 min 0,000 mm 0,0 UV-I 0 W/m 9,0 C 10,6 C 0,0 km/h (0 Bft) 100,00 %
26.09.2017 06:22 10,6 C 13,3 C 90 % 1019,9 hPa 0,0 l/m 0,0 km/h (0 Bft) NO 49 0 min 0,000 mm 0,0 UV-I 0 W/m 9,0 C 10,6 C 0,0 km/h (0 Bft) 98,00 %
26.09.2017 06:24 10,5 C 13,3 C 90 % 1019,8 hPa 0,0 l/m 0,0 km/h (0 Bft) NO 49 0 min 0,000 mm 0,0 UV-I 0 W/m 8,9 C 10,5 C 0,0 km/h (0 Bft) 97,37 %
26.09.2017 06:26 10,5 C 13,3 C 90 % 1019,9 hPa 0,0 l/m 0,0 km/h (0 Bft) NO 49 0 min 0,000 mm 0,0 UV-I 0 W/m 8,9 C 10,5 C 0,0 km/h (0 Bft) 100,00 %
26.09.2017 06:28 10,5 C 13,3 C 90 % 1019,8 hPa 0,0 l/m 0,0 km/h (0 Bft) NO 49 0 min 0,000 mm 0,0 UV-I 0 W/m 8,9 C 10,5 C 0,0 km/h (0 Bft) 100,00 %
26.09.2017 06:30 10,5 C 13,3 C 90 % 1019,8 hPa 0,0 l/m 2,0 km/h (1 Bft) NO 49 0 min 0,000 mm 0,0 UV-I 0 W/m 8,9 C 10,5 C 3,2 km/h (1 Bft) 100,00 %
26.09.2017 06:32 10,4 C 13,3 C 91 % 1019,8 hPa 0,0 l/m 1,4 km/h (1 Bft) NO 49 0 min 0,000 mm 0,0 UV-I 0 W/m 9,0 C 10,4 C 3,2 km/h (1 Bft) 100,00 %
26.09.2017 06:34 10,4 C 13,3 C 91 % 1019,8 hPa 0,0 l/m 0,1 km/h (0 Bft) NO 49 0 min 0,000 mm 0,0 UV-I 0 W/m 9,0 C 10,4 C 1,6 km/h (1 Bft) 94,23 %
26.09.2017 06:36 10,4 C 13,3 C 91 % 1019,8 hPa 0,0 l/m 0,0 km/h (0 Bft) NO 49 0 min 0,000 mm 0,0 UV-I 0 W/m 9,0 C 10,4 C 0,0 km/h (0 Bft) 100,00 %
26.09.2017 06:38 10,4 C 13,3 C 91 % 1019,8 hPa 0,0 l/m 0,0 km/h (0 Bft) NO 49 0 min 0,000 mm 0,0 UV-I 0 W/m 9,0 C 10,4 C 0,0 km/h (0 Bft) 96,61 %
26.09.2017 06:40 10,4 C 13,3 C 91 % 1019,8 hPa 0,0 l/m 0,0 km/h (0 Bft) NO 49 0 min 0,000 mm 0,0 UV-I 0 W/m 9,0 C 10,4 C 0,0 km/h (0 Bft) 95,74 %
26.09.2017 06:43 10,4 C 13,3 C 91 % 1019,8 hPa 0,0 l/m 0,0 km/h (0 Bft) NO 49 0 min 0,000 mm 0,0 UV-I 0 W/m 9,0 C 10,4 C 0,0 km/h (0 Bft) 96,88 %
26.09.2017 06:44 10,4 C 13,3 C 91 % 1019,8 hPa 0,0 l/m 0,0 km/h (0 Bft) NO 49 0 min 0,000 mm 0,0 UV-I 0 W/m 9,0 C 10,4 C 0,0 km/h (0 Bft) 95,83 %
26.09.2017 06:46 10,3 C 13,3 C 91 % 1019,8 hPa 0,0 l/m 0,0 km/h (0 Bft) NO 49 0 min 0,000 mm 0,0 UV-I 1 W/m 8,9 C 10,3 C 0,0 km/h (0 Bft) 97,87 %
26.09.2017 06:48 10,3 C 13,3 C 91 % 1019,9 hPa 0,0 l/m 0,8 km/h (0 Bft) NO 49 0 min 0,000 mm 0,0 UV-I 5 W/m 8,9 C 10,3 C 1,6 km/h (1 Bft) 95,74 %
26.09.2017 06:50 10,3 C 13,3 C 91 % 1019,9 hPa 0,0 l/m 2,0 km/h (1 Bft) NO 49 0 min 0,000 mm 0,0 UV-I 5 W/m 8,9 C 10,3 C 3,2 km/h (1 Bft) 98,11 %
26.09.2017 06:52 10,3 C 13,3 C 91 % 1019,9 hPa 0,0 l/m 1,9 km/h (1 Bft) NO 49 0 min 0,000 mm 0,0 UV-I 5 W/m 8,9 C 10,3 C 3,2 km/h (1 Bft) 97,56 %
26.09.2017 06:54 10,3 C 13,3 C 91 % 1019,9 hPa 0,0 l/m 1,2 km/h (1 Bft) NO 49 0 min 0,000 mm 0,0 UV-I 7 W/m 8,9 C 10,3 C 1,6 km/h (1 Bft) 91,49 %
26.09.2017 06:56 10,2 C 13,3 C 91 % 1019,9 hPa 0,0 l/m 0,0 km/h (0 Bft) NO 49 0 min 0,000 mm 0,0 UV-I 7 W/m 8,8 C 10,2 C 0,0 km/h (0 Bft) 98,11 %
26.09.2017 06:58 10,2 C 13,3 C 91 % 1020,0 hPa 0,0 l/m 0,0 km/h (0 Bft) NO 49 0 min 0,000 mm 0,0 UV-I 7 W/m 8,8 C 10,2 C 0,0 km/h (0 Bft) 95,74 %
26.09.2017 07:00 10,2 C 13,3 C 91 % 1019,9 hPa 0,0 l/m 0,0 km/h (0 Bft) NO 49 0 min 0,000 mm 0,0 UV-I 9 W/m 8,8 C 10,2 C 0,0 km/h (0 Bft) 97,14 %
26.09.2017 07:02 10,2 C 13,3 C 91 % 1020,0 hPa 0,0 l/m 0,0 km/h (0 Bft) NO 49 0 min 0,000 mm 0,0 UV-I 11 W/m 8,8 C 10,2 C 0,0 km/h (0 Bft) 98,00 %
26.09.2017 07:04 10,2 C 13,3 C 91 % 1020,0 hPa 0,0 l/m 0,0 km/h (0 Bft) NO 49 0 min 0,000 mm 0,0 UV-I 12 W/m 8,8 C 10,2 C 0,0 km/h (0 Bft) 94,00 %
26.09.2017 07:06 10,2 C 13,3 C 91 % 1020,0 hPa 0,0 l/m 0,0 km/h (0 Bft) NO 49 2 min 0,000 mm 0,0 UV-I 12 W/m 8,8 C 10,2 C 0,0 km/h (0 Bft) 93,62 %
26.09.2017 07:08 10,2 C 13,3 C 91 % 1020,1 hPa 0,0 l/m 0,0 km/h (0 Bft) NO 49 2 min 0,000 mm 0,0 UV-I 12 W/m 8,8 C 10,2 C 0,0 km/h (0 Bft) 96,00 %
26.09.2017 07:10 10,1 C 13,3 C 91 % 1020,1 hPa 0,0 l/m 0,0 km/h (0 Bft) NO 49 0 min 0,000 mm 0,0 UV-I 14 W/m 8,7 C 10,1 C 0,0 km/h (0 Bft) 95,74 %
26.09.2017 07:12 10,1 C 13,3 C 91 % 1020,1 hPa 0,0 l/m 0,0 km/h (0 Bft) NO 49 0 min 0,000 mm 0,0 UV-I 17 W/m 8,7 C 10,1 C 0,0 km/h (0 Bft) 93,62 %
26.09.2017 07:14 10,1 C 13,3 C 91 % 1020,1 hPa 0,0 l/m 0,0 km/h (0 Bft) NO 49 0 min 0,000 mm 0,0 UV-I 19 W/m 8,7 C 10,1 C 0,0 km/h (0 Bft) 95,24 %
26.09.2017 07:16 10,1 C 13,3 C 91 % 1020,1 hPa 0,0 l/m 0,0 km/h (0 Bft) NO 49 0 min 0,000 mm 0,0 UV-I 20 W/m 8,7 C 10,1 C 0,0 km/h (0 Bft) 93,62 %
26.09.2017 07:18 10,0 C 13,3 C 91 % 1020,1 hPa 0,0 l/m 0,0 km/h (0 Bft) NO 49 0 min 0,000 mm 0,0 UV-I 22 W/m 8,6 C 10,0 C 0,0 km/h (0 Bft) 96,23 %
26.09.2017 07:20 10,0 C 13,3 C 91 % 1020,2 hPa 0,0 l/m 0,3 km/h (0 Bft) NO 49 0 min 0,000 mm 0,0 UV-I 26 W/m 8,6 C 10,0 C 1,6 km/h (1 Bft) 95,12 %
26.09.2017 07:22 9,9 C 13,3 C 91 % 1020,2 hPa 0,0 l/m 1,4 km/h (1 Bft) NO 49 0 min 0,000 mm 0,0 UV-I 26 W/m 8,5 C 9,9 C 1,6 km/h (1 Bft) 95,74 %
26.09.2017 07:24 9,9 C 13,3 C 92 % 1020,2 hPa 0,0 l/m 2,3 km/h (1 Bft) NO 49 0 min 0,000 mm 0,0 UV-I 28 W/m 8,7 C 9,9 C 3,2 km/h (1 Bft) 94,34 %
26.09.2017 07:26 9,9 C 13,3 C 92 % 1020,3 hPa 0,0 l/m 2,5 km/h (1 Bft) NO 49 0 min 0,000 mm 0,0 UV-I 30 W/m 8,7 C 9,9 C 3,2 km/h (1 Bft) 95,74 %
26.09.2017 07:28 9,8 C 13,3 C 92 % 1020,3 hPa 0,0 l/m 3,6 km/h (1 Bft) NO 49 0 min 0,000 mm 0,0 UV-I 29 W/m 8,6 C 9,8 C 4,8 km/h (1 Bft) 95,12 %
26.09.2017 07:30 9,8 C 13,3 C 92 % 1020,3 hPa 0,0 l/m 3,3 km/h (1 Bft) NO 49 0 min 0,000 mm 0,0 UV-I 28 W/m 8,6 C 9,8 C 4,8 km/h (1 Bft) 94,00 %
26.09.2017 07:32 9,8 C 13,3 C 92 % 1020,3 hPa 0,0 l/m 3,1 km/h (1 Bft) NO 49 0 min 0,000 mm 0,0 UV-I 28 W/m 8,6 C 9,8 C 4,8 km/h (1 Bft) 97,56 %
26.09.2017 07:34 9,9 C 13,3 C 92 % 1020,3 hPa 0,0 l/m 3,6 km/h (1 Bft) NO 49 0 min 0,000 mm 0,0 UV-I 28 W/m 8,7 C 9,9 C 4,8 km/h (1 Bft) 96,00 %
26.09.2017 07:36 9,9 C 13,3 C 92 % 1020,3 hPa 0,0 l/m 2,6 km/h (1 Bft) NO 49 0 min 0,000 mm 0,0 UV-I 26 W/m 8,7 C 9,9 C 3,2 km/h (1 Bft) 97,87 %
26.09.2017 07:38 9,9 C 13,3 C 92 % 1020,4 hPa 0,0 l/m 1,0 km/h (0 Bft) NO 49 0 min 0,000 mm 0,0 UV-I 26 W/m 8,7 C 9,9 C 3,2 km/h (1 Bft) 97,87 %
26.09.2017 07:40 9,9 C 13,3 C 92 % 1020,4 hPa 0,0 l/m 0,0 km/h (0 Bft) NO 49 0 min 0,000 mm 0,0 UV-I 26 W/m 8,7 C 9,9 C 0,0 km/h (0 Bft) 98,00 %
26.09.2017 07:42 9,9 C 13,3 C 92 % 1020,4 hPa 0,0 l/m 1,9 km/h (1 Bft) NO 49 0 min 0,000 mm 0,0 UV-I 27 W/m 8,7 C 9,9 C 3,2 km/h (1 Bft) 100,00 %
26.09.2017 07:44 9,8 C 13,3 C 92 % 1020,4 hPa 0,0 l/m 2,3 km/h (1 Bft) NO 49 0 min 0,000 mm 0,0 UV-I 28 W/m 8,6 C 9,8 C 3,2 km/h (1 Bft) 97,44 %
26.09.2017 07:46 9,7 C 13,3 C 92 % 1020,4 hPa 0,0 l/m 0,9 km/h (0 Bft) NO 49 0 min 0,000 mm 0,0 UV-I 29 W/m 8,5 C 9,7 C 3,2 km/h (1 Bft) 100,00 %
26.09.2017 07:48 9,6 C 13,3 C 92 % 1020,4 hPa 0,0 l/m 0,7 km/h (0 Bft) NO 49 0 min 0,000 mm 0,0 UV-I 30 W/m 8,4 C 9,6 C 1,6 km/h (1 Bft) 100,00 %
26.09.2017 07:50 9,5 C 13,3 C 92 % 1020,4 hPa 0,0 l/m 0,1 km/h (0 Bft) NO 49 0 min 0,000 mm 0,0 UV-I 30 W/m 8,3 C 9,5 C 1,6 km/h (1 Bft) 100,00 %
26.09.2017 07:52 9,4 C 13,3 C 93 % 1020,4 hPa 0,0 l/m 0,4 km/h (0 Bft) NO 49 0 min 0,000 mm 0,0 UV-I 32 W/m 8,3 C 9,4 C 1,6 km/h (1 Bft) 100,00 %
26.09.2017 07:54 9,4 C 13,3 C 93 % 1020,4 hPa 0,0 l/m 2,0 km/h (1 Bft) NO 49 0 min 0,000 mm 0,0 UV-I 33 W/m 8,3 C 9,4 C 3,2 km/h (1 Bft) 98,00 %
26.09.2017 07:56 9,4 C 13,3 C 93 % 1020,4 hPa 0,0 l/m 1,7 km/h (1 Bft) NO 49 0 min 0,000 mm 0,0 UV-I 34 W/m 8,3 C 9,4 C 3,2 km/h (1 Bft) 100,00 %
26.09.2017 07:58 9,4 C 13,3 C 94 % 1020,4 hPa 0,0 l/m 0,0 km/h (0 Bft) NO 49 0 min 0,000 mm 0,0 UV-I 36 W/m 8,5 C 9,4 C 1,6 km/h (1 Bft) 100,00 %
26.09.2017 08:00 9,4 C 13,3 C 94 % 1020,4 hPa 0,0 l/m 0,0 km/h (0 Bft) NO 49 0 min 0,025 mm 0,0 UV-I 38 W/m 8,5 C 9,4 C 0,0 km/h (0 Bft) 100,00 %
26.09.2017 08:02 9,3 C 13,3 C 94 % 1020,4 hPa 0,0 l/m 0,0 km/h (0 Bft) NO 49 0 min 0,000 mm 0,0 UV-I 41 W/m 8,4 C 9,3 C 0,0 km/h (0 Bft) 97,87 %
26.09.2017 08:04 9,3 C 13,3 C 94 % 1020,4 hPa 0,0 l/m 0,0 km/h (0 Bft) NO 49 0 min 0,000 mm 0,0 UV-I 44 W/m 8,4 C 9,3 C 0,0 km/h (0 Bft) 100,00 %
26.09.2017 08:06 9,3 C 13,3 C 94 % 1020,5 hPa 0,0 l/m 0,0 km/h (0 Bft) NO 49 0 min 0,000 mm 0,0 UV-I 48 W/m 8,4 C 9,3 C 0,0 km/h (0 Bft) 100,00 %
26.09.2017 08:08 9,3 C 13,3 C 94 % 1020,4 hPa 0,0 l/m 0,0 km/h (0 Bft) NO 49 0 min 0,000 mm 0,0 UV-I 52 W/m 8,4 C 9,3 C 0,0 km/h (0 Bft) 97,87 %
26.09.2017 08:10 9,3 C 13,3 C 94 % 1020,5 hPa 0,0 l/m 1,5 km/h (1 Bft) NO 49 0 min 0,000 mm 0,0 UV-I 56 W/m 8,4 C 9,3 C 3,2 km/h (1 Bft) 98,00 %
26.09.2017 08:12 9,3 C 13,3 C 94 % 1020,5 hPa 0,0 l/m 1,9 km/h (1 Bft) S-SW 207 0 min 0,000 mm 0,0 UV-I 61 W/m 8,4 C 9,3 C 4,8 km/h (1 Bft) 100,00 %
26.09.2017 08:14 9,4 C 13,3 C 94 % 1020,6 hPa 0,0 l/m 0,1 km/h (0 Bft) S-SW 207 0 min 0,000 mm 0,0 UV-I 67 W/m 8,5 C 9,4 C 1,6 km/h (1 Bft) 97,37 %
26.09.2017 08:16 9,4 C 13,3 C 94 % 1020,6 hPa 0,0 l/m 0,3 km/h (0 Bft) S-SW 207 0 min 0,000 mm 0,0 UV-I 73 W/m 8,5 C 9,4 C 1,6 km/h (1 Bft) 100,00 %
26.09.2017 08:18 9,5 C 13,3 C 94 % 1020,6 hPa 0,0 l/m 0,1 km/h (0 Bft) S-SW 207 0 min 0,000 mm 0,0 UV-I 80 W/m 8,6 C 9,5 C 1,6 km/h (1 Bft) 97,14 %
26.09.2017 08:20 9,6 C 13,3 C 94 % 1020,6 hPa 0,0 l/m 0,9 km/h (0 Bft) S-SW 207 0 min 0,000 mm 0,0 UV-I 87 W/m 8,7 C 9,6 C 3,2 km/h (1 Bft) 96,23 %
26.09.2017 08:22 9,6 C 13,3 C 95 % 1020,6 hPa 0,0 l/m 0,7 km/h (0 Bft) S-SW 207 0 min 0,000 mm 0,0 UV-I 95 W/m 8,8 C 9,6 C 3,2 km/h (1 Bft) 100,00 %
26.09.2017 08:24 9,7 C 13,3 C 95 % 1020,6 hPa 0,0 l/m 0,4 km/h (0 Bft) S-SW 207 0 min 0,000 mm 0,0 UV-I 103 W/m 8,9 C 9,7 C 1,6 km/h (1 Bft) 97,87 %
26.09.2017 08:26 9,8 C 13,3 C 95 % 1020,6 hPa 0,0 l/m 0,0 km/h (0 Bft) S-SW 207 0 min 0,000 mm 0,0 UV-I 112 W/m 9,0 C 9,8 C 0,0 km/h (0 Bft) 100,00 %
26.09.2017 08:28 9,9 C 13,3 C 94 % 1020,6 hPa 0,0 l/m 0,6 km/h (0 Bft) S-SW 207 0 min 0,000 mm 0,0 UV-I 116 W/m 9,0 C 9,9 C 1,6 km/h (1 Bft) 100,00 %
26.09.2017 08:30 10,0 C 13,3 C 95 % 1020,6 hPa 0,0 l/m 0,4 km/h (0 Bft) S-SW 207 0 min 0,000 mm 0,0 UV-I 121 W/m 9,2 C 10,0 C 1,6 km/h (1 Bft) 100,00 %
26.09.2017 08:32 10,1 C 13,3 C 94 % 1020,6 hPa 0,0 l/m 0,5 km/h (0 Bft) S-SW 207 0 min 0,000 mm 0,0 UV-I 123 W/m 9,2 C 10,1 C 1,6 km/h (1 Bft) 100,00 %
26.09.2017 08:34 10,2 C 13,3 C 94 % 1020,7 hPa 0,0 l/m 0,5 km/h (0 Bft) S-SW 207 0 min 0,000 mm 0,0 UV-I 121 W/m 9,3 C 10,2 C 1,6 km/h (1 Bft) 100,00 %
26.09.2017 08:36 10,2 C 13,3 C 94 % 1020,7 hPa 0,0 l/m 1,1 km/h (1 Bft) S-SW 207 0 min 0,000 mm 0,0 UV-I 121 W/m 9,3 C 10,2 C 3,2 km/h (1 Bft) 98,11 %
26.09.2017 08:38 10,3 C 13,3 C 94 % 1020,7 hPa 0,0 l/m 1,2 km/h (1 Bft) S-SW 207 0 min 0,000 mm 0,0 UV-I 120 W/m 9,4 C 10,3 C 3,2 km/h (1 Bft) 100,00 %
26.09.2017 08:40 10,3 C 13,3 C 93 % 1020,8 hPa 0,0 l/m 0,5 km/h (0 Bft) S-SW 207 0 min 0,000 mm 0,0 UV-I 118 W/m 9,2 C 10,3 C 1,6 km/h (1 Bft) 100,00 %
26.09.2017 08:42 10,4 C 13,3 C 93 % 1020,8 hPa 0,0 l/m 0,5 km/h (0 Bft) S-SW 207 0 min 0,000 mm 0,0 UV-I 118 W/m 9,3 C 10,4 C 1,6 km/h (1 Bft) 100,00 %
26.09.2017 08:44 10,4 C 13,3 C 93 % 1020,8 hPa 0,0 l/m 1,7 km/h (1 Bft) S-SW 207 0 min 0,000 mm 0,0 UV-I 118 W/m 9,3 C 10,4 C 3,2 km/h (1 Bft) 100,00 %
26.09.2017 08:46 10,5 C 13,3 C 93 % 1020,8 hPa 0,0 l/m 1,1 km/h (1 Bft) S-SW 207 0 min 0,000 mm 0,0 UV-I 118 W/m 9,4 C 10,5 C 3,2 km/h (1 Bft) 100,00 %
26.09.2017 08:48 10,6 C 13,3 C 93 % 1020,8 hPa 0,0 l/m 0,7 km/h (0 Bft) S-SW 207 0 min 0,000 mm 0,0 UV-I 118 W/m 9,5 C 10,6 C 3,2 km/h (1 Bft) 100,00 %
26.09.2017 08:50 10,6 C 13,3 C 93 % 1020,8 hPa 0,0 l/m 0,1 km/h (0 Bft) S-SW 207 0 min 0,000 mm 0,0 UV-I 114 W/m 9,5 C 10,6 C 1,6 km/h (1 Bft) 97,87 %
26.09.2017 08:52 10,7 C 13,3 C 93 % 1020,8 hPa 0,0 l/m 0,9 km/h (0 Bft) S-SW 207 0 min 0,000 mm 0,0 UV-I 110 W/m 9,6 C 10,7 C 3,2 km/h (1 Bft) 100,00 %
26.09.2017 08:54 10,7 C 13,3 C 93 % 1020,8 hPa 0,0 l/m 1,5 km/h (1 Bft) S-SW 207 0 min 0,000 mm 0,0 UV-I 103 W/m 9,6 C 10,7 C 3,2 km/h (1 Bft) 100,00 %
26.09.2017 08:56 10,7 C 13,3 C 93 % 1020,8 hPa 0,0 l/m 1,9 km/h (1 Bft) S-SW 207 0 min 0,000 mm 0,0 UV-I 95 W/m 9,6 C 10,7 C 3,2 km/h (1 Bft) 100,00 %
26.09.2017 08:58 10,6 C 13,3 C 93 % 1020,8 hPa 0,0 l/m 1,0 km/h (0 Bft) S-SW 207 0 min 0,000 mm 0,0 UV-I 90 W/m 9,5 C 10,6 C 3,2 km/h (1 Bft) 98,00 %
26.09.2017 09:00 10,6 C 13,3 C 93 % 1020,9 hPa 0,0 l/m 2,0 km/h (1 Bft) S-SW 207 0 min 0,051 mm 0,5 UV-I 86 W/m 9,5 C 10,6 C 3,2 km/h (1 Bft) 97,73 %
26.09.2017 09:02 10,6 C 13,3 C 93 % 1020,9 hPa 0,0 l/m 2,2 km/h (1 Bft) S-SW 207 0 min 0,000 mm 0,5 UV-I 85 W/m 9,5 C 10,6 C 3,2 km/h (1 Bft) 97,87 %
26.09.2017 09:04 10,6 C 13,3 C 93 % 1020,9 hPa 0,0 l/m 3,0 km/h (1 Bft) S-SW 207 0 min 0,000 mm 0,5 UV-I 83 W/m 9,5 C 10,6 C 4,8 km/h (1 Bft) 97,73 %
26.09.2017 09:06 10,6 C 13,3 C 92 % 1021,0 hPa 0,0 l/m 2,7 km/h (1 Bft) S-SW 207 0 min 0,000 mm 0,5 UV-I 82 W/m 9,4 C 10,6 C 3,2 km/h (1 Bft) 98,00 %
26.09.2017 09:08 10,5 C 13,3 C 93 % 1020,9 hPa 0,0 l/m 2,5 km/h (1 Bft) S-SW 207 0 min 0,000 mm 0,5 UV-I 83 W/m 9,4 C 10,5 C 3,2 km/h (1 Bft) 98,00 %
26.09.2017 09:10 10,6 C 13,3 C 93 % 1021,0 hPa 0,0 l/m 2,4 km/h (1 Bft) S-SW 207 0 min 0,000 mm 0,5 UV-I 87 W/m 9,5 C 10,6 C 3,2 km/h (1 Bft) 97,87 %
26.09.2017 09:12 10,5 C 13,3 C 93 % 1021,0 hPa 0,0 l/m 2,0 km/h (1 Bft) S-SW 207 0 min 0,000 mm 0,5 UV-I 93 W/m 9,4 C 10,5 C 3,2 km/h (1 Bft) 97,92 %
26.09.2017 09:14 10,5 C 13,3 C 93 % 1021,0 hPa 0,0 l/m 1,0 km/h (0 Bft) S-SW 207 0 min 0,000 mm 0,6 UV-I 92 W/m 9,4 C 10,5 C 3,2 km/h (1 Bft) 95,74 %
26.09.2017 09:16 10,5 C 13,3 C 93 % 1021,0 hPa 0,0 l/m 0,0 km/h (0 Bft) S-SW 207 0 min 0,000 mm 0,6 UV-I 88 W/m 9,4 C 10,5 C 0,0 km/h (0 Bft) 97,87 %
26.09.2017 09:18 10,5 C 13,3 C 93 % 1021,1 hPa 0,0 l/m 0,0 km/h (0 Bft) S-SW 207 0 min 0,000 mm 0,6 UV-I 85 W/m 9,4 C 10,5 C 0,0 km/h (0 Bft) 95,74 %
26.09.2017 09:20 10,5 C 13,3 C 93 % 1021,1 hPa 0,0 l/m 0,0 km/h (0 Bft) S-SW 207 0 min 0,000 mm 0,6 UV-I 81 W/m 9,4 C 10,5 C 0,0 km/h (0 Bft) 97,37 %
26.09.2017 09:22 10,5 C 13,3 C 93 % 1021,1 hPa 0,0 l/m 0,0 km/h (0 Bft) S-SW 207 0 min 0,000 mm 0,6 UV-I 80 W/m 9,4 C 10,5 C 0,0 km/h (0 Bft) 95,74 %
26.09.2017 09:24 10,6 C 13,3 C 93 % 1021,1 hPa 0,0 l/m 0,0 km/h (0 Bft) S-SW 207 0 min 0,000 mm 0,6 UV-I 86 W/m 9,5 C 10,6 C 0,0 km/h (0 Bft) 97,87 %
26.09.2017 09:26 10,6 C 13,3 C 93 % 1021,2 hPa 0,0 l/m 0,0 km/h (0 Bft) S-SW 207 0 min 0,000 mm 0,6 UV-I 98 W/m 9,5 C 10,6 C 0,0 km/h (0 Bft) 97,87 %
26.09.2017 09:28 10,7 C 13,3 C 93 % 1021,2 hPa 0,0 l/m 0,0 km/h (0 Bft) S-SW 207 0 min 0,000 mm 0,7 UV-I 107 W/m 9,6 C 10,7 C 0,0 km/h (0 Bft) 98,00 %
26.09.2017 09:30 10,7 C 13,3 C 93 % 1021,2 hPa 0,0 l/m 1,2 km/h (1 Bft) S-SW 207 0 min 0,000 mm 0,7 UV-I 125 W/m 9,6 C 10,7 C 3,2 km/h (1 Bft) 97,87 %
26.09.2017 09:32 10,8 C 13,3 C 93 % 1021,2 hPa 0,0 l/m 0,7 km/h (0 Bft) S-SW 207 0 min 0,000 mm 0,7 UV-I 113 W/m 9,7 C 10,8 C 3,2 km/h (1 Bft) 97,56 %
26.09.2017 09:34 10,8 C 13,3 C 93 % 1021,2 hPa 0,0 l/m 0,7 km/h (0 Bft) S-SW 207 0 min 0,000 mm 0,7 UV-I 102 W/m 9,7 C 10,8 C 3,2 km/h (1 Bft) 96,00 %
26.09.2017 09:36 10,8 C 12,8 C 93 % 1021,3 hPa 0,0 l/m 0,8 km/h (0 Bft) S-SW 207 0 min 0,000 mm 0,7 UV-I 100 W/m 9,7 C 10,8 C 3,2 km/h (1 Bft) 97,87 %
26.09.2017 09:38 10,8 C 13,3 C 92 % 1021,4 hPa 0,0 l/m 1,5 km/h (1 Bft) S-SW 207 0 min 0,000 mm 0,8 UV-I 102 W/m 9,6 C 10,8 C 3,2 km/h (1 Bft) 97,87 %
26.09.2017 09:40 10,8 C 13,3 C 92 % 1021,4 hPa 0,0 l/m 2,0 km/h (1 Bft) S 172 0 min 0,000 mm 0,8 UV-I 146 W/m 9,6 C 10,8 C 3,2 km/h (1 Bft) 100,00 %
26.09.2017 09:42 10,9 C 13,3 C 92 % 1021,4 hPa 0,0 l/m 2,3 km/h (1 Bft) S 171 0 min 0,000 mm 0,8 UV-I 133 W/m 9,7 C 10,9 C 3,2 km/h (1 Bft) 97,37 %
26.09.2017 09:44 10,9 C 13,3 C 92 % 1021,4 hPa 0,0 l/m 3,1 km/h (1 Bft) S 191 0 min 0,000 mm 0,8 UV-I 142 W/m 9,7 C 10,9 C 6,4 km/h (2 Bft) 100,00 %
26.09.2017 09:46 11,0 C 13,3 C 92 % 1021,4 hPa 0,0 l/m 2,5 km/h (1 Bft) S 191 0 min 0,000 mm 0,9 UV-I 134 W/m 9,8 C 11,0 C 4,8 km/h (1 Bft) 97,44 %
26.09.2017 09:48 11,0 C 13,3 C 92 % 1021,3 hPa 0,0 l/m 2,7 km/h (1 Bft) S 191 0 min 0,000 mm 0,9 UV-I 192 W/m 9,8 C 11,0 C 6,4 km/h (2 Bft) 100,00 %
26.09.2017 09:50 11,0 C 13,3 C 92 % 1021,3 hPa 0,0 l/m 2,8 km/h (1 Bft) S 191 0 min 0,000 mm 0,8 UV-I 122 W/m 9,8 C 11,0 C 4,8 km/h (1 Bft) 100,00 %
26.09.2017 09:52 11,1 C 13,3 C 92 % 1021,3 hPa 0,0 l/m 1,8 km/h (1 Bft) S 182 0 min 0,000 mm 0,8 UV-I 107 W/m 9,8 C 11,1 C 4,8 km/h (1 Bft) 100,00 %
26.09.2017 09:54 11,0 C 13,3 C 92 % 1021,4 hPa 0,0 l/m 2,4 km/h (1 Bft) S 174 0 min 0,000 mm 0,8 UV-I 117 W/m 9,8 C 11,0 C 4,8 km/h (1 Bft) 100,00 %
26.09.2017 09:56 11,0 C 13,3 C 92 % 1021,4 hPa 0,0 l/m 0,9 km/h (0 Bft) S 174 0 min 0,000 mm 0,9 UV-I 134 W/m 9,8 C 11,0 C 3,2 km/h (1 Bft) 100,00 %
26.09.2017 09:58 11,1 C 13,3 C 92 % 1021,4 hPa 0,0 l/m 0,4 km/h (0 Bft) S 174 0 min 0,000 mm 0,9 UV-I 144 W/m 9,8 C 11,1 C 3,2 km/h (1 Bft) 98,11 %
26.09.2017 10:00 11,1 C 13,3 C 92 % 1021,4 hPa 0,0 l/m 2,8 km/h (1 Bft) S 174 0 min 0,051 mm 0,9 UV-I 149 W/m 9,8 C 11,1 C 4,8 km/h (1 Bft) 100,00 %
26.09.2017 10:02 11,1 C 13,3 C 92 % 1021,4 hPa 0,0 l/m 0,5 km/h (0 Bft) S 174 0 min 0,000 mm 0,9 UV-I 146 W/m 9,8 C 11,1 C 1,6 km/h (1 Bft) 100,00 %
26.09.2017 10:04 11,1 C 13,3 C 91 % 1021,4 hPa 0,0 l/m 1,5 km/h (1 Bft) S 174 0 min 0,000 mm 0,9 UV-I 185 W/m 9,7 C 11,1 C 4,8 km/h (1 Bft) 100,00 %
26.09.2017 10:06 11,2 C 13,3 C 92 % 1021,4 hPa 0,0 l/m 0,4 km/h (0 Bft) S 174 0 min 0,000 mm 0,9 UV-I 185 W/m 9,9 C 11,2 C 3,2 km/h (1 Bft) 97,14 %
26.09.2017 10:08 11,2 C 13,3 C 91 % 1021,5 hPa 0,0 l/m 0,5 km/h (0 Bft) S 174 0 min 0,000 mm 0,9 UV-I 161 W/m 9,8 C 11,2 C 3,2 km/h (1 Bft) 100,00 %
26.09.2017 10:10 11,2 C 13,3 C 91 % 1021,5 hPa 0,0 l/m 1,7 km/h (1 Bft) S 174 0 min 0,000 mm 0,9 UV-I 164 W/m 9,8 C 11,2 C 3,2 km/h (1 Bft) 98,00 %
26.09.2017 10:12 11,2 C 13,3 C 91 % 1021,5 hPa 0,0 l/m 0,0 km/h (0 Bft) S 174 0 min 0,000 mm 0,9 UV-I 170 W/m 9,8 C 11,2 C 0,0 km/h (0 Bft) 97,37 %
26.09.2017 10:14 11,3 C 13,3 C 91 % 1021,5 hPa 0,0 l/m 0,7 km/h (0 Bft) S 174 0 min 0,000 mm 0,9 UV-I 186 W/m 9,9 C 11,3 C 1,6 km/h (1 Bft) 96,23 %
26.09.2017 10:16 11,3 C 13,3 C 91 % 1021,6 hPa 0,0 l/m 0,2 km/h (0 Bft) S 174 0 min 0,000 mm 0,9 UV-I 189 W/m 9,9 C 11,3 C 1,6 km/h (1 Bft) 98,00 %
26.09.2017 10:18 11,3 C 13,3 C 91 % 1021,6 hPa 0,0 l/m 0,7 km/h (0 Bft) S 174 0 min 0,000 mm 1,0 UV-I 196 W/m 9,9 C 11,3 C 3,2 km/h (1 Bft) 97,87 %
26.09.2017 10:20 11,3 C 13,3 C 91 % 1021,6 hPa 0,0 l/m 0,6 km/h (0 Bft) S 174 0 min 0,000 mm 1,0 UV-I 200 W/m 9,9 C 11,3 C 1,6 km/h (1 Bft) 97,87 %
26.09.2017 10:22 11,3 C 13,3 C 91 % 1021,6 hPa 0,0 l/m 0,6 km/h (0 Bft) S 174 0 min 0,000 mm 1,0 UV-I 200 W/m 9,9 C 11,3 C 1,6 km/h (1 Bft) 97,37 %
26.09.2017 10:24 11,5 C 13,3 C 92 % 1021,6 hPa 0,0 l/m 2,8 km/h (1 Bft) S 174 0 min 0,000 mm 1,0 UV-I 195 W/m 10,2 C 11,5 C 4,8 km/h (1 Bft) 98,21 %
26.09.2017 10:26 11,5 C 13,3 C 91 % 1021,6 hPa 0,0 l/m 2,7 km/h (1 Bft) S 174 0 min 0,000 mm 1,0 UV-I 192 W/m 10,1 C 11,5 C 4,8 km/h (1 Bft) 97,44 %
26.09.2017 10:28 11,6 C 13,3 C 90 % 1021,6 hPa 0,0 l/m 0,4 km/h (0 Bft) S 174 0 min 0,000 mm 0,9 UV-I 190 W/m 10,0 C 11,6 C 1,6 km/h (1 Bft) 97,37 %
26.09.2017 10:30 11,7 C 13,3 C 90 % 1021,6 hPa 0,0 l/m 0,0 km/h (0 Bft) S 174 0 min 0,000 mm 0,9 UV-I 191 W/m 10,1 C 11,7 C 1,6 km/h (1 Bft) 98,44 %
26.09.2017 10:32 11,7 C 13,3 C 90 % 1021,6 hPa 0,0 l/m 0,3 km/h (0 Bft) S 174 0 min 0,000 mm 1,0 UV-I 194 W/m 10,1 C 11,7 C 1,6 km/h (1 Bft) 95,74 %
26.09.2017 10:34 11,8 C 13,3 C 91 % 1021,6 hPa 0,0 l/m 1,4 km/h (1 Bft) NO 38 0 min 0,000 mm 1,0 UV-I 194 W/m 10,4 C 11,8 C 4,8 km/h (1 Bft) 97,92 %
26.09.2017 10:36 11,9 C 13,3 C 90 % 1021,6 hPa 0,0 l/m 4,9 km/h (1 Bft) NO 38 0 min 0,000 mm 1,0 UV-I 194 W/m 10,3 C 11,9 C 6,4 km/h (2 Bft) 97,37 %
26.09.2017 10:38 11,9 C 13,3 C 90 % 1021,6 hPa 0,0 l/m 5,9 km/h (2 Bft) NO 51 0 min 0,000 mm 1,0 UV-I 196 W/m 10,3 C 11,9 C 8,0 km/h (2 Bft) 98,00 %
26.09.2017 10:40 12,0 C 13,3 C 90 % 1021,6 hPa 0,0 l/m 4,8 km/h (1 Bft) NO 45 0 min 0,000 mm 1,0 UV-I 200 W/m 10,4 C 12,0 C 6,4 km/h (2 Bft) 98,00 %
26.09.2017 10:42 12,1 C 13,3 C 90 % 1021,6 hPa 0,0 l/m 3,4 km/h (1 Bft) O-NO 71 0 min 0,000 mm 1,0 UV-I 205 W/m 10,5 C 12,1 C 4,8 km/h (1 Bft) 97,73 %
26.09.2017 10:44 12,1 C 13,3 C 89 % 1021,7 hPa 0,0 l/m 4,1 km/h (1 Bft) O 84 0 min 0,000 mm 1,0 UV-I 208 W/m 10,3 C 12,1 C 6,4 km/h (2 Bft) 98,00 %
26.09.2017 10:46 12,1 C 13,3 C 89 % 1021,7 hPa 0,0 l/m 2,7 km/h (1 Bft) O 84 0 min 0,000 mm 1,0 UV-I 209 W/m 10,3 C 12,1 C 4,8 km/h (1 Bft) 97,87 %
26.09.2017 10:48 12,1 C 13,3 C 89 % 1021,7 hPa 0,0 l/m 2,5 km/h (1 Bft) O 80 0 min 0,000 mm 1,0 UV-I 206 W/m 10,3 C 12,1 C 4,8 km/h (1 Bft) 97,37 %
26.09.2017 10:50 12,1 C 13,3 C 89 % 1021,6 hPa 0,0 l/m 3,1 km/h (1 Bft) O 80 0 min 0,000 mm 1,0 UV-I 201 W/m 10,3 C 12,1 C 4,8 km/h (1 Bft) 98,00 %
26.09.2017 10:52 12,2 C 13,3 C 89 % 1021,6 hPa 0,0 l/m 4,6 km/h (1 Bft) O-NO 61 0 min 0,000 mm 1,0 UV-I 195 W/m 10,4 C 12,2 C 6,4 km/h (2 Bft) 97,87 %
26.09.2017 10:54 12,2 C 13,3 C 89 % 1021,6 hPa 0,0 l/m 4,0 km/h (1 Bft) O-NO 61 0 min 0,000 mm 0,9 UV-I 190 W/m 10,4 C 12,2 C 4,8 km/h (1 Bft) 96,00 %
26.09.2017 10:56 12,3 C 13,3 C 89 % 1021,5 hPa 0,0 l/m 4,3 km/h (1 Bft) O-NO 61 0 min 0,000 mm 0,9 UV-I 184 W/m 10,5 C 12,3 C 6,4 km/h (2 Bft) 96,00 %
26.09.2017 10:58 12,3 C 13,3 C 90 % 1021,5 hPa 0,0 l/m 3,3 km/h (1 Bft) O-NO 60 0 min 0,000 mm 0,9 UV-I 177 W/m 10,7 C 12,3 C 6,4 km/h (2 Bft) 100,00 %
26.09.2017 11:00 12,3 C 13,3 C 90 % 1021,5 hPa 0,0 l/m 4,5 km/h (1 Bft) O-NO 57 0 min 0,101 mm 0,8 UV-I 172 W/m 10,7 C 12,3 C 6,4 km/h (2 Bft) 96,23 %
26.09.2017 11:02 12,4 C 13,3 C 90 % 1021,5 hPa 0,0 l/m 3,0 km/h (1 Bft) O-NO 57 0 min 0,000 mm 0,8 UV-I 166 W/m 10,8 C 12,4 C 4,8 km/h (1 Bft) 95,74 %
26.09.2017 11:04 12,4 C 13,3 C 90 % 1021,6 hPa 0,0 l/m 1,9 km/h (1 Bft) O-NO 57 0 min 0,000 mm 0,8 UV-I 169 W/m 10,8 C 12,4 C 3,2 km/h (1 Bft) 94,00 %
26.09.2017 11:06 12,4 C 13,3 C 89 % 1021,5 hPa 0,0 l/m 2,0 km/h (1 Bft) O-NO 57 0 min 0,000 mm 0,9 UV-I 178 W/m 10,6 C 12,4 C 4,8 km/h (1 Bft) 97,22 %
26.09.2017 11:08 12,4 C 13,3 C 89 % 1021,5 hPa 0,0 l/m 2,0 km/h (1 Bft) O-NO 57 0 min 0,000 mm 0,9 UV-I 190 W/m 10,6 C 12,4 C 3,2 km/h (1 Bft) 96,23 %
26.09.2017 11:10 12,4 C 13,3 C 89 % 1021,5 hPa 0,0 l/m 0,0 km/h (0 Bft) O-NO 57 0 min 0,000 mm 1,0 UV-I 199 W/m 10,6 C 12,4 C 0,0 km/h (0 Bft) 95,83 %
26.09.2017 11:12 12,4 C 13,3 C 88 % 1021,6 hPa 0,0 l/m 0,3 km/h (0 Bft) O-NO 57 0 min 0,000 mm 1,0 UV-I 206 W/m 10,5 C 12,4 C 1,6 km/h (1 Bft) 95,74 %
26.09.2017 11:14 12,4 C 13,3 C 89 % 1021,5 hPa 0,0 l/m 0,0 km/h (0 Bft) O-NO 57 0 min 0,000 mm 1,0 UV-I 214 W/m 10,6 C 12,4 C 1,6 km/h (1 Bft) 95,12 %
26.09.2017 11:16 12,5 C 13,3 C 88 % 1021,6 hPa 0,0 l/m 0,0 km/h (0 Bft) O-NO 57 0 min 0,000 mm 1,1 UV-I 229 W/m 10,6 C 12,5 C 0,0 km/h (0 Bft) 96,00 %
26.09.2017 11:18 12,6 C 13,3 C 89 % 1021,6 hPa 0,0 l/m 0,0 km/h (0 Bft) O-NO 57 0 min 0,000 mm 1,1 UV-I 236 W/m 10,8 C 12,6 C 0,0 km/h (0 Bft) 93,62 %
26.09.2017 11:20 12,7 C 13,3 C 89 % 1021,6 hPa 0,0 l/m 0,3 km/h (0 Bft) O-NO 57 0 min 0,000 mm 1,2 UV-I 241 W/m 10,9 C 12,7 C 1,6 km/h (1 Bft) 94,34 %
26.09.2017 11:22 12,8 C 13,3 C 88 % 1021,6 hPa 0,0 l/m 2,5 km/h (1 Bft) NO 53 0 min 0,000 mm 1,2 UV-I 243 W/m 10,9 C 12,8 C 4,8 km/h (1 Bft) 96,00 %
26.09.2017 11:24 12,9 C 13,3 C 88 % 1021,6 hPa 0,0 l/m 2,9 km/h (1 Bft) NO 53 0 min 0,000 mm 1,2 UV-I 248 W/m 11,0 C 12,9 C 4,8 km/h (1 Bft) 94,74 %
26.09.2017 11:26 12,9 C 13,3 C 87 % 1021,7 hPa 0,0 l/m 3,8 km/h (1 Bft) NO 53 0 min 0,000 mm 1,2 UV-I 254 W/m 10,8 C 12,9 C 6,4 km/h (2 Bft) 96,00 %
26.09.2017 11:28 13,0 C 13,3 C 88 % 1021,6 hPa 0,0 l/m 3,7 km/h (1 Bft) O 90 0 min 0,000 mm 1,3 UV-I 264 W/m 11,1 C 13,0 C 4,8 km/h (1 Bft) 94,74 %
26.09.2017 11:30 13,1 C 13,3 C 87 % 1021,6 hPa 0,0 l/m 4,2 km/h (1 Bft) O-NO 64 0 min 0,000 mm 1,3 UV-I 276 W/m 11,0 C 13,1 C 6,4 km/h (2 Bft) 98,00 %
26.09.2017 11:32 13,1 C 13,3 C 87 % 1021,6 hPa 0,0 l/m 2,9 km/h (1 Bft) O-NO 66 0 min 0,000 mm 1,3 UV-I 292 W/m 11,0 C 13,1 C 4,8 km/h (1 Bft) 97,87 %
26.09.2017 11:34 13,1 C 13,3 C 88 % 1021,6 hPa 0,0 l/m 4,3 km/h (1 Bft) O-NO 57 0 min 0,000 mm 1,5 UV-I 329 W/m 11,2 C 13,1 C 6,4 km/h (2 Bft) 97,73 %
26.09.2017 11:36 13,2 C 13,3 C 87 % 1021,6 hPa 0,0 l/m 3,1 km/h (1 Bft) O-NO 57 2 min 0,000 mm 1,5 UV-I 343 W/m 11,1 C 13,2 C 4,8 km/h (1 Bft) 95,74 %
26.09.2017 11:38 13,4 C 13,3 C 87 % 1021,6 hPa 0,0 l/m 3,6 km/h (1 Bft) O 96 2 min 0,000 mm 1,8 UV-I 449 W/m 11,3 C 13,4 C 6,4 km/h (2 Bft) 100,00 %
26.09.2017 11:40 13,5 C 13,3 C 86 % 1021,6 hPa 0,0 l/m 4,1 km/h (1 Bft) O-NO 78 2 min 0,000 mm 1,7 UV-I 368 W/m 11,2 C 13,5 C 6,4 km/h (2 Bft) 100,00 %
26.09.2017 11:42 13,5 C 13,3 C 86 % 1021,6 hPa 0,0 l/m 3,3 km/h (1 Bft) O-NO 76 2 min 0,000 mm 1,7 UV-I 373 W/m 11,2 C 13,5 C 4,8 km/h (1 Bft) 100,00 %
26.09.2017 11:44 13,6 C 13,3 C 86 % 1021,6 hPa 0,0 l/m 5,3 km/h (1 Bft) O 92 2 min 0,000 mm 1,9 UV-I 417 W/m 11,3 C 13,6 C 9,7 km/h (2 Bft) 100,00 %
26.09.2017 11:46 13,8 C 13,3 C 86 % 1021,5 hPa 0,0 l/m 3,4 km/h (1 Bft) O 82 2 min 0,000 mm 2,2 UV-I 464 W/m 11,5 C 13,8 C 4,8 km/h (1 Bft) 100,00 %
26.09.2017 11:48 13,9 C 13,3 C 85 % 1021,6 hPa 0,0 l/m 3,8 km/h (1 Bft) O-SO 122 2 min 0,000 mm 2,2 UV-I 510 W/m 11,4 C 13,9 C 6,4 km/h (2 Bft) 100,00 %
26.09.2017 11:50 14,1 C 13,3 C 85 % 1021,6 hPa 0,0 l/m 4,7 km/h (1 Bft) O-NO 64 2 min 0,000 mm 2,2 UV-I 499 W/m 11,6 C 14,1 C 8,0 km/h (2 Bft) 100,00 %
26.09.2017 11:52 14,3 C 13,3 C 86 % 1021,6 hPa 0,0 l/m 5,9 km/h (2 Bft) O-NO 74 2 min 0,000 mm 2,1 UV-I 445 W/m 12,0 C 14,3 C 12,9 km/h (3 Bft) 100,00 %
26.09.2017 11:54 14,5 C 13,3 C 83 % 1021,6 hPa 0,0 l/m 7,3 km/h (2 Bft) O-NO 61 2 min 0,000 mm 2,2 UV-I 450 W/m 11,6 C 14,0 C 12,9 km/h (3 Bft) 100,00 %
26.09.2017 11:56 14,6 C 13,3 C 82 % 1021,5 hPa 0,0 l/m 8,5 km/h (2 Bft) O 79 2 min 0,000 mm 2,4 UV-I 495 W/m 11,6 C 13,4 C 14,5 km/h (3 Bft) 98,21 %
26.09.2017 11:58 14,7 C 13,3 C 83 % 1021,5 hPa 0,0 l/m 6,1 km/h (2 Bft) N-NO 28 2 min 0,000 mm 2,4 UV-I 666 W/m 11,8 C 14,7 C 14,5 km/h (3 Bft) 100,00 %
26.09.2017 12:00 14,9 C 13,3 C 84 % 1021,5 hPa 0,0 l/m 6,8 km/h (2 Bft) NO 44 2 min 0,000 mm 2,2 UV-I 454 W/m 12,2 C 14,7 C 11,3 km/h (2 Bft) 100,00 %
26.09.2017 12:02 14,9 C 13,3 C 81 % 1021,6 hPa 0,0 l/m 10,7 km/h (2 Bft) O 92 2 min 0,178 mm 2,6 UV-I 490 W/m 11,7 C 12,7 C 14,5 km/h (3 Bft) 96,23 %
26.09.2017 12:04 15,0 C 13,3 C 82 % 1021,5 hPa 0,0 l/m 6,4 km/h (2 Bft) O-NO 67 2 min 0,000 mm 2,7 UV-I 490 W/m 12,0 C 15,0 C 12,9 km/h (3 Bft) 100,00 %
26.09.2017 12:06 15,0 C 13,3 C 81 % 1021,5 hPa 0,0 l/m 8,1 km/h (2 Bft) O 101 2 min 0,000 mm 2,1 UV-I 484 W/m 11,8 C 14,0 C 12,9 km/h (3 Bft) 100,00 %
26.09.2017 12:08 14,8 C 13,3 C 81 % 1021,5 hPa 0,0 l/m 7,5 km/h (2 Bft) NO 43 0 min 0,000 mm 1,8 UV-I 256 W/m 11,6 C 14,2 C 11,3 km/h (2 Bft) 100,00 %
26.09.2017 12:10 14,7 C 13,3 C 81 % 1021,5 hPa 0,0 l/m 6,8 km/h (2 Bft) O-NO 71 0 min 0,000 mm 1,7 UV-I 245 W/m 11,5 C 14,5 C 12,9 km/h (3 Bft) 100,00 %
26.09.2017 12:12 14,7 C 13,3 C 81 % 1021,5 hPa 0,0 l/m 5,9 km/h (2 Bft) O-NO 62 0 min 0,000 mm 1,6 UV-I 243 W/m 11,5 C 14,7 C 12,9 km/h (3 Bft) 100,00 %
26.09.2017 12:14 14,7 C 13,3 C 81 % 1021,5 hPa 0,0 l/m 4,6 km/h (1 Bft) O-NO 69 0 min 0,000 mm 1,6 UV-I 254 W/m 11,5 C 14,7 C 8,0 km/h (2 Bft) 100,00 %
26.09.2017 12:16 14,7 C 13,3 C 81 % 1021,5 hPa 0,0 l/m 5,8 km/h (2 Bft) O-NO 71 0 min 0,000 mm 1,6 UV-I 264 W/m 11,5 C 14,7 C 9,7 km/h (2 Bft) 98,00 %
26.09.2017 12:18 14,7 C 13,3 C 81 % 1021,5 hPa 0,0 l/m 6,7 km/h (2 Bft) NO 37 0 min 0,000 mm 1,7 UV-I 276 W/m 11,5 C 14,5 C 11,3 km/h (2 Bft) 97,37 %
26.09.2017 12:20 14,8 C 13,3 C 81 % 1021,5 hPa 0,0 l/m 8,6 km/h (2 Bft) O-NO 71 0 min 0,000 mm 1,7 UV-I 299 W/m 11,6 C 13,6 C 14,5 km/h (3 Bft) 100,00 %
26.09.2017 12:22 14,9 C 13,3 C 82 % 1021,4 hPa 0,0 l/m 10,8 km/h (2 Bft) O-NO 77 0 min 0,000 mm 1,9 UV-I 340 W/m 11,9 C 12,7 C 14,5 km/h (3 Bft) 100,00 %
26.09.2017 12:24 15,0 C 13,3 C 80 % 1021,4 hPa 0,0 l/m 10,1 km/h (2 Bft) O-NO 61 2 min 0,000 mm 2,0 UV-I 495 W/m 11,6 C 13,1 C 16,1 km/h (3 Bft) 100,00 %
26.09.2017 12:26 15,0 C 13,3 C 80 % 1021,4 hPa 0,0 l/m 10,2 km/h (2 Bft) O-NO 65 2 min 0,000 mm 2,1 UV-I 385 W/m 11,6 C 13,0 C 17,7 km/h (3 Bft) 100,00 %
26.09.2017 12:28 15,1 C 13,3 C 80 % 1021,5 hPa 0,0 l/m 7,8 km/h (2 Bft) O 101 2 min 0,000 mm 2,0 UV-I 358 W/m 11,7 C 14,3 C 12,9 km/h (3 Bft) 98,11 %
26.09.2017 12:30 15,1 C 13,3 C 80 % 1021,5 hPa 0,0 l/m 7,8 km/h (2 Bft) O-NO 70 0 min 0,000 mm 1,9 UV-I 338 W/m 11,7 C 14,3 C 14,5 km/h (3 Bft) 100,00 %
26.09.2017 12:32 15,1 C 13,3 C 81 % 1021,5 hPa 0,0 l/m 8,2 km/h (2 Bft) O-NO 57 0 min 0,000 mm 1,9 UV-I 315 W/m 11,9 C 14,1 C 16,1 km/h (3 Bft) 100,00 %
26.09.2017 12:34 15,1 C 13,3 C 79 % 1021,5 hPa 0,0 l/m 11,6 km/h (2 Bft) O-NO 74 0 min 0,000 mm 1,8 UV-I 319 W/m 11,5 C 12,5 C 16,1 km/h (3 Bft) 97,56 %
26.09.2017 12:36 15,1 C 13,3 C 80 % 1021,5 hPa 0,0 l/m 12,5 km/h (3 Bft) O-NO 78 0 min 0,000 mm 2,0 UV-I 321 W/m 11,7 C 12,2 C 16,1 km/h (3 Bft) 100,00 %
26.09.2017 12:38 15,2 C 13,3 C 81 % 1021,4 hPa 0,0 l/m 14,2 km/h (3 Bft) O-NO 64 2 min 0,000 mm 2,1 UV-I 375 W/m 12,0 C 11,7 C 17,7 km/h (3 Bft) 100,00 %
26.09.2017 12:40 15,2 C 13,3 C 80 % 1021,4 hPa 0,0 l/m 11,7 km/h (2 Bft) O-NO 76 2 min 0,000 mm 2,0 UV-I 368 W/m 11,8 C 12,6 C 16,1 km/h (3 Bft) 98,21 %
26.09.2017 12:42 15,2 C 13,3 C 79 % 1021,4 hPa 0,0 l/m 12,0 km/h (2 Bft) NO 44 0 min 0,000 mm 1,9 UV-I 333 W/m 11,6 C 12,5 C 16,1 km/h (3 Bft) 100,00 %
26.09.2017 12:44 15,2 C 13,3 C 80 % 1021,5 hPa 0,0 l/m 11,1 km/h (2 Bft) O-NO 61 0 min 0,000 mm 1,7 UV-I 290 W/m 11,8 C 12,9 C 17,7 km/h (3 Bft) 96,00 %
26.09.2017 12:46 15,3 C 13,3 C 80 % 1021,5 hPa 0,0 l/m 14,6 km/h (3 Bft) NO 55 0 min 0,000 mm 1,6 UV-I 264 W/m 11,9 C 11,7 C 19,3 km/h (3 Bft) 100,00 %
26.09.2017 12:48 15,3 C 13,3 C 81 % 1021,5 hPa 0,0 l/m 12,2 km/h (2 Bft) O-NO 71 0 min 0,000 mm 1,5 UV-I 241 W/m 12,1 C 12,5 C 19,3 km/h (3 Bft) 100,00 %
26.09.2017 12:50 15,2 C 13,3 C 80 % 1021,4 hPa 0,0 l/m 11,9 km/h (2 Bft) NO 53 0 min 0,000 mm 1,4 UV-I 231 W/m 11,8 C 12,5 C 17,7 km/h (3 Bft) 97,37 %
26.09.2017 12:52 15,1 C 13,3 C 81 % 1021,4 hPa 0,0 l/m 10,9 km/h (2 Bft) O-NO 69 0 min 0,000 mm 1,3 UV-I 224 W/m 11,9 C 12,8 C 16,1 km/h (3 Bft) 100,00 %
26.09.2017 12:54 15,1 C 13,3 C 82 % 1021,4 hPa 0,0 l/m 7,2 km/h (2 Bft) O-NO 67 0 min 0,000 mm 1,3 UV-I 215 W/m 12,0 C 14,6 C 11,3 km/h (2 Bft) 97,37 %
26.09.2017 12:56 15,2 C 13,3 C 81 % 1021,4 hPa 0,0 l/m 9,1 km/h (2 Bft) O-NO 69 0 min 0,000 mm 1,2 UV-I 203 W/m 12,0 C 13,8 C 14,5 km/h (3 Bft) 97,73 %
26.09.2017 12:58 15,1 C 13,3 C 82 % 1021,4 hPa 0,0 l/m 12,4 km/h (3 Bft) NO 53 0 min 0,000 mm 1,1 UV-I 192 W/m 12,0 C 12,2 C 16,1 km/h (3 Bft) 96,43 %
26.09.2017 13:00 15,1 C 13,3 C 82 % 1021,4 hPa 0,0 l/m 12,0 km/h (2 Bft) O-NO 67 0 min 0,178 mm 1,1 UV-I 185 W/m 12,0 C 12,4 C 17,7 km/h (3 Bft) 95,45 %
26.09.2017 13:02 15,1 C 13,3 C 82 % 1021,4 hPa 0,0 l/m 11,9 km/h (2 Bft) NO 53 0 min 0,000 mm 1,0 UV-I 184 W/m 12,0 C 12,4 C 19,3 km/h (3 Bft) 97,44 %
26.09.2017 13:04 15,1 C 13,3 C 81 % 1021,4 hPa 0,0 l/m 10,0 km/h (2 Bft) NO 36 0 min 0,000 mm 1,0 UV-I 189 W/m 11,9 C 13,2 C 17,7 km/h (3 Bft) 94,00 %
26.09.2017 13:06 15,1 C 13,3 C 81 % 1021,3 hPa 0,0 l/m 13,9 km/h (3 Bft) NO 53 0 min 0,000 mm 1,1 UV-I 194 W/m 11,9 C 11,7 C 19,3 km/h (3 Bft) 98,18 %
26.09.2017 13:08 14,9 C 13,3 C 81 % 1021,3 hPa 0,0 l/m 13,8 km/h (3 Bft) NO 53 0 min 0,000 mm 1,1 UV-I 193 W/m 11,7 C 11,5 C 19,3 km/h (3 Bft) 97,44 %
26.09.2017 13:10 14,9 C 13,3 C 81 % 1021,3 hPa 0,0 l/m 11,8 km/h (2 Bft) NO 44 0 min 0,000 mm 1,0 UV-I 184 W/m 11,7 C 12,2 C 16,1 km/h (3 Bft) 98,00 %
26.09.2017 13:12 14,8 C 13,3 C 81 % 1021,3 hPa 0,0 l/m 8,1 km/h (2 Bft) O-NO 73 0 min 0,000 mm 1,0 UV-I 178 W/m 11,6 C 13,8 C 14,5 km/h (3 Bft) 97,37 %
26.09.2017 13:14 14,8 C 13,3 C 82 % 1021,4 hPa 0,0 l/m 7,9 km/h (2 Bft) O-NO 66 0 min 0,000 mm 1,0 UV-I 179 W/m 11,8 C 13,9 C 12,9 km/h (3 Bft) 94,34 %
26.09.2017 13:16 14,8 C 13,3 C 81 % 1021,4 hPa 0,0 l/m 7,1 km/h (2 Bft) NO 54 0 min 0,000 mm 1,0 UV-I 186 W/m 11,6 C 14,4 C 9,7 km/h (2 Bft) 97,87 %
26.09.2017 13:18 14,8 C 13,3 C 82 % 1021,4 hPa 0,0 l/m 10,4 km/h (2 Bft) O-NO 61 0 min 0,000 mm 1,0 UV-I 192 W/m 11,8 C 12,7 C 14,5 km/h (3 Bft) 97,87 %
26.09.2017 13:20 14,8 C 13,3 C 82 % 1021,4 hPa 0,0 l/m 8,5 km/h (2 Bft) NO 44 0 min 0,000 mm 1,0 UV-I 195 W/m 11,8 C 13,6 C 12,9 km/h (3 Bft) 96,00 %
26.09.2017 13:22 14,8 C 13,3 C 82 % 1021,4 hPa 0,0 l/m 10,7 km/h (2 Bft) O-NO 64 0 min 0,000 mm 1,0 UV-I 198 W/m 11,8 C 12,6 C 16,1 km/h (3 Bft) 97,56 %
26.09.2017 13:24 14,8 C 13,3 C 82 % 1021,4 hPa 0,0 l/m 11,1 km/h (2 Bft) O 80 0 min 0,000 mm 1,0 UV-I 202 W/m 11,8 C 12,4 C 17,7 km/h (3 Bft) 98,11 %
26.09.2017 13:26 14,8 C 13,3 C 82 % 1021,4 hPa 0,0 l/m 12,9 km/h (3 Bft) O 95 0 min 0,000 mm 1,1 UV-I 213 W/m 11,8 C 11,7 C 19,3 km/h (3 Bft) 98,00 %
26.09.2017 13:28 14,8 C 13,3 C 82 % 1021,3 hPa 0,0 l/m 11,8 km/h (2 Bft) O-NO 67 0 min 0,000 mm 1,2 UV-I 226 W/m 11,8 C 12,1 C 16,1 km/h (3 Bft) 100,00 %
26.09.2017 13:30 14,9 C 13,3 C 83 % 1021,3 hPa 0,0 l/m 8,7 km/h (2 Bft) NO 47 0 min 0,000 mm 1,3 UV-I 244 W/m 12,0 C 13,6 C 12,9 km/h (3 Bft) 100,00 %
26.09.2017 13:32 14,9 C 13,3 C 82 % 1021,3 hPa 0,0 l/m 12,5 km/h (3 Bft) O 101 0 min 0,000 mm 1,4 UV-I 266 W/m 11,9 C 12,0 C 19,3 km/h (3 Bft) 100,00 %
26.09.2017 13:34 14,9 C 13,3 C 83 % 1021,3 hPa 0,0 l/m 12,8 km/h (3 Bft) O-SO 113 0 min 0,000 mm 1,5 UV-I 289 W/m 12,0 C 11,8 C 17,7 km/h (3 Bft) 98,21 %
26.09.2017 13:36 15,0 C 13,3 C 83 % 1021,3 hPa 0,0 l/m 8,8 km/h (2 Bft) O-NO 69 0 min 0,000 mm 1,6 UV-I 308 W/m 12,1 C 13,7 C 14,5 km/h (3 Bft) 100,00 %
26.09.2017 13:38 15,1 C 13,3 C 83 % 1021,2 hPa 0,0 l/m 10,6 km/h (2 Bft) O-NO 68 0 min 0,000 mm 1,8 UV-I 330 W/m 12,2 C 13,0 C 19,3 km/h (3 Bft) 98,00 %
26.09.2017 13:40 15,2 C 13,3 C 82 % 1021,2 hPa 0,0 l/m 12,5 km/h (3 Bft) O 99 0 min 0,000 mm 1,9 UV-I 343 W/m 12,1 C 12,3 C 17,7 km/h (3 Bft) 100,00 %
26.09.2017 13:42 15,3 C 13,3 C 83 % 1021,2 hPa 0,0 l/m 8,5 km/h (2 Bft) NO 46 0 min 0,000 mm 1,8 UV-I 349 W/m 12,4 C 14,2 C 14,5 km/h (3 Bft) 100,00 %
26.09.2017 13:44 15,4 C 13,3 C 82 % 1021,2 hPa 0,0 l/m 9,3 km/h (2 Bft) O 82 0 min 0,000 mm 1,7 UV-I 327 W/m 12,3 C 13,9 C 16,1 km/h (3 Bft) 98,11 %
26.09.2017 13:46 15,4 C 13,3 C 81 % 1021,2 hPa 0,0 l/m 13,6 km/h (3 Bft) O-NO 62 0 min 0,000 mm 1,7 UV-I 306 W/m 12,2 C 12,1 C 19,3 km/h (3 Bft) 100,00 %
26.09.2017 13:48 15,4 C 13,3 C 81 % 1021,2 hPa 0,0 l/m 10,8 km/h (2 Bft) O 96 0 min 0,000 mm 1,7 UV-I 301 W/m 12,2 C 13,2 C 17,7 km/h (3 Bft) 100,00 %
26.09.2017 13:50 15,5 C 13,3 C 81 % 1021,2 hPa 0,0 l/m 11,5 km/h (2 Bft) NO 42 0 min 0,000 mm 1,6 UV-I 289 W/m 12,3 C 13,0 C 17,7 km/h (3 Bft) 100,00 %
26.09.2017 13:52 15,4 C 13,3 C 79 % 1021,1 hPa 0,0 l/m 16,9 km/h (3 Bft) NO 56 0 min 0,000 mm 1,6 UV-I 281 W/m 11,8 C 11,1 C 24,1 km/h (4 Bft) 97,37 %
26.09.2017 13:54 15,4 C 13,3 C 80 % 1021,1 hPa 0,0 l/m 14,0 km/h (3 Bft) O-SO 103 0 min 0,000 mm 1,7 UV-I 293 W/m 12,0 C 12,0 C 17,7 km/h (3 Bft) 100,00 %
26.09.2017 13:56 15,4 C 13,3 C 80 % 1021,1 hPa 0,0 l/m 15,6 km/h (3 Bft) O-NO 70 0 min 0,000 mm 1,8 UV-I 337 W/m 12,0 C 11,5 C 20,9 km/h (4 Bft) 100,00 %
26.09.2017 13:58 15,4 C 13,3 C 80 % 1021,1 hPa 0,0 l/m 14,6 km/h (3 Bft) O 88 0 min 0,000 mm 1,9 UV-I 334 W/m 12,0 C 11,8 C 22,5 km/h (4 Bft) 100,00 %
26.09.2017 14:00 15,4 C 13,3 C 80 % 1021,1 hPa 0,0 l/m 15,2 km/h (3 Bft) O-NO 78 2 min 0,000 mm 1,9 UV-I 347 W/m 12,0 C 11,6 C 20,9 km/h (4 Bft) 100,00 %
26.09.2017 14:02 15,6 C 13,3 C 81 % 1021,1 hPa 0,0 l/m 11,4 km/h (2 Bft) O-NO 74 0 min 0,152 mm 1,9 UV-I 326 W/m 12,3 C 13,2 C 17,7 km/h (3 Bft) 100,00 %
26.09.2017 14:04 15,7 C 13,3 C 81 % 1021,1 hPa 0,0 l/m 9,3 km/h (2 Bft) O 85 0 min 0,000 mm 1,9 UV-I 338 W/m 12,4 C 14,2 C 17,7 km/h (3 Bft) 98,21 %
26.09.2017 14:06 15,8 C 13,3 C 80 % 1021,0 hPa 0,0 l/m 13,1 km/h (3 Bft) O-NO 59 2 min 0,000 mm 2,0 UV-I 369 W/m 12,4 C 12,8 C 17,7 km/h (3 Bft) 100,00 %
26.09.2017 14:08 16,0 C 13,3 C 80 % 1021,0 hPa 0,0 l/m 11,4 km/h (2 Bft) O-NO 63 2 min 0,000 mm 2,2 UV-I 406 W/m 12,5 C 13,7 C 16,1 km/h (3 Bft) 100,00 %
26.09.2017 14:10 16,2 C 13,3 C 79 % 1021,0 hPa 0,0 l/m 12,1 km/h (2 Bft) NO 53 2 min 0,000 mm 2,3 UV-I 403 W/m 12,6 C 13,6 C 19,3 km/h (3 Bft) 100,00 %
26.09.2017 14:12 16,3 C 13,3 C 77 % 1021,0 hPa 0,0 l/m 10,7 km/h (2 Bft) NO 54 2 min 0,000 mm 2,4 UV-I 338 W/m 12,3 C 14,3 C 16,1 km/h (3 Bft) 100,00 %
26.09.2017 14:14 16,4 C 13,3 C 78 % 1021,0 hPa 0,0 l/m 9,5 km/h (2 Bft) O 85 2 min 0,000 mm 2,3 UV-I 338 W/m 12,6 C 14,9 C 16,1 km/h (3 Bft) 100,00 %
26.09.2017 14:16 16,5 C 13,3 C 77 % 1021,0 hPa 0,0 l/m 13,5 km/h (3 Bft) O-NO 72 2 min 0,000 mm 2,2 UV-I 338 W/m 12,5 C 13,5 C 17,7 km/h (3 Bft) 100,00 %
26.09.2017 14:18 16,4 C 13,3 C 77 % 1021,0 hPa 0,0 l/m 13,2 km/h (3 Bft) NO 47 2 min 0,000 mm 2,1 UV-I 354 W/m 12,4 C 13,5 C 19,3 km/h (3 Bft) 100,00 %
26.09.2017 14:20 16,4 C 13,3 C 78 % 1021,0 hPa 0,0 l/m 10,3 km/h (2 Bft) O-SO 104 2 min 0,000 mm 1,9 UV-I 345 W/m 12,6 C 14,5 C 14,5 km/h (3 Bft) 100,00 %
26.09.2017 14:23 16,4 C 13,3 C 78 % 1021,0 hPa 0,0 l/m 11,9 km/h (2 Bft) O 88 3 min 0,000 mm 2,0 UV-I 384 W/m 12,6 C 13,9 C 17,7 km/h (3 Bft) 100,00 %
26.09.2017 14:24 16,3 C 13,3 C 78 % 1021,0 hPa 0,0 l/m 12,1 km/h (2 Bft) O 95 1 min 0,000 mm 2,1 UV-I 393 W/m 12,5 C 13,7 C 16,1 km/h (3 Bft) 100,00 %
26.09.2017 14:26 16,4 C 13,3 C 77 % 1020,9 hPa 0,0 l/m 12,1 km/h (2 Bft) O 80 2 min 0,000 mm 1,9 UV-I 367 W/m 12,4 C 13,8 C 17,7 km/h (3 Bft) 100,00 %
26.09.2017 14:28 16,4 C 13,3 C 78 % 1021,0 hPa 0,0 l/m 12,5 km/h (3 Bft) O 82 2 min 0,000 mm 2,1 UV-I 407 W/m 12,6 C 13,7 C 16,1 km/h (3 Bft) 100,00 %
26.09.2017 14:30 16,5 C 13,3 C 77 % 1020,9 hPa 0,0 l/m 11,1 km/h (2 Bft) O 101 2 min 0,000 mm 2,2 UV-I 494 W/m 12,5 C 14,3 C 17,7 km/h (3 Bft) 100,00 %
26.09.2017 14:32 16,7 C 13,3 C 78 % 1021,0 hPa 0,0 l/m 7,8 km/h (2 Bft) O-NO 70 2 min 0,000 mm 2,3 UV-I 728 W/m 12,8 C 16,0 C 12,9 km/h (3 Bft) 98,75 %
26.09.2017 14:34 16,8 C 13,3 C 77 % 1020,9 hPa 0,0 l/m 10,1 km/h (2 Bft) O-NO 66 2 min 0,000 mm 2,4 UV-I 728 W/m 12,7 C 15,1 C 17,7 km/h (3 Bft) 100,00 %
26.09.2017 14:36 16,9 C 13,3 C 77 % 1020,9 hPa 0,0 l/m 12,7 km/h (3 Bft) O-NO 64 2 min 0,000 mm 2,4 UV-I 715 W/m 12,8 C 14,2 C 17,7 km/h (3 Bft) 100,00 %
26.09.2017 14:38 17,1 C 13,3 C 78 % 1020,9 hPa 0,0 l/m 14,2 km/h (3 Bft) O-NO 65 2 min 0,000 mm 2,4 UV-I 704 W/m 13,2 C 14,0 C 22,5 km/h (4 Bft) 100,00 %
26.09.2017 14:40 17,1 C 13,3 C 76 % 1020,9 hPa 0,0 l/m 10,9 km/h (2 Bft) NO 53 2 min 0,000 mm 2,3 UV-I 668 W/m 12,8 C 15,1 C 16,1 km/h (3 Bft) 100,00 %
26.09.2017 14:42 17,0 C 13,3 C 75 % 1020,9 hPa 0,0 l/m 13,8 km/h (3 Bft) O-NO 67 2 min 0,000 mm 2,1 UV-I 615 W/m 12,5 C 14,0 C 20,9 km/h (4 Bft) 97,87 %
26.09.2017 14:44 16,9 C 13,3 C 77 % 1020,9 hPa 0,0 l/m 13,7 km/h (3 Bft) NO 51 2 min 0,000 mm 2,0 UV-I 556 W/m 12,8 C 13,9 C 19,3 km/h (3 Bft) 100,00 %
26.09.2017 14:46 16,8 C 13,3 C 77 % 1020,9 hPa 0,0 l/m 13,5 km/h (3 Bft) O-NO 64 2 min 0,000 mm 1,9 UV-I 546 W/m 12,7 C 13,8 C 19,3 km/h (3 Bft) 100,00 %
26.09.2017 14:48 16,8 C 13,3 C 78 % 1020,9 hPa 0,0 l/m 12,6 km/h (3 Bft) O-NO 71 2 min 0,000 mm 1,7 UV-I 552 W/m 12,9 C 14,1 C 17,7 km/h (3 Bft) 98,11 %
26.09.2017 14:50 16,8 C 13,3 C 77 % 1020,8 hPa 0,0 l/m 9,5 km/h (2 Bft) O 86 2 min 0,000 mm 1,8 UV-I 546 W/m 12,7 C 15,3 C 16,1 km/h (3 Bft) 97,56 %
26.09.2017 14:52 16,8 C 13,3 C 78 % 1020,8 hPa 0,0 l/m 10,3 km/h (2 Bft) O-NO 67 2 min 0,000 mm 1,8 UV-I 352 W/m 12,9 C 15,0 C 17,7 km/h (3 Bft) 98,21 %
26.09.2017 14:54 16,9 C 13,3 C 78 % 1020,9 hPa 0,0 l/m 11,7 km/h (2 Bft) NO 55 2 min 0,000 mm 2,0 UV-I 453 W/m 13,0 C 14,6 C 17,7 km/h (3 Bft) 97,87 %
26.09.2017 14:56 17,1 C 13,3 C 78 % 1020,8 hPa 0,0 l/m 12,9 km/h (3 Bft) NO 44 2 min 0,000 mm 2,0 UV-I 612 W/m 13,2 C 14,4 C 19,3 km/h (3 Bft) 97,87 %
26.09.2017 14:58 17,1 C 13,3 C 78 % 1020,8 hPa 0,0 l/m 10,5 km/h (2 Bft) O-NO 59 2 min 0,000 mm 1,9 UV-I 561 W/m 13,2 C 15,2 C 16,1 km/h (3 Bft) 97,22 %
26.09.2017 15:00 17,2 C 13,3 C 77 % 1020,8 hPa 0,0 l/m 13,2 km/h (3 Bft) O 80 2 min 0,305 mm 1,9 UV-I 555 W/m 13,1 C 14,4 C 19,3 km/h (3 Bft) 97,56 %
26.09.2017 15:02 17,2 C 13,3 C 77 % 1020,8 hPa 0,0 l/m 12,6 km/h (3 Bft) O-NO 76 2 min 0,000 mm 1,6 UV-I 439 W/m 13,1 C 14,6 C 17,7 km/h (3 Bft) 97,56 %
26.09.2017 15:04 17,1 C 13,3 C 77 % 1020,8 hPa 0,0 l/m 13,1 km/h (3 Bft) O-NO 61 0 min 0,000 mm 1,5 UV-I 264 W/m 13,0 C 14,3 C 17,7 km/h (3 Bft) 95,71 %
26.09.2017 15:06 17,0 C 13,3 C 78 % 1020,8 hPa 0,0 l/m 17,5 km/h (3 Bft) O-NO 68 2 min 0,000 mm 1,7 UV-I 416 W/m 13,1 C 12,9 C 24,1 km/h (4 Bft) 97,62 %
26.09.2017 15:08 17,0 C 13,3 C 77 % 1020,8 hPa 0,0 l/m 17,0 km/h (3 Bft) O 81 2 min 0,000 mm 1,4 UV-I 478 W/m 12,9 C 13,1 C 22,5 km/h (4 Bft) 97,73 %
26.09.2017 15:10 16,9 C 13,3 C 77 % 1020,8 hPa 0,0 l/m 13,9 km/h (3 Bft) O 80 2 min 0,000 mm 1,3 UV-I 322 W/m 12,8 C 13,8 C 19,3 km/h (3 Bft) 98,00 %
26.09.2017 15:12 16,8 C 13,3 C 77 % 1020,8 hPa 0,0 l/m 14,4 km/h (3 Bft) NO 54 0 min 0,000 mm 1,2 UV-I 246 W/m 12,7 C 13,6 C 19,3 km/h (3 Bft) 95,74 %
26.09.2017 15:14 16,7 C 13,3 C 77 % 1020,8 hPa 0,0 l/m 15,2 km/h (3 Bft) O 92 0 min 0,000 mm 1,2 UV-I 247 W/m 12,6 C 13,2 C 20,9 km/h (4 Bft) 97,67 %
26.09.2017 15:16 16,7 C 13,3 C 77 % 1020,8 hPa 0,0 l/m 12,9 km/h (3 Bft) O-NO 68 0 min 0,000 mm 1,2 UV-I 247 W/m 12,6 C 13,9 C 17,7 km/h (3 Bft) 94,34 %
26.09.2017 15:18 16,6 C 13,3 C 78 % 1020,8 hPa 0,0 l/m 12,2 km/h (2 Bft) NO 48 0 min 0,000 mm 1,2 UV-I 240 W/m 12,7 C 14,0 C 19,3 km/h (3 Bft) 93,62 %
26.09.2017 15:20 16,6 C 13,3 C 78 % 1020,8 hPa 0,0 l/m 11,5 km/h (2 Bft) O-NO 68 0 min 0,000 mm 1,2 UV-I 223 W/m 12,7 C 14,3 C 16,1 km/h (3 Bft) 97,37 %
26.09.2017 15:22 16,6 C 13,3 C 78 % 1020,8 hPa 0,0 l/m 12,2 km/h (2 Bft) O-NO 59 0 min 0,000 mm 1,1 UV-I 210 W/m 12,7 C 14,0 C 17,7 km/h (3 Bft) 98,00 %
26.09.2017 15:24 16,6 C 13,3 C 78 % 1020,8 hPa 0,0 l/m 14,4 km/h (3 Bft) O-NO 78 0 min 0,000 mm 1,1 UV-I 195 W/m 12,7 C 13,3 C 19,3 km/h (3 Bft) 96,23 %
26.09.2017 15:26 16,5 C 13,3 C 78 % 1020,8 hPa 0,0 l/m 14,3 km/h (3 Bft) O-NO 76 0 min 0,000 mm 1,0 UV-I 191 W/m 12,6 C 13,2 C 17,7 km/h (3 Bft) 97,73 %
26.09.2017 15:28 16,4 C 13,3 C 78 % 1020,8 hPa 0,0 l/m 13,2 km/h (3 Bft) O-NO 75 0 min 0,000 mm 1,0 UV-I 195 W/m 12,6 C 13,5 C 24,1 km/h (4 Bft) 96,00 %
26.09.2017 15:30 16,4 C 13,3 C 78 % 1020,9 hPa 0,0 l/m 15,1 km/h (3 Bft) O-NO 59 0 min 0,000 mm 1,0 UV-I 198 W/m 12,6 C 12,9 C 25,7 km/h (4 Bft) 95,12 %
26.09.2017 15:32 16,4 C 13,3 C 78 % 1020,8 hPa 0,0 l/m 13,0 km/h (3 Bft) O 80 0 min 0,000 mm 1,0 UV-I 202 W/m 12,6 C 13,5 C 19,3 km/h (3 Bft) 97,56 %
26.09.2017 15:34 16,4 C 13,3 C 78 % 1020,8 hPa 0,0 l/m 13,8 km/h (3 Bft) O-NO 57 0 min 0,000 mm 0,9 UV-I 199 W/m 12,6 C 13,3 C 20,9 km/h (4 Bft) 96,43 %
26.09.2017 15:36 16,6 C 13,3 C 79 % 1020,8 hPa 0,0 l/m 13,9 km/h (3 Bft) O 86 0 min 0,000 mm 0,9 UV-I 193 W/m 12,9 C 13,5 C 19,3 km/h (3 Bft) 95,12 %
26.09.2017 15:38 16,6 C 13,3 C 78 % 1020,8 hPa 0,0 l/m 15,1 km/h (3 Bft) O-NO 74 0 min 0,000 mm 0,9 UV-I 198 W/m 12,7 C 13,1 C 20,9 km/h (4 Bft) 94,00 %
26.09.2017 15:40 16,6 C 13,3 C 78 % 1020,8 hPa 0,0 l/m 15,3 km/h (3 Bft) NO 42 0 min 0,000 mm 0,9 UV-I 245 W/m 12,7 C 13,0 C 20,9 km/h (4 Bft) 95,74 %
26.09.2017 15:42 16,6 C 13,3 C 78 % 1020,8 hPa 0,0 l/m 16,6 km/h (3 Bft) O-NO 69 0 min 0,000 mm 0,9 UV-I 260 W/m 12,7 C 12,7 C 22,5 km/h (4 Bft) 98,00 %
26.09.2017 15:44 16,7 C 13,3 C 79 % 1020,8 hPa 0,0 l/m 12,7 km/h (3 Bft) NO 53 0 min 0,000 mm 0,9 UV-I 230 W/m 13,0 C 14,0 C 17,7 km/h (3 Bft) 97,44 %
26.09.2017 15:46 16,7 C 13,3 C 79 % 1020,9 hPa 0,0 l/m 13,4 km/h (3 Bft) O-NO 70 0 min 0,000 mm 0,8 UV-I 227 W/m 13,0 C 13,8 C 17,7 km/h (3 Bft) 98,11 %
26.09.2017 15:48 16,7 C 13,3 C 79 % 1020,8 hPa 0,0 l/m 12,4 km/h (3 Bft) NO 48 0 min 0,000 mm 0,8 UV-I 205 W/m 13,0 C 14,1 C 19,3 km/h (3 Bft) 95,12 %
26.09.2017 15:50 16,7 C 13,3 C 78 % 1020,9 hPa 0,0 l/m 18,1 km/h (3 Bft) NO 56 0 min 0,000 mm 0,8 UV-I 207 W/m 12,8 C 12,4 C 24,1 km/h (4 Bft) 96,23 %
26.09.2017 15:52 16,7 C 13,3 C 79 % 1020,9 hPa 0,0 l/m 12,4 km/h (3 Bft) O-NO 61 0 min 0,000 mm 0,8 UV-I 211 W/m 13,0 C 14,1 C 17,7 km/h (3 Bft) 98,04 %
26.09.2017 15:54 16,7 C 13,3 C 80 % 1020,9 hPa 0,0 l/m 13,6 km/h (3 Bft) O-NO 69 0 min 0,000 mm 0,8 UV-I 218 W/m 13,2 C 13,7 C 19,3 km/h (3 Bft) 97,73 %
26.09.2017 15:56 16,6 C 13,3 C 80 % 1020,9 hPa 0,0 l/m 14,2 km/h (3 Bft) O-NO 72 0 min 0,000 mm 0,8 UV-I 228 W/m 13,1 C 13,4 C 24,1 km/h (4 Bft) 98,00 %
26.09.2017 15:58 16,6 C 13,3 C 79 % 1020,8 hPa 0,0 l/m 17,3 km/h (3 Bft) NO 51 0 min 0,000 mm 0,8 UV-I 235 W/m 12,9 C 12,5 C 22,5 km/h (4 Bft) 97,56 %
26.09.2017 16:00 16,6 C 13,3 C 79 % 1020,9 hPa 0,0 l/m 17,6 km/h (3 Bft) O 84 2 min 0,178 mm 0,9 UV-I 244 W/m 12,9 C 12,4 C 24,1 km/h (4 Bft) 97,73 %
26.09.2017 16:02 16,5 C 13,3 C 80 % 1020,9 hPa 0,0 l/m 14,9 km/h (3 Bft) O-NO 71 2 min 0,000 mm 0,9 UV-I 292 W/m 13,0 C 13,0 C 22,5 km/h (4 Bft) 97,56 %
26.09.2017 16:04 16,5 C 13,3 C 80 % 1020,9 hPa 0,0 l/m 14,9 km/h (3 Bft) O-NO 66 2 min 0,000 mm 0,9 UV-I 252 W/m 13,0 C 13,0 C 20,9 km/h (4 Bft) 97,56 %
26.09.2017 16:06 16,6 C 13,3 C 80 % 1020,8 hPa 0,0 l/m 16,8 km/h (3 Bft) NO 44 2 min 0,000 mm 0,9 UV-I 318 W/m 13,1 C 12,6 C 25,7 km/h (4 Bft) 96,23 %
26.09.2017 16:08 16,6 C 13,3 C 79 % 1020,8 hPa 0,0 l/m 21,1 km/h (4 Bft) O-NO 76 2 min 0,000 mm 1,0 UV-I 437 W/m 12,9 C 11,6 C 29,0 km/h (5 Bft) 98,00 %
26.09.2017 16:10 16,6 C 13,3 C 80 % 1020,8 hPa 0,0 l/m 16,5 km/h (3 Bft) O-NO 73 2 min 0,000 mm 0,8 UV-I 291 W/m 13,1 C 12,7 C 25,7 km/h (4 Bft) 98,11 %
26.09.2017 16:12 16,6 C 13,3 C 80 % 1020,8 hPa 0,0 l/m 17,7 km/h (3 Bft) O-NO 61 0 min 0,000 mm 0,8 UV-I 203 W/m 13,1 C 12,4 C 25,7 km/h (4 Bft) 96,30 %
26.09.2017 16:14 16,6 C 13,3 C 79 % 1020,8 hPa 0,0 l/m 18,8 km/h (3 Bft) NO 43 0 min 0,000 mm 0,8 UV-I 204 W/m 12,9 C 12,1 C 25,7 km/h (4 Bft) 98,44 %
26.09.2017 16:16 16,6 C 13,3 C 79 % 1020,8 hPa 0,0 l/m 20,9 km/h (4 Bft) O 82 0 min 0,000 mm 0,7 UV-I 181 W/m 12,9 C 11,6 C 27,4 km/h (4 Bft) 98,11 %
26.09.2017 16:18 16,4 C 13,3 C 80 % 1020,8 hPa 0,0 l/m 17,7 km/h (3 Bft) O 83 0 min 0,000 mm 0,7 UV-I 170 W/m 12,9 C 12,1 C 24,1 km/h (4 Bft) 97,56 %
26.09.2017 16:20 16,4 C 13,3 C 80 % 1020,8 hPa 0,0 l/m 19,1 km/h (3 Bft) O-NO 76 0 min 0,000 mm 0,7 UV-I 162 W/m 12,9 C 11,8 C 30,6 km/h (5 Bft) 97,78 %
26.09.2017 16:22 16,4 C 13,3 C 80 % 1020,8 hPa 0,0 l/m 18,1 km/h (3 Bft) NO 52 0 min 0,000 mm 0,7 UV-I 161 W/m 12,9 C 12,0 C 25,7 km/h (4 Bft) 98,00 %
26.09.2017 16:24 16,4 C 13,3 C 80 % 1020,8 hPa 0,0 l/m 19,5 km/h (3 Bft) O-NO 71 0 min 0,000 mm 0,7 UV-I 158 W/m 12,9 C 11,7 C 27,4 km/h (4 Bft) 96,00 %
26.09.2017 16:26 16,4 C 13,3 C 80 % 1020,8 hPa 0,0 l/m 20,2 km/h (4 Bft) NO 38 0 min 0,000 mm 0,6 UV-I 157 W/m 12,9 C 11,5 C 27,4 km/h (4 Bft) 97,87 %
26.09.2017 16:28 16,4 C 13,3 C 81 % 1020,8 hPa 0,0 l/m 13,2 km/h (3 Bft) O-NO 71 0 min 0,000 mm 0,6 UV-I 158 W/m 13,1 C 13,5 C 20,9 km/h (4 Bft) 97,37 %
26.09.2017 16:30 16,3 C 13,3 C 81 % 1020,7 hPa 0,0 l/m 14,8 km/h (3 Bft) NO 51 0 min 0,000 mm 0,6 UV-I 156 W/m 13,0 C 12,8 C 22,5 km/h (4 Bft) 100,00 %
26.09.2017 16:32 16,3 C 13,3 C 81 % 1020,7 hPa 0,0 l/m 19,5 km/h (3 Bft) O-NO 71 0 min 0,000 mm 0,6 UV-I 154 W/m 13,0 C 11,5 C 25,7 km/h (4 Bft) 100,00 %
26.09.2017 16:34 16,3 C 13,3 C 80 % 1020,7 hPa 0,0 l/m 20,6 km/h (4 Bft) O-NO 70 0 min 0,000 mm 0,6 UV-I 149 W/m 12,8 C 11,3 C 29,0 km/h (5 Bft) 100,00 %
26.09.2017 16:36 16,3 C 13,3 C 81 % 1020,7 hPa 0,0 l/m 18,7 km/h (3 Bft) O-NO 61 0 min 0,000 mm 0,6 UV-I 149 W/m 13,0 C 11,7 C 25,7 km/h (4 Bft) 100,00 %
26.09.2017 16:38 16,3 C 13,3 C 81 % 1020,7 hPa 0,0 l/m 18,6 km/h (3 Bft) O-NO 75 0 min 0,000 mm 0,6 UV-I 149 W/m 13,0 C 11,8 C 25,7 km/h (4 Bft) 100,00 %
26.09.2017 16:40 16,3 C 13,3 C 81 % 1020,7 hPa 0,0 l/m 15,6 km/h (3 Bft) O-NO 65 0 min 0,000 mm 0,5 UV-I 153 W/m 13,0 C 12,6 C 24,1 km/h (4 Bft) 98,00 %
26.09.2017 16:42 16,3 C 13,3 C 81 % 1020,7 hPa 0,0 l/m 18,7 km/h (3 Bft) NO 55 0 min 0,000 mm 0,5 UV-I 159 W/m 13,0 C 11,7 C 27,4 km/h (4 Bft) 100,00 %
26.09.2017 16:44 16,3 C 13,3 C 81 % 1020,7 hPa 0,0 l/m 17,8 km/h (3 Bft) NO 52 0 min 0,000 mm 0,5 UV-I 171 W/m 13,0 C 12,0 C 27,4 km/h (4 Bft) 100,00 %
26.09.2017 16:46 16,3 C 13,3 C 81 % 1020,7 hPa 0,0 l/m 19,6 km/h (3 Bft) O-NO 67 0 min 0,000 mm 0,5 UV-I 148 W/m 13,0 C 11,5 C 25,7 km/h (4 Bft) 98,11 %
26.09.2017 16:48 16,3 C 13,3 C 81 % 1020,7 hPa 0,0 l/m 19,1 km/h (3 Bft) O-NO 65 0 min 0,000 mm 0,5 UV-I 143 W/m 13,0 C 11,6 C 25,7 km/h (4 Bft) 97,56 %
26.09.2017 16:50 16,3 C 13,3 C 81 % 1020,7 hPa 0,0 l/m 13,6 km/h (3 Bft) O-NO 75 0 min 0,000 mm 0,5 UV-I 150 W/m 13,0 C 13,2 C 20,9 km/h (4 Bft) 98,11 %
26.09.2017 16:52 16,3 C 13,3 C 81 % 1020,7 hPa 0,0 l/m 12,5 km/h (3 Bft) NO 51 0 min 0,000 mm 0,5 UV-I 153 W/m 13,0 C 13,6 C 17,7 km/h (3 Bft) 94,29 %
26.09.2017 16:54 16,4 C 13,3 C 82 % 1020,7 hPa 0,0 l/m 16,0 km/h (3 Bft) O 85 2 min 0,000 mm 0,5 UV-I 198 W/m 13,3 C 12,6 C 29,0 km/h (5 Bft) 97,87 %
26.09.2017 16:56 16,4 C 13,3 C 81 % 1020,7 hPa 0,0 l/m 18,9 km/h (3 Bft) NO 42 0 min 0,000 mm 0,2 UV-I 134 W/m 13,1 C 11,8 C 25,7 km/h (4 Bft) 98,11 %
26.09.2017 16:58 16,4 C 13,3 C 81 % 1020,8 hPa 0,0 l/m 15,5 km/h (3 Bft) O-NO 73 0 min 0,000 mm 0,0 UV-I 125 W/m 13,1 C 12,7 C 19,3 km/h (3 Bft) 97,62 %
26.09.2017 17:00 16,4 C 13,3 C 81 % 1020,8 hPa 0,0 l/m 16,8 km/h (3 Bft) O-NO 59 0 min 0,000 mm 0,0 UV-I 128 W/m 13,1 C 12,4 C 25,7 km/h (4 Bft) 98,00 %
26.09.2017 17:02 16,4 C 13,3 C 81 % 1020,7 hPa 0,0 l/m 17,8 km/h (3 Bft) O-NO 67 0 min 0,152 mm 0,0 UV-I 126 W/m 13,1 C 12,1 C 27,4 km/h (4 Bft) 96,00 %
26.09.2017 17:04 16,4 C 13,3 C 81 % 1020,8 hPa 0,0 l/m 18,5 km/h (3 Bft) O 85 0 min 0,000 mm 0,0 UV-I 124 W/m 13,1 C 11,9 C 22,5 km/h (4 Bft) 98,00 %
26.09.2017 17:06 16,4 C 13,3 C 81 % 1020,7 hPa 0,0 l/m 19,0 km/h (3 Bft) O-NO 69 0 min 0,000 mm 0,0 UV-I 119 W/m 13,1 C 11,8 C 24,1 km/h (4 Bft) 95,74 %
26.09.2017 17:08 16,3 C 13,3 C 81 % 1020,7 hPa 0,0 l/m 17,6 km/h (3 Bft) O-NO 74 0 min 0,000 mm 0,0 UV-I 116 W/m 13,0 C 12,0 C 22,5 km/h (4 Bft) 95,74 %
26.09.2017 17:10 16,3 C 13,3 C 81 % 1020,7 hPa 0,0 l/m 19,3 km/h (3 Bft) N-NO 31 0 min 0,000 mm 0,0 UV-I 113 W/m 13,0 C 11,6 C 27,4 km/h (4 Bft) 97,87 %
26.09.2017 17:12 16,3 C 13,3 C 81 % 1020,7 hPa 0,0 l/m 18,5 km/h (3 Bft) O-NO 70 0 min 0,000 mm 0,0 UV-I 108 W/m 13,0 C 11,8 C 25,7 km/h (4 Bft) 97,56 %
26.09.2017 17:14 16,3 C 13,3 C 80 % 1020,7 hPa 0,0 l/m 21,9 km/h (4 Bft) O 92 0 min 0,000 mm 0,0 UV-I 103 W/m 12,8 C 11,0 C 29,0 km/h (5 Bft) 96,00 %
26.09.2017 17:16 16,3 C 13,3 C 81 % 1020,7 hPa 0,0 l/m 16,9 km/h (3 Bft) O 86 0 min 0,000 mm 0,0 UV-I 96 W/m 13,0 C 12,2 C 27,4 km/h (4 Bft) 97,73 %
26.09.2017 17:18 16,3 C 13,3 C 81 % 1020,8 hPa 0,0 l/m 18,3 km/h (3 Bft) O-NO 67 0 min 0,000 mm 0,0 UV-I 88 W/m 13,0 C 11,8 C 25,7 km/h (4 Bft) 97,56 %
26.09.2017 17:20 16,2 C 13,3 C 81 % 1020,8 hPa 0,0 l/m 18,4 km/h (3 Bft) O-NO 78 0 min 0,000 mm 0,0 UV-I 81 W/m 12,9 C 11,7 C 25,7 km/h (4 Bft) 98,11 %
26.09.2017 17:22 16,2 C 13,3 C 81 % 1020,8 hPa 0,0 l/m 17,3 km/h (3 Bft) O 81 0 min 0,000 mm 0,0 UV-I 77 W/m 12,9 C 12,0 C 24,1 km/h (4 Bft) 97,56 %
26.09.2017 17:24 16,1 C 13,3 C 81 % 1020,8 hPa 0,0 l/m 14,7 km/h (3 Bft) NO 41 0 min 0,000 mm 0,0 UV-I 73 W/m 12,8 C 12,6 C 19,3 km/h (3 Bft) 100,00 %
26.09.2017 17:26 16,1 C 13,3 C 82 % 1020,8 hPa 0,0 l/m 15,1 km/h (3 Bft) O-NO 78 0 min 0,000 mm 0,0 UV-I 70 W/m 13,0 C 12,5 C 24,1 km/h (4 Bft) 100,00 %
26.09.2017 17:28 16,0 C 13,3 C 82 % 1020,8 hPa 0,0 l/m 17,2 km/h (3 Bft) O-NO 68 0 min 0,000 mm 0,0 UV-I 68 W/m 12,9 C 11,8 C 24,1 km/h (4 Bft) 100,00 %
26.09.2017 17:30 15,9 C 13,3 C 82 % 1020,8 hPa 0,0 l/m 18,9 km/h (3 Bft) O-NO 77 0 min 0,000 mm 0,0 UV-I 67 W/m 12,8 C 11,2 C 24,1 km/h (4 Bft) 100,00 %
26.09.2017 17:32 15,9 C 13,3 C 82 % 1020,8 hPa 0,0 l/m 15,4 km/h (3 Bft) NO 42 0 min 0,000 mm 0,0 UV-I 68 W/m 12,8 C 12,2 C 25,7 km/h (4 Bft) 100,00 %
26.09.2017 17:34 15,9 C 13,3 C 83 % 1020,8 hPa 0,0 l/m 12,4 km/h (3 Bft) O-NO 67 0 min 0,000 mm 0,0 UV-I 70 W/m 13,0 C 13,2 C 19,3 km/h (3 Bft) 100,00 %
26.09.2017 17:36 15,8 C 13,3 C 83 % 1020,8 hPa 0,0 l/m 14,7 km/h (3 Bft) O 79 0 min 0,000 mm 0,0 UV-I 69 W/m 12,9 C 12,3 C 22,5 km/h (4 Bft) 100,00 %
26.09.2017 17:38 15,8 C 13,3 C 83 % 1020,8 hPa 0,0 l/m 11,0 km/h (2 Bft) NO 37 0 min 0,000 mm 0,0 UV-I 67 W/m 12,9 C 13,6 C 17,7 km/h (3 Bft) 97,44 %
26.09.2017 17:40 15,8 C 13,3 C 84 % 1020,8 hPa 0,0 l/m 11,1 km/h (2 Bft) O-NO 67 0 min 0,000 mm 0,0 UV-I 63 W/m 13,1 C 13,5 C 22,5 km/h (4 Bft) 100,00 %
26.09.2017 17:42 15,8 C 13,3 C 84 % 1020,8 hPa 0,0 l/m 16,3 km/h (3 Bft) NO 39 0 min 0,000 mm 0,0 UV-I 59 W/m 13,1 C 11,8 C 24,1 km/h (4 Bft) 100,00 %
26.09.2017 17:44 15,8 C 13,3 C 83 % 1020,8 hPa 0,0 l/m 15,3 km/h (3 Bft) O-NO 63 0 min 0,000 mm 0,0 UV-I 58 W/m 12,9 C 12,1 C 22,5 km/h (4 Bft) 98,11 %
26.09.2017 17:46 15,8 C 13,3 C 83 % 1020,8 hPa 0,0 l/m 15,7 km/h (3 Bft) O-NO 69 0 min 0,000 mm 0,0 UV-I 54 W/m 12,9 C 11,9 C 24,1 km/h (4 Bft) 100,00 %
26.09.2017 17:48 15,8 C 13,3 C 83 % 1020,8 hPa 0,0 l/m 13,3 km/h (3 Bft) NO 55 0 min 0,000 mm 0,0 UV-I 49 W/m 12,9 C 12,7 C 20,9 km/h (4 Bft) 100,00 %
26.09.2017 17:50 15,8 C 13,3 C 84 % 1020,8 hPa 0,0 l/m 12,2 km/h (2 Bft) O-NO 58 0 min 0,000 mm 0,0 UV-I 47 W/m 13,1 C 13,1 C 17,7 km/h (3 Bft) 100,00 %
26.09.2017 17:52 15,7 C 13,3 C 84 % 1020,8 hPa 0,0 l/m 11,9 km/h (2 Bft) O 82 0 min 0,000 mm 0,0 UV-I 45 W/m 13,0 C 13,1 C 16,1 km/h (3 Bft) 98,00 %
26.09.2017 17:54 15,7 C 13,3 C 84 % 1020,8 hPa 0,0 l/m 11,0 km/h (2 Bft) O-NO 57 0 min 0,000 mm 0,0 UV-I 43 W/m 13,0 C 13,5 C 17,7 km/h (3 Bft) 100,00 %
26.09.2017 17:56 15,7 C 13,3 C 84 % 1020,8 hPa 0,0 l/m 15,1 km/h (3 Bft) O-NO 74 0 min 0,000 mm 0,0 UV-I 42 W/m 13,0 C 12,0 C 20,9 km/h (4 Bft) 100,00 %
26.09.2017 17:58 15,7 C 13,3 C 84 % 1020,7 hPa 0,0 l/m 14,4 km/h (3 Bft) O-NO 60 0 min 0,000 mm 0,0 UV-I 42 W/m 13,0 C 12,2 C 19,3 km/h (3 Bft) 100,00 %
26.09.2017 18:00 15,7 C 13,3 C 84 % 1020,8 hPa 0,0 l/m 13,0 km/h (3 Bft) O-NO 72 0 min 0,000 mm 0,0 UV-I 42 W/m 13,0 C 12,7 C 19,3 km/h (3 Bft) 100,00 %
26.09.2017 18:02 15,7 C 13,3 C 84 % 1020,8 hPa 0,0 l/m 10,3 km/h (2 Bft) O-NO 63 0 min 0,077 mm 0,0 UV-I 44 W/m 13,0 C 13,8 C 16,1 km/h (3 Bft) 100,00 %
26.09.2017 18:04 15,6 C 13,3 C 85 % 1020,8 hPa 0,0 l/m 9,7 km/h (2 Bft) O-NO 59 0 min 0,000 mm 0,0 UV-I 46 W/m 13,1 C 13,9 C 17,7 km/h (3 Bft) 100,00 %
26.09.2017 18:06 15,6 C 13,3 C 85 % 1020,8 hPa 0,0 l/m 10,0 km/h (2 Bft) NO 45 0 min 0,000 mm 0,0 UV-I 49 W/m 13,1 C 13,8 C 14,5 km/h (3 Bft) 100,00 %
26.09.2017 18:08 15,6 C 13,3 C 85 % 1020,8 hPa 0,0 l/m 10,3 km/h (2 Bft) O-NO 67 0 min 0,000 mm 0,0 UV-I 53 W/m 13,1 C 13,7 C 16,1 km/h (3 Bft) 100,00 %
26.09.2017 18:10 15,6 C 13,3 C 85 % 1020,8 hPa 0,0 l/m 12,7 km/h (3 Bft) O-NO 66 2 min 0,000 mm 0,0 UV-I 63 W/m 13,1 C 12,7 C 19,3 km/h (3 Bft) 100,00 %
26.09.2017 18:12 15,7 C 13,3 C 85 % 1020,8 hPa 0,0 l/m 11,1 km/h (2 Bft) O 84 2 min 0,000 mm 0,0 UV-I 58 W/m 13,2 C 13,4 C 19,3 km/h (3 Bft) 98,11 %
26.09.2017 18:14 15,7 C 13,3 C 85 % 1020,8 hPa 0,0 l/m 15,6 km/h (3 Bft) O 82 2 min 0,000 mm 0,0 UV-I 57 W/m 13,2 C 11,9 C 27,4 km/h (4 Bft) 100,00 %
26.09.2017 18:16 15,7 C 13,3 C 84 % 1020,8 hPa 0,0 l/m 15,8 km/h (3 Bft) O-NO 68 2 min 0,000 mm 0,0 UV-I 61 W/m 13,0 C 11,8 C 19,3 km/h (3 Bft) 100,00 %
26.09.2017 18:18 15,7 C 13,3 C 85 % 1020,8 hPa 0,0 l/m 11,5 km/h (2 Bft) NO 55 2 min 0,000 mm 0,0 UV-I 62 W/m 13,2 C 13,3 C 16,1 km/h (3 Bft) 100,00 %
26.09.2017 18:20 15,7 C 13,3 C 84 % 1020,8 hPa 0,0 l/m 16,1 km/h (3 Bft) O 91 2 min 0,000 mm 0,0 UV-I 52 W/m 13,0 C 11,7 C 22,5 km/h (4 Bft) 100,00 %
26.09.2017 18:22 15,7 C 13,3 C 84 % 1020,8 hPa 0,0 l/m 13,0 km/h (3 Bft) O-SO 106 2 min 0,000 mm 0,0 UV-I 46 W/m 13,0 C 12,7 C 19,3 km/h (3 Bft) 100,00 %
26.09.2017 18:24 15,8 C 13,3 C 84 % 1020,8 hPa 0,0 l/m 15,7 km/h (3 Bft) O-NO 61 2 min 0,000 mm 0,0 UV-I 42 W/m 13,1 C 11,9 C 20,9 km/h (4 Bft) 100,00 %
26.09.2017 18:26 15,8 C 13,3 C 84 % 1020,8 hPa 0,0 l/m 15,9 km/h (3 Bft) O-NO 64 2 min 0,000 mm 0,0 UV-I 36 W/m 13,1 C 11,9 C 22,5 km/h (4 Bft) 100,00 %
26.09.2017 18:28 15,7 C 13,3 C 84 % 1020,9 hPa 0,0 l/m 14,2 km/h (3 Bft) O-NO 63 2 min 0,000 mm 0,0 UV-I 33 W/m 13,0 C 12,3 C 29,0 km/h (5 Bft) 100,00 %
26.09.2017 18:30 15,7 C 13,3 C 84 % 1020,9 hPa 0,0 l/m 15,6 km/h (3 Bft) O 84 2 min 0,000 mm 0,0 UV-I 31 W/m 13,0 C 11,9 C 25,7 km/h (4 Bft) 100,00 %
26.09.2017 18:33 15,7 C 13,3 C 84 % 1020,8 hPa 0,0 l/m 17,7 km/h (3 Bft) O 90 3 min 0,000 mm 0,0 UV-I 27 W/m 13,0 C 11,2 C 24,1 km/h (4 Bft) 98,68 %
26.09.2017 18:34 15,7 C 13,3 C 84 % 1020,8 hPa 0,0 l/m 11,9 km/h (2 Bft) O 86 1 min 0,000 mm 0,0 UV-I 26 W/m 13,0 C 13,1 C 16,1 km/h (3 Bft) 100,00 %
26.09.2017 18:36 15,7 C 13,3 C 84 % 1020,9 hPa 0,0 l/m 13,5 km/h (3 Bft) O-NO 72 2 min 0,000 mm 0,0 UV-I 25 W/m 13,0 C 12,5 C 22,5 km/h (4 Bft) 100,00 %
26.09.2017 18:38 15,7 C 13,3 C 84 % 1020,9 hPa 0,0 l/m 15,3 km/h (3 Bft) O-NO 65 2 min 0,000 mm 0,0 UV-I 25 W/m 13,0 C 11,9 C 22,5 km/h (4 Bft) 98,11 %
26.09.2017 18:40 15,6 C 13,3 C 84 % 1020,9 hPa 0,0 l/m 16,4 km/h (3 Bft) O-NO 66 2 min 0,000 mm 0,0 UV-I 23 W/m 12,9 C 11,5 C 24,1 km/h (4 Bft) 100,00 %
26.09.2017 18:42 15,6 C 13,3 C 84 % 1021,0 hPa 0,0 l/m 15,4 km/h (3 Bft) NO 56 2 min 0,000 mm 0,0 UV-I 21 W/m 12,9 C 11,8 C 20,9 km/h (4 Bft) 96,43 %
26.09.2017 18:44 15,6 C 13,3 C 84 % 1021,0 hPa 0,0 l/m 13,4 km/h (3 Bft) O-NO 74 0 min 0,000 mm 0,0 UV-I 19 W/m 12,9 C 12,5 C 17,7 km/h (3 Bft) 97,56 %
26.09.2017 18:46 15,6 C 13,3 C 84 % 1021,0 hPa 0,0 l/m 16,3 km/h (3 Bft) O 101 0 min 0,000 mm 0,0 UV-I 16 W/m 12,9 C 11,5 C 27,4 km/h (4 Bft) 96,43 %
26.09.2017 18:48 15,6 C 13,3 C 84 % 1021,0 hPa 0,0 l/m 15,8 km/h (3 Bft) O-NO 62 0 min 0,000 mm 0,0 UV-I 13 W/m 12,9 C 11,7 C 24,1 km/h (4 Bft) 95,74 %
26.09.2017 18:50 15,6 C 13,3 C 84 % 1021,0 hPa 0,0 l/m 17,1 km/h (3 Bft) O-NO 69 0 min 0,000 mm 0,0 UV-I 12 W/m 12,9 C 11,3 C 24,1 km/h (4 Bft) 97,37 %
26.09.2017 18:53 15,5 C 13,3 C 84 % 1021,0 hPa 0,0 l/m 13,7 km/h (3 Bft) NO 53 0 min 0,000 mm 0,0 UV-I 11 W/m 12,8 C 12,2 C 20,9 km/h (4 Bft) 97,59 %
26.09.2017 18:54 15,4 C 13,3 C 84 % 1021,0 hPa 0,0 l/m 16,3 km/h (3 Bft) O-NO 74 0 min 0,000 mm 0,0 UV-I 9 W/m 12,7 C 11,3 C 19,3 km/h (3 Bft) 100,00 %
26.09.2017 18:56 15,4 C 13,3 C 84 % 1021,0 hPa 0,0 l/m 13,9 km/h (3 Bft) O-NO 62 0 min 0,000 mm 0,0 UV-I 8 W/m 12,7 C 12,0 C 17,7 km/h (3 Bft) 98,11 %
26.09.2017 18:58 15,4 C 13,3 C 84 % 1021,0 hPa 0,0 l/m 16,2 km/h (3 Bft) O-NO 67 0 min 0,000 mm 0,0 UV-I 7 W/m 12,7 C 11,3 C 22,5 km/h (4 Bft) 97,62 %
26.09.2017 19:00 15,4 C 13,3 C 84 % 1021,0 hPa 0,0 l/m 15,8 km/h (3 Bft) O-NO 72 0 min 0,000 mm 0,0 UV-I 5 W/m 12,7 C 11,4 C 22,5 km/h (4 Bft) 97,56 %
26.09.2017 19:02 15,3 C 13,3 C 83 % 1021,0 hPa 0,0 l/m 15,2 km/h (3 Bft) O-NO 73 0 min 0,050 mm 0,0 UV-I 5 W/m 12,4 C 11,5 C 24,1 km/h (4 Bft) 98,00 %
26.09.2017 19:04 15,3 C 13,3 C 83 % 1021,0 hPa 0,0 l/m 16,9 km/h (3 Bft) O-NO 59 0 min 0,000 mm 0,0 UV-I 5 W/m 12,4 C 11,0 C 22,5 km/h (4 Bft) 93,62 %
26.09.2017 19:06 15,3 C 13,3 C 83 % 1021,0 hPa 0,0 l/m 19,4 km/h (3 Bft) O-NO 69 0 min 0,000 mm 0,0 UV-I 5 W/m 12,4 C 10,3 C 25,7 km/h (4 Bft) 95,74 %
26.09.2017 19:08 15,3 C 13,3 C 83 % 1021,1 hPa 0,0 l/m 18,4 km/h (3 Bft) O 79 0 min 0,000 mm 0,0 UV-I 1 W/m 12,4 C 10,6 C 29,0 km/h (5 Bft) 98,00 %
26.09.2017 19:10 15,3 C 13,3 C 83 % 1021,1 hPa 0,0 l/m 18,5 km/h (3 Bft) O-NO 73 0 min 0,000 mm 0,0 UV-I 0 W/m 12,4 C 10,5 C 29,0 km/h (5 Bft) 97,37 %
26.09.2017 19:12 15,3 C 13,3 C 83 % 1021,1 hPa 0,0 l/m 17,9 km/h (3 Bft) NO 54 0 min 0,000 mm 0,0 UV-I 0 W/m 12,4 C 10,7 C 24,1 km/h (4 Bft) 95,12 %
26.09.2017 19:14 15,3 C 13,3 C 83 % 1021,1 hPa 0,0 l/m 17,4 km/h (3 Bft) O 81 0 min 0,000 mm 0,0 UV-I 0 W/m 12,4 C 10,8 C 29,0 km/h (5 Bft) 96,43 %
26.09.2017 19:16 15,3 C 13,3 C 83 % 1021,1 hPa 0,0 l/m 13,8 km/h (3 Bft) O 94 0 min 0,000 mm 0,0 UV-I 0 W/m 12,4 C 12,0 C 22,5 km/h (4 Bft) 98,00 %
26.09.2017 19:18 15,3 C 13,3 C 83 % 1021,1 hPa 0,0 l/m 18,7 km/h (3 Bft) O 91 0 min 0,000 mm 0,0 UV-I 0 W/m 12,4 C 10,5 C 25,7 km/h (4 Bft) 100,00 %
26.09.2017 19:20 15,2 C 13,3 C 83 % 1021,1 hPa 0,0 l/m 17,4 km/h (3 Bft) NO 48 0 min 0,000 mm 0,0 UV-I 0 W/m 12,3 C 10,7 C 29,0 km/h (5 Bft) 97,37 %
26.09.2017 19:22 15,2 C 13,3 C 83 % 1021,1 hPa 0,0 l/m 18,8 km/h (3 Bft) NO 56 0 min 0,000 mm 0,0 UV-I 0 W/m 12,3 C 10,3 C 25,7 km/h (4 Bft) 98,00 %
26.09.2017 19:24 15,2 C 13,3 C 83 % 1021,2 hPa 0,0 l/m 14,8 km/h (3 Bft) O-NO 78 0 min 0,000 mm 0,0 UV-I 0 W/m 12,3 C 11,5 C 20,9 km/h (4 Bft) 96,30 %
26.09.2017 19:26 15,2 C 13,3 C 83 % 1021,2 hPa 0,0 l/m 14,1 km/h (3 Bft) O-NO 69 0 min 0,000 mm 0,0 UV-I 0 W/m 12,3 C 11,7 C 22,5 km/h (4 Bft) 100,00 %
26.09.2017 19:28 15,1 C 13,3 C 84 % 1021,2 hPa 0,0 l/m 16,6 km/h (3 Bft) NO 50 0 min 0,000 mm 0,0 UV-I 0 W/m 12,4 C 10,8 C 22,5 km/h (4 Bft) 100,00 %
26.09.2017 19:30 15,1 C 13,3 C 84 % 1021,2 hPa 0,0 l/m 13,3 km/h (3 Bft) O-NO 65 0 min 0,000 mm 0,0 UV-I 0 W/m 12,4 C 11,9 C 19,3 km/h (3 Bft) 100,00 %
26.09.2017 19:32 15,1 C 13,3 C 84 % 1021,3 hPa 0,0 l/m 16,9 km/h (3 Bft) O-NO 66 0 min 0,000 mm 0,0 UV-I 0 W/m 12,4 C 10,7 C 25,7 km/h (4 Bft) 97,73 %
26.09.2017 19:34 15,1 C 13,3 C 84 % 1021,3 hPa 0,0 l/m 15,3 km/h (3 Bft) O-NO 65 0 min 0,000 mm 0,0 UV-I 0 W/m 12,4 C 11,2 C 22,5 km/h (4 Bft) 97,62 %
26.09.2017 19:36 15,1 C 13,3 C 84 % 1021,3 hPa 0,0 l/m 18,4 km/h (3 Bft) O 93 0 min 0,000 mm 0,0 UV-I 0 W/m 12,4 C 10,3 C 25,7 km/h (4 Bft) 92,00 %
26.09.2017 19:38 15,1 C 13,3 C 84 % 1021,3 hPa 0,0 l/m 16,8 km/h (3 Bft) O-NO 61 0 min 0,000 mm 0,0 UV-I 0 W/m 12,4 C 10,8 C 27,4 km/h (4 Bft) 97,56 %
26.09.2017 19:40 15,1 C 13,3 C 84 % 1021,4 hPa 0,0 l/m 17,6 km/h (3 Bft) O 93 0 min 0,000 mm 0,0 UV-I 0 W/m 12,4 C 10,5 C 24,1 km/h (4 Bft) 98,00 %
26.09.2017 19:42 15,1 C 13,3 C 84 % 1021,3 hPa 0,0 l/m 15,2 km/h (3 Bft) O-NO 69 0 min 0,000 mm 0,0 UV-I 0 W/m 12,4 C 11,2 C 25,7 km/h (4 Bft) 98,11 %
26.09.2017 19:44 15,0 C 13,3 C 84 % 1021,4 hPa 0,0 l/m 18,4 km/h (3 Bft) O 86 0 min 0,000 mm 0,0 UV-I 0 W/m 12,3 C 10,2 C 24,1 km/h (4 Bft) 97,37 %
26.09.2017 19:46 15,0 C 13,3 C 84 % 1021,3 hPa 0,0 l/m 14,6 km/h (3 Bft) O-NO 69 0 min 0,000 mm 0,0 UV-I 0 W/m 12,3 C 11,3 C 22,5 km/h (4 Bft) 98,11 %
26.09.2017 19:48 15,0 C 13,3 C 84 % 1021,4 hPa 0,0 l/m 15,9 km/h (3 Bft) O-NO 61 0 min 0,000 mm 0,0 UV-I 0 W/m 12,3 C 10,9 C 22,5 km/h (4 Bft) 94,74 %
26.09.2017 19:50 14,9 C 13,3 C 84 % 1021,4 hPa 0,0 l/m 17,7 km/h (3 Bft) O-NO 65 0 min 0,000 mm 0,0 UV-I 0 W/m 12,2 C 10,2 C 24,1 km/h (4 Bft) 98,11 %
26.09.2017 19:52 14,9 C 13,3 C 85 % 1021,4 hPa 0,0 l/m 16,3 km/h (3 Bft) NO 40 0 min 0,000 mm 0,0 UV-I 0 W/m 12,4 C 10,7 C 22,5 km/h (4 Bft) 98,11 %
26.09.2017 19:54 14,9 C 13,3 C 85 % 1021,4 hPa 0,0 l/m 17,3 km/h (3 Bft) O-NO 59 0 min 0,000 mm 0,0 UV-I 0 W/m 12,4 C 10,4 C 24,1 km/h (4 Bft) 95,12 %
26.09.2017 19:56 14,9 C 13,3 C 85 % 1021,4 hPa 0,0 l/m 15,8 km/h (3 Bft) NO 53 0 min 0,000 mm 0,0 UV-I 0 W/m 12,4 C 10,8 C 22,5 km/h (4 Bft) 96,23 %
26.09.2017 19:58 14,9 C 13,3 C 85 % 1021,4 hPa 0,0 l/m 15,2 km/h (3 Bft) O-NO 74 0 min 0,000 mm 0,0 UV-I 0 W/m 12,4 C 11,0 C 20,9 km/h (4 Bft) 97,73 %
26.09.2017 20:00 14,8 C 13,3 C 85 % 1021,4 hPa 0,0 l/m 12,7 km/h (3 Bft) O-NO 71 0 min 0,000 mm 0,0 UV-I 0 W/m 12,3 C 11,8 C 22,5 km/h (4 Bft) 97,37 %
26.09.2017 20:02 14,8 C 13,3 C 85 % 1021,4 hPa 0,0 l/m 14,2 km/h (3 Bft) O 84 0 min 0,026 mm 0,0 UV-I 0 W/m 12,3 C 11,2 C 19,3 km/h (3 Bft) 96,23 %
26.09.2017 20:04 14,8 C 13,3 C 85 % 1021,4 hPa 0,0 l/m 13,8 km/h (3 Bft) O-NO 68 0 min 0,000 mm 0,0 UV-I 0 W/m 12,3 C 11,4 C 22,5 km/h (4 Bft) 97,56 %
26.09.2017 20:06 14,8 C 13,3 C 86 % 1021,5 hPa 0,0 l/m 15,8 km/h (3 Bft) NO 50 0 min 0,000 mm 0,0 UV-I 0 W/m 12,5 C 10,7 C 24,1 km/h (4 Bft) 97,87 %
26.09.2017 20:08 14,8 C 13,3 C 86 % 1021,5 hPa 0,0 l/m 14,4 km/h (3 Bft) O-NO 64 0 min 0,000 mm 0,0 UV-I 0 W/m 12,5 C 11,2 C 22,5 km/h (4 Bft) 96,23 %
26.09.2017 20:10 14,7 C 13,3 C 86 % 1021,5 hPa 0,0 l/m 18,3 km/h (3 Bft) O-NO 59 0 min 0,000 mm 0,0 UV-I 0 W/m 12,4 C 9,8 C 25,7 km/h (4 Bft) 95,45 %
26.09.2017 20:12 14,8 C 13,3 C 86 % 1021,5 hPa 0,0 l/m 16,2 km/h (3 Bft) O-NO 71 0 min 0,000 mm 0,0 UV-I 0 W/m 12,5 C 10,6 C 24,1 km/h (4 Bft) 97,62 %
26.09.2017 20:14 14,8 C 13,3 C 86 % 1021,5 hPa 0,0 l/m 16,7 km/h (3 Bft) O-NO 71 0 min 0,000 mm 0,0 UV-I 0 W/m 12,5 C 10,4 C 24,1 km/h (4 Bft) 98,18 %
26.09.2017 20:16 14,8 C 13,3 C 86 % 1021,5 hPa 0,0 l/m 15,3 km/h (3 Bft) O-NO 67 0 min 0,000 mm 0,0 UV-I 0 W/m 12,5 C 10,9 C 22,5 km/h (4 Bft) 97,92 %
26.09.2017 20:18 14,8 C 13,3 C 86 % 1021,5 hPa 0,0 l/m 14,1 km/h (3 Bft) O-NO 59 0 min 0,000 mm 0,0 UV-I 0 W/m 12,5 C 11,3 C 24,1 km/h (4 Bft) 95,74 %
26.09.2017 20:20 14,7 C 13,3 C 86 % 1021,6 hPa 0,0 l/m 16,3 km/h (3 Bft) NO 46 0 min 0,000 mm 0,0 UV-I 0 W/m 12,4 C 10,4 C 22,5 km/h (4 Bft) 96,00 %
26.09.2017 20:22 14,7 C 13,3 C 86 % 1021,5 hPa 0,0 l/m 12,7 km/h (3 Bft) O 79 0 min 0,000 mm 0,0 UV-I 0 W/m 12,4 C 11,7 C 19,3 km/h (3 Bft) 97,37 %
26.09.2017 20:24 14,7 C 13,3 C 86 % 1021,6 hPa 0,0 l/m 17,2 km/h (3 Bft) O 83 0 min 0,000 mm 0,0 UV-I 0 W/m 12,4 C 10,1 C 24,1 km/h (4 Bft) 98,11 %
26.09.2017 20:26 14,7 C 13,3 C 86 % 1021,6 hPa 0,0 l/m 12,8 km/h (3 Bft) O-NO 75 0 min 0,000 mm 0,0 UV-I 0 W/m 12,4 C 11,6 C 19,3 km/h (3 Bft) 98,00 %
26.09.2017 20:28 14,7 C 13,3 C 86 % 1021,6 hPa 0,0 l/m 14,3 km/h (3 Bft) O-NO 57 0 min 0,000 mm 0,0 UV-I 0 W/m 12,4 C 11,1 C 19,3 km/h (3 Bft) 97,56 %
26.09.2017 20:30 14,7 C 13,3 C 86 % 1021,6 hPa 0,0 l/m 13,7 km/h (3 Bft) NO 55 0 min 0,000 mm 0,0 UV-I 0 W/m 12,4 C 11,3 C 19,3 km/h (3 Bft) 96,00 %
26.09.2017 20:32 14,7 C 13,3 C 86 % 1021,6 hPa 0,0 l/m 13,6 km/h (3 Bft) O-NO 72 0 min 0,000 mm 0,0 UV-I 0 W/m 12,4 C 11,3 C 19,3 km/h (3 Bft) 97,37 %
26.09.2017 20:34 14,7 C 13,3 C 85 % 1021,6 hPa 0,0 l/m 11,4 km/h (2 Bft) O-NO 63 0 min 0,000 mm 0,0 UV-I 0 W/m 12,2 C 12,2 C 16,1 km/h (3 Bft) 98,11 %
26.09.2017 20:36 14,6 C 13,3 C 85 % 1021,6 hPa 0,0 l/m 14,0 km/h (3 Bft) NO 40 0 min 0,000 mm 0,0 UV-I 0 W/m 12,1 C 11,1 C 20,9 km/h (4 Bft) 95,74 %
26.09.2017 20:38 14,6 C 13,3 C 85 % 1021,6 hPa 0,0 l/m 15,2 km/h (3 Bft) NO 46 0 min 0,000 mm 0,0 UV-I 0 W/m 12,1 C 10,6 C 22,5 km/h (4 Bft) 97,56 %
26.09.2017 20:40 14,6 C 13,3 C 85 % 1021,6 hPa 0,0 l/m 12,6 km/h (3 Bft) NO 55 0 min 0,000 mm 0,0 UV-I 0 W/m 12,1 C 11,6 C 16,1 km/h (3 Bft) 97,56 %
26.09.2017 20:42 14,6 C 13,3 C 85 % 1021,6 hPa 0,0 l/m 16,5 km/h (3 Bft) O-NO 67 0 min 0,000 mm 0,0 UV-I 0 W/m 12,1 C 10,2 C 27,4 km/h (4 Bft) 100,00 %
26.09.2017 20:44 14,7 C 13,3 C 84 % 1021,7 hPa 0,0 l/m 18,7 km/h (3 Bft) O-NO 58 0 min 0,000 mm 0,0 UV-I 0 W/m 12,0 C 9,7 C 25,7 km/h (4 Bft) 98,11 %
26.09.2017 20:46 14,7 C 13,3 C 84 % 1021,7 hPa 0,0 l/m 17,0 km/h (3 Bft) O-NO 59 0 min 0,000 mm 0,0 UV-I 0 W/m 12,0 C 10,2 C 24,1 km/h (4 Bft) 94,00 %
26.09.2017 20:48 14,7 C 13,3 C 84 % 1021,7 hPa 0,0 l/m 17,1 km/h (3 Bft) O-NO 66 0 min 0,000 mm 0,0 UV-I 0 W/m 12,0 C 10,2 C 22,5 km/h (4 Bft) 97,37 %
26.09.2017 20:50 14,7 C 13,3 C 84 % 1021,7 hPa 0,0 l/m 19,3 km/h (3 Bft) O-NO 70 0 min 0,000 mm 0,0 UV-I 0 W/m 12,0 C 9,5 C 32,2 km/h (5 Bft) 96,00 %
26.09.2017 20:52 14,8 C 13,3 C 83 % 1021,7 hPa 0,0 l/m 16,0 km/h (3 Bft) NO 43 0 min 0,000 mm 0,0 UV-I 0 W/m 11,9 C 10,6 C 20,9 km/h (4 Bft) 98,00 %
26.09.2017 20:54 14,8 C 13,3 C 83 % 1021,7 hPa 0,0 l/m 20,2 km/h (4 Bft) O-NO 78 0 min 0,000 mm 0,0 UV-I 0 W/m 11,9 C 9,4 C 27,4 km/h (4 Bft) 97,62 %
26.09.2017 20:56 14,8 C 13,3 C 83 % 1021,7 hPa 0,0 l/m 19,2 km/h (3 Bft) O-NO 67 0 min 0,000 mm 0,0 UV-I 0 W/m 11,9 C 9,7 C 27,4 km/h (4 Bft) 98,08 %
26.09.2017 20:58 14,8 C 13,3 C 83 % 1021,7 hPa 0,0 l/m 17,7 km/h (3 Bft) O-NO 69 0 min 0,000 mm 0,0 UV-I 0 W/m 11,9 C 10,1 C 25,7 km/h (4 Bft) 97,62 %
26.09.2017 21:00 14,8 C 13,3 C 83 % 1021,8 hPa 0,0 l/m 20,4 km/h (4 Bft) O-NO 68 0 min 0,000 mm 0,0 UV-I 0 W/m 11,9 C 9,4 C 25,7 km/h (4 Bft) 97,87 %
26.09.2017 21:02 14,8 C 13,3 C 83 % 1021,9 hPa 0,0 l/m 20,3 km/h (4 Bft) O 86 0 min 0,025 mm 0,0 UV-I 0 W/m 11,9 C 9,4 C 27,4 km/h (4 Bft) 98,11 %
26.09.2017 21:04 14,8 C 13,3 C 83 % 1021,8 hPa 0,0 l/m 21,2 km/h (4 Bft) O-NO 69 0 min 0,000 mm 0,0 UV-I 0 W/m 11,9 C 9,2 C 25,7 km/h (4 Bft) 97,56 %
26.09.2017 21:06 14,8 C 13,3 C 83 % 1021,8 hPa 0,0 l/m 20,3 km/h (4 Bft) O-NO 74 0 min 0,000 mm 0,0 UV-I 0 W/m 11,9 C 9,4 C 27,4 km/h (4 Bft) 94,00 %
26.09.2017 21:08 14,8 C 13,3 C 83 % 1021,7 hPa 0,0 l/m 19,5 km/h (3 Bft) O-NO 76 0 min 0,000 mm 0,0 UV-I 0 W/m 11,9 C 9,6 C 25,7 km/h (4 Bft) 97,56 %
26.09.2017 21:10 14,8 C 13,3 C 83 % 1021,8 hPa 0,0 l/m 19,7 km/h (3 Bft) O 80 0 min 0,000 mm 0,0 UV-I 0 W/m 11,9 C 9,6 C 29,0 km/h (5 Bft) 96,23 %
26.09.2017 21:12 14,8 C 13,3 C 83 % 1021,8 hPa 0,0 l/m 15,3 km/h (3 Bft) O-NO 65 0 min 0,000 mm 0,0 UV-I 0 W/m 11,9 C 10,9 C 25,7 km/h (4 Bft) 97,73 %
26.09.2017 21:14 14,8 C 13,3 C 83 % 1021,8 hPa 0,0 l/m 16,5 km/h (3 Bft) O-NO 68 0 min 0,000 mm 0,0 UV-I 0 W/m 11,9 C 10,5 C 20,9 km/h (4 Bft) 98,11 %
26.09.2017 21:16 14,8 C 13,3 C 83 % 1021,8 hPa 0,0 l/m 14,8 km/h (3 Bft) O-NO 69 0 min 0,000 mm 0,0 UV-I 0 W/m 11,9 C 11,0 C 19,3 km/h (3 Bft) 97,37 %
26.09.2017 21:18 14,7 C 13,3 C 82 % 1021,9 hPa 0,0 l/m 16,8 km/h (3 Bft) O-NO 60 0 min 0,000 mm 0,0 UV-I 0 W/m 11,7 C 10,3 C 25,7 km/h (4 Bft) 100,00 %
26.09.2017 21:20 14,8 C 13,3 C 82 % 1021,8 hPa 0,0 l/m 17,9 km/h (3 Bft) O 90 0 min 0,000 mm 0,0 UV-I 0 W/m 11,8 C 10,1 C 25,7 km/h (4 Bft) 100,00 %
26.09.2017 21:22 14,8 C 13,3 C 82 % 1021,7 hPa 0,0 l/m 16,6 km/h (3 Bft) O-NO 72 0 min 0,000 mm 0,0 UV-I 0 W/m 11,8 C 10,4 C 25,7 km/h (4 Bft) 98,21 %
26.09.2017 21:24 14,8 C 13,3 C 82 % 1021,8 hPa 0,0 l/m 15,2 km/h (3 Bft) O-NO 63 0 min 0,000 mm 0,0 UV-I 0 W/m 11,8 C 10,9 C 22,5 km/h (4 Bft) 100,00 %
26.09.2017 21:26 14,8 C 13,3 C 82 % 1021,8 hPa 0,0 l/m 20,5 km/h (4 Bft) O-NO 74 0 min 0,000 mm 0,0 UV-I 0 W/m 11,8 C 9,4 C 27,4 km/h (4 Bft) 100,00 %
26.09.2017 21:28 14,8 C 13,3 C 82 % 1021,8 hPa 0,0 l/m 16,9 km/h (3 Bft) O 82 0 min 0,000 mm 0,0 UV-I 0 W/m 11,8 C 10,3 C 20,9 km/h (4 Bft) 100,00 %
26.09.2017 21:30 14,8 C 13,3 C 82 % 1021,8 hPa 0,0 l/m 19,6 km/h (3 Bft) O-NO 76 0 min 0,000 mm 0,0 UV-I 0 W/m 11,8 C 9,6 C 25,7 km/h (4 Bft) 100,00 %
26.09.2017 21:32 14,8 C 13,3 C 82 % 1021,8 hPa 0,0 l/m 16,8 km/h (3 Bft) O-NO 63 0 min 0,000 mm 0,0 UV-I 0 W/m 11,8 C 10,4 C 22,5 km/h (4 Bft) 100,00 %
26.09.2017 21:34 14,8 C 13,3 C 82 % 1021,9 hPa 0,0 l/m 15,2 km/h (3 Bft) O-NO 69 0 min 0,000 mm 0,0 UV-I 0 W/m 11,8 C 10,9 C 20,9 km/h (4 Bft) 100,00 %
26.09.2017 21:36 14,7 C 13,3 C 82 % 1021,9 hPa 0,0 l/m 17,5 km/h (3 Bft) O 90 0 min 0,000 mm 0,0 UV-I 0 W/m 11,7 C 10,0 C 20,9 km/h (4 Bft) 100,00 %
26.09.2017 21:38 14,7 C 13,3 C 82 % 1021,9 hPa 0,0 l/m 17,8 km/h (3 Bft) NO 49 0 min 0,000 mm 0,0 UV-I 0 W/m 11,7 C 10,0 C 25,7 km/h (4 Bft) 97,87 %
26.09.2017 21:40 14,7 C 13,3 C 82 % 1021,9 hPa 0,0 l/m 16,5 km/h (3 Bft) O-NO 71 0 min 0,000 mm 0,0 UV-I 0 W/m 11,7 C 10,3 C 24,1 km/h (4 Bft) 100,00 %
26.09.2017 21:42 14,8 C 13,3 C 82 % 1021,9 hPa 0,0 l/m 16,2 km/h (3 Bft) O-NO 67 0 min 0,000 mm 0,0 UV-I 0 W/m 11,8 C 10,6 C 20,9 km/h (4 Bft) 100,00 %
26.09.2017 21:44 14,8 C 13,3 C 82 % 1021,9 hPa 0,0 l/m 16,0 km/h (3 Bft) O-NO 58 0 min 0,000 mm 0,0 UV-I 0 W/m 11,8 C 10,6 C 22,5 km/h (4 Bft) 100,00 %
26.09.2017 21:46 14,8 C 13,3 C 82 % 1021,9 hPa 0,0 l/m 14,6 km/h (3 Bft) NO 55 0 min 0,000 mm 0,0 UV-I 0 W/m 11,8 C 11,1 C 19,3 km/h (3 Bft) 100,00 %
26.09.2017 21:48 14,8 C 13,3 C 82 % 1021,9 hPa 0,0 l/m 13,8 km/h (3 Bft) O-NO 58 0 min 0,000 mm 0,0 UV-I 0 W/m 11,8 C 11,4 C 22,5 km/h (4 Bft) 100,00 %
26.09.2017 21:50 14,8 C 13,3 C 82 % 1021,9 hPa 0,0 l/m 14,2 km/h (3 Bft) NO 55 0 min 0,000 mm 0,0 UV-I 0 W/m 11,8 C 11,2 C 20,9 km/h (4 Bft) 100,00 %
26.09.2017 21:52 14,7 C 13,3 C 82 % 1021,8 hPa 0,0 l/m 17,4 km/h (3 Bft) O-NO 71 0 min 0,000 mm 0,0 UV-I 0 W/m 11,7 C 10,1 C 24,1 km/h (4 Bft) 100,00 %
26.09.2017 21:54 14,8 C 13,3 C 82 % 1021,8 hPa 0,0 l/m 16,8 km/h (3 Bft) O-NO 61 0 min 0,000 mm 0,0 UV-I 0 W/m 11,8 C 10,4 C 22,5 km/h (4 Bft) 100,00 %
26.09.2017 21:56 14,7 C 13,3 C 82 % 1021,8 hPa 0,0 l/m 15,0 km/h (3 Bft) NO 49 0 min 0,000 mm 0,0 UV-I 0 W/m 11,7 C 10,8 C 24,1 km/h (4 Bft) 97,87 %
26.09.2017 21:58 14,7 C 13,3 C 82 % 1021,8 hPa 0,0 l/m 17,4 km/h (3 Bft) O-NO 64 0 min 0,000 mm 0,0 UV-I 0 W/m 11,7 C 10,1 C 24,1 km/h (4 Bft) 97,96 %
26.09.2017 22:00 14,7 C 13,3 C 82 % 1021,9 hPa 0,0 l/m 20,3 km/h (4 Bft) O-NO 61 0 min 0,000 mm 0,0 UV-I 0 W/m 11,7 C 9,3 C 27,4 km/h (4 Bft) 100,00 %
26.09.2017 22:02 14,7 C 13,3 C 82 % 1021,9 hPa 0,0 l/m 16,1 km/h (3 Bft) O-NO 67 0 min 0,051 mm 0,0 UV-I 0 W/m 11,7 C 10,5 C 22,5 km/h (4 Bft) 100,00 %
26.09.2017 22:04 14,7 C 13,3 C 82 % 1021,9 hPa 0,0 l/m 19,0 km/h (3 Bft) NO 50 0 min 0,000 mm 0,0 UV-I 0 W/m 11,7 C 9,6 C 27,4 km/h (4 Bft) 100,00 %
26.09.2017 22:06 14,7 C 13,3 C 82 % 1022,0 hPa 0,0 l/m 17,0 km/h (3 Bft) O 86 0 min 0,000 mm 0,0 UV-I 0 W/m 11,7 C 10,2 C 25,7 km/h (4 Bft) 100,00 %
26.09.2017 22:08 14,7 C 13,3 C 82 % 1021,9 hPa 0,0 l/m 19,6 km/h (3 Bft) NO 44 0 min 0,000 mm 0,0 UV-I 0 W/m 11,7 C 9,5 C 25,7 km/h (4 Bft) 97,73 %
26.09.2017 22:10 14,7 C 13,3 C 81 % 1022,0 hPa 0,0 l/m 18,7 km/h (3 Bft) O-NO 68 0 min 0,000 mm 0,0 UV-I 0 W/m 11,5 C 9,7 C 25,7 km/h (4 Bft) 100,00 %
26.09.2017 22:12 14,7 C 13,3 C 81 % 1021,9 hPa 0,0 l/m 15,6 km/h (3 Bft) O-NO 68 0 min 0,000 mm 0,0 UV-I 0 W/m 11,5 C 10,6 C 20,9 km/h (4 Bft) 100,00 %
26.09.2017 22:14 14,7 C 13,3 C 81 % 1022,0 hPa 0,0 l/m 16,3 km/h (3 Bft) O-NO 60 0 min 0,000 mm 0,0 UV-I 0 W/m 11,5 C 10,4 C 20,9 km/h (4 Bft) 97,87 %
26.09.2017 22:16 14,7 C 13,3 C 82 % 1022,0 hPa 0,0 l/m 15,7 km/h (3 Bft) O-NO 77 0 min 0,000 mm 0,0 UV-I 0 W/m 11,7 C 10,6 C 19,3 km/h (3 Bft) 100,00 %
26.09.2017 22:18 14,7 C 13,3 C 82 % 1022,0 hPa 0,0 l/m 17,3 km/h (3 Bft) O-NO 63 0 min 0,000 mm 0,0 UV-I 0 W/m 11,7 C 10,1 C 22,5 km/h (4 Bft) 100,00 %
26.09.2017 22:20 14,7 C 13,3 C 82 % 1022,0 hPa 0,0 l/m 13,4 km/h (3 Bft) NO 56 0 min 0,000 mm 0,0 UV-I 0 W/m 11,7 C 11,4 C 22,5 km/h (4 Bft) 100,00 %
26.09.2017 22:22 14,7 C 13,3 C 82 % 1022,0 hPa 0,0 l/m 14,1 km/h (3 Bft) NO 46 0 min 0,000 mm 0,0 UV-I 0 W/m 11,7 C 11,1 C 22,5 km/h (4 Bft) 100,00 %
26.09.2017 22:24 14,7 C 13,3 C 82 % 1022,1 hPa 0,0 l/m 15,2 km/h (3 Bft) O-NO 58 0 min 0,000 mm 0,0 UV-I 0 W/m 11,7 C 10,8 C 20,9 km/h (4 Bft) 100,00 %
26.09.2017 22:26 14,7 C 13,3 C 82 % 1022,0 hPa 0,0 l/m 13,0 km/h (3 Bft) O-NO 62 0 min 0,000 mm 0,0 UV-I 0 W/m 11,7 C 11,5 C 22,5 km/h (4 Bft) 100,00 %
26.09.2017 22:28 14,7 C 13,3 C 82 % 1022,0 hPa 0,0 l/m 17,3 km/h (3 Bft) NO 55 0 min 0,000 mm 0,0 UV-I 0 W/m 11,7 C 10,1 C 22,5 km/h (4 Bft) 98,11 %
26.09.2017 22:30 14,7 C 13,3 C 82 % 1022,0 hPa 0,0 l/m 16,6 km/h (3 Bft) NO 46 0 min 0,000 mm 0,0 UV-I 0 W/m 11,7 C 10,3 C 22,5 km/h (4 Bft) 97,56 %
26.09.2017 22:32 14,7 C 13,3 C 82 % 1022,0 hPa 0,0 l/m 17,1 km/h (3 Bft) NO 44 0 min 0,000 mm 0,0 UV-I 0 W/m 11,7 C 10,2 C 25,7 km/h (4 Bft) 100,00 %
26.09.2017 22:34 14,7 C 13,3 C 82 % 1022,0 hPa 0,0 l/m 17,2 km/h (3 Bft) O-NO 63 0 min 0,000 mm 0,0 UV-I 0 W/m 11,7 C 10,1 C 25,7 km/h (4 Bft) 100,00 %
26.09.2017 22:36 14,7 C 13,3 C 82 % 1022,0 hPa 0,0 l/m 17,2 km/h (3 Bft) O-NO 74 0 min 0,000 mm 0,0 UV-I 0 W/m 11,7 C 10,1 C 22,5 km/h (4 Bft) 100,00 %
26.09.2017 22:38 14,7 C 13,3 C 83 % 1022,0 hPa 0,0 l/m 16,3 km/h (3 Bft) O-NO 74 0 min 0,000 mm 0,0 UV-I 0 W/m 11,8 C 10,4 C 24,1 km/h (4 Bft) 96,00 %
26.09.2017 22:40 14,7 C 13,3 C 83 % 1022,1 hPa 0,0 l/m 15,4 km/h (3 Bft) NO 49 0 min 0,000 mm 0,0 UV-I 0 W/m 11,8 C 10,7 C 24,1 km/h (4 Bft) 96,30 %
26.09.2017 22:42 14,6 C 13,3 C 83 % 1022,1 hPa 0,0 l/m 17,0 km/h (3 Bft) O-NO 76 0 min 0,000 mm 0,0 UV-I 0 W/m 11,7 C 10,1 C 20,9 km/h (4 Bft) 98,51 %
26.09.2017 22:44 14,6 C 13,3 C 83 % 1022,1 hPa 0,0 l/m 15,3 km/h (3 Bft) O-NO 63 0 min 0,000 mm 0,0 UV-I 0 W/m 11,7 C 10,6 C 22,5 km/h (4 Bft) 97,56 %
26.09.2017 22:46 14,6 C 13,3 C 83 % 1022,1 hPa 0,0 l/m 12,4 km/h (3 Bft) O-NO 58 0 min 0,000 mm 0,0 UV-I 0 W/m 11,7 C 11,7 C 22,5 km/h (4 Bft) 98,11 %
26.09.2017 22:48 14,6 C 13,3 C 83 % 1022,0 hPa 0,0 l/m 15,1 km/h (3 Bft) O-NO 63 0 min 0,000 mm 0,0 UV-I 0 W/m 11,7 C 10,7 C 20,9 km/h (4 Bft) 96,00 %
26.09.2017 22:50 14,6 C 13,3 C 84 % 1022,1 hPa 0,0 l/m 12,1 km/h (2 Bft) O-NO 63 0 min 0,000 mm 0,0 UV-I 0 W/m 11,9 C 11,8 C 17,7 km/h (3 Bft) 100,00 %
26.09.2017 22:52 14,6 C 13,3 C 84 % 1022,1 hPa 0,0 l/m 12,1 km/h (2 Bft) NO 46 0 min 0,000 mm 0,0 UV-I 0 W/m 11,9 C 11,8 C 17,7 km/h (3 Bft) 96,15 %
26.09.2017 22:54 14,5 C 13,3 C 84 % 1022,1 hPa 0,0 l/m 11,4 km/h (2 Bft) NO 47 0 min 0,000 mm 0,0 UV-I 0 W/m 11,8 C 11,9 C 19,3 km/h (3 Bft) 97,62 %
26.09.2017 22:56 14,5 C 13,3 C 84 % 1022,1 hPa 0,0 l/m 12,7 km/h (3 Bft) O-NO 63 0 min 0,000 mm 0,0 UV-I 0 W/m 11,8 C 11,4 C 17,7 km/h (3 Bft) 98,11 %
26.09.2017 22:58 14,4 C 13,3 C 84 % 1022,1 hPa 0,0 l/m 13,3 km/h (3 Bft) O 88 0 min 0,000 mm 0,0 UV-I 0 W/m 11,7 C 11,1 C 19,3 km/h (3 Bft) 98,00 %
26.09.2017 23:00 14,4 C 13,3 C 85 % 1022,1 hPa 0,0 l/m 13,9 km/h (3 Bft) NO 53 0 min 0,000 mm 0,0 UV-I 0 W/m 11,9 C 10,9 C 19,3 km/h (3 Bft) 97,37 %
26.09.2017 23:02 14,4 C 13,3 C 85 % 1022,0 hPa 0,0 l/m 14,6 km/h (3 Bft) O-NO 70 0 min 0,025 mm 0,0 UV-I 0 W/m 11,9 C 10,6 C 20,9 km/h (4 Bft) 98,11 %
26.09.2017 23:04 14,3 C 13,3 C 85 % 1022,0 hPa 0,0 l/m 12,8 km/h (3 Bft) O-NO 61 0 min 0,000 mm 0,0 UV-I 0 W/m 11,8 C 11,1 C 19,3 km/h (3 Bft) 97,73 %
26.09.2017 23:06 14,3 C 13,3 C 85 % 1022,0 hPa 0,0 l/m 14,9 km/h (3 Bft) O-NO 70 0 min 0,000 mm 0,0 UV-I 0 W/m 11,8 C 10,4 C 20,9 km/h (4 Bft) 95,12 %
26.09.2017 23:08 14,3 C 13,3 C 85 % 1022,0 hPa 0,0 l/m 13,3 km/h (3 Bft) NO 44 0 min 0,000 mm 0,0 UV-I 0 W/m 11,8 C 11,0 C 20,9 km/h (4 Bft) 96,00 %
26.09.2017 23:10 14,3 C 13,3 C 85 % 1022,1 hPa 0,0 l/m 15,8 km/h (3 Bft) O-NO 58 0 min 0,000 mm 0,0 UV-I 0 W/m 11,8 C 10,1 C 22,5 km/h (4 Bft) 98,00 %
26.09.2017 23:12 14,3 C 13,3 C 85 % 1022,1 hPa 0,0 l/m 12,9 km/h (3 Bft) O-NO 68 0 min 0,000 mm 0,0 UV-I 0 W/m 11,8 C 11,1 C 17,7 km/h (3 Bft) 95,74 %
26.09.2017 23:14 14,3 C 13,3 C 85 % 1022,0 hPa 0,0 l/m 11,8 km/h (2 Bft) O-NO 77 0 min 0,000 mm 0,0 UV-I 0 W/m 11,8 C 11,5 C 16,1 km/h (3 Bft) 97,56 %
26.09.2017 23:16 14,2 C 13,3 C 85 % 1022,1 hPa 0,0 l/m 11,9 km/h (2 Bft) NO 49 0 min 0,000 mm 0,0 UV-I 0 W/m 11,7 C 11,4 C 19,3 km/h (3 Bft) 97,56 %
26.09.2017 23:18 14,2 C 13,3 C 85 % 1022,1 hPa 0,0 l/m 10,5 km/h (2 Bft) NO 44 0 min 0,000 mm 0,0 UV-I 0 W/m 11,7 C 12,0 C 17,7 km/h (3 Bft) 100,00 %
26.09.2017 23:20 14,1 C 13,3 C 86 % 1022,0 hPa 0,0 l/m 12,2 km/h (2 Bft) O-NO 60 0 min 0,000 mm 0,0 UV-I 0 W/m 11,8 C 11,2 C 17,7 km/h (3 Bft) 100,00 %
26.09.2017 23:22 14,1 C 13,3 C 86 % 1022,1 hPa 0,0 l/m 14,2 km/h (3 Bft) O-NO 65 0 min 0,000 mm 0,0 UV-I 0 W/m 11,8 C 10,4 C 24,1 km/h (4 Bft) 100,00 %
26.09.2017 23:24 14,1 C 13,3 C 86 % 1022,1 hPa 0,0 l/m 13,4 km/h (3 Bft) O-NO 63 0 min 0,000 mm 0,0 UV-I 0 W/m 11,8 C 10,7 C 19,3 km/h (3 Bft) 100,00 %
26.09.2017 23:26 14,1 C 13,3 C 86 % 1022,1 hPa 0,0 l/m 10,2 km/h (2 Bft) NO 47 0 min 0,000 mm 0,0 UV-I 0 W/m 11,8 C 12,0 C 17,7 km/h (3 Bft) 100,00 %
26.09.2017 23:28 14,0 C 13,3 C 86 % 1022,1 hPa 0,0 l/m 10,3 km/h (2 Bft) O 81 0 min 0,000 mm 0,0 UV-I 0 W/m 11,7 C 11,9 C 16,1 km/h (3 Bft) 100,00 %
26.09.2017 23:30 13,9 C 13,3 C 86 % 1022,1 hPa 0,0 l/m 12,1 km/h (2 Bft) O-NO 58 0 min 0,000 mm 0,0 UV-I 0 W/m 11,6 C 11,0 C 19,3 km/h (3 Bft) 100,00 %
26.09.2017 23:32 13,9 C 13,3 C 86 % 1022,1 hPa 0,0 l/m 10,0 km/h (2 Bft) NO 53 0 min 0,000 mm 0,0 UV-I 0 W/m 11,6 C 11,9 C 17,7 km/h (3 Bft) 100,00 %
26.09.2017 23:34 13,8 C 13,3 C 86 % 1022,1 hPa 0,0 l/m 8,9 km/h (2 Bft) O-NO 66 0 min 0,000 mm 0,0 UV-I 0 W/m 11,5 C 12,3 C 17,7 km/h (3 Bft) 98,21 %
26.09.2017 23:36 13,8 C 13,3 C 87 % 1022,1 hPa 0,0 l/m 10,0 km/h (2 Bft) NO 37 0 min 0,000 mm 0,0 UV-I 0 W/m 11,7 C 11,8 C 17,7 km/h (3 Bft) 98,11 %
26.09.2017 23:38 13,7 C 13,3 C 87 % 1022,1 hPa 0,0 l/m 8,1 km/h (2 Bft) O-NO 71 0 min 0,000 mm 0,0 UV-I 0 W/m 11,6 C 12,7 C 16,1 km/h (3 Bft) 97,87 %
26.09.2017 23:40 13,7 C 13,3 C 87 % 1022,1 hPa 0,0 l/m 8,4 km/h (2 Bft) O-NO 61 0 min 0,000 mm 0,0 UV-I 0 W/m 11,6 C 12,5 C 12,9 km/h (3 Bft) 97,87 %
26.09.2017 23:43 13,6 C 13,3 C 87 % 1022,1 hPa 0,0 l/m 8,9 km/h (2 Bft) O-NO 61 0 min 0,000 mm 0,0 UV-I 0 W/m 11,5 C 12,1 C 14,5 km/h (3 Bft) 95,52 %
26.09.2017 23:44 13,6 C 13,3 C 87 % 1022,1 hPa 0,0 l/m 8,8 km/h (2 Bft) NO 53 0 min 0,000 mm 0,0 UV-I 0 W/m 11,5 C 12,2 C 12,9 km/h (3 Bft) 100,00 %
26.09.2017 23:46 13,5 C 13,3 C 87 % 1022,1 hPa 0,0 l/m 11,3 km/h (2 Bft) O-NO 63 0 min 0,000 mm 0,0 UV-I 0 W/m 11,4 C 10,9 C 17,7 km/h (3 Bft) 97,56 %
26.09.2017 23:48 13,5 C 13,3 C 87 % 1022,1 hPa 0,0 l/m 10,9 km/h (2 Bft) O 82 0 min 0,000 mm 0,0 UV-I 0 W/m 11,4 C 11,0 C 16,1 km/h (3 Bft) 98,11 %
26.09.2017 23:50 13,5 C 13,3 C 87 % 1022,0 hPa 0,0 l/m 10,4 km/h (2 Bft) NO 56 0 min 0,000 mm 0,0 UV-I 0 W/m 11,4 C 11,3 C 17,7 km/h (3 Bft) 97,73 %
26.09.2017 23:52 13,4 C 13,3 C 87 % 1022,1 hPa 0,0 l/m 9,0 km/h (2 Bft) O-NO 57 0 min 0,000 mm 0,0 UV-I 0 W/m 11,3 C 11,9 C 16,1 km/h (3 Bft) 98,11 %
26.09.2017 23:54 13,4 C 13,3 C 87 % 1022,0 hPa 0,0 l/m 8,9 km/h (2 Bft) NO 53 0 min 0,000 mm 0,0 UV-I 0 W/m 11,3 C 11,9 C 14,5 km/h (3 Bft) 96,23 %
26.09.2017 23:56 13,4 C 13,3 C 87 % 1022,0 hPa 0,0 l/m 9,1 km/h (2 Bft) O-NO 59 0 min 0,000 mm 0,0 UV-I 0 W/m 11,3 C 11,8 C 14,5 km/h (3 Bft) 97,73 %
26.09.2017 23:58 13,4 C 13,3 C 87 % 1022,0 hPa 0,0 l/m 10,5 km/h (2 Bft) O 90 0 min 0,000 mm 0,0 UV-I 0 W/m 11,3 C 11,1 C 16,1 km/h (3 Bft) 97,56 %
_ Min-Zeit 08:02 09:36 14:42 04:00 - 05:08 - - - - - - 07:50 01:26 05:08 03:18
Minimum _ 9,3 C 12,8 C 75 % 1019,1 hPa - 0,0 km/h (0 Bft) - - - - - - 8,3 C 8,4 C 0,0 km/h (0 Bft) 88,57 %
_ Max-Zeit 15:00 00:00 08:22 22:24 00:00 17:14 - - 14:23 15:00 12:04 14:32 16:54 14:32 20:50 00:10
Maximum _ 17,2 C 13,3 C 95 % 1022,1 hPa 0,0 l/m 21,9 km/h
O (4 Bft)
- - 3 min 0,305 mm 2,7 UV-I 728 W/m 13,3 C 16,0 C 32,2 km/h
NO (5 Bft)
100,00 %
Durchschnitt _ 13,3 C 13,3 C 86 % 1020,7 hPa #0,0 l/m 9,1 km/h (2 Bft) O-NO - #2:40 h #1,676 mm 1,3 UV-I 189 W/m 10,9 C 11,4 C 13,7 km/h (3 Bft) 98,21 %